<?xml version='1.0' encoding='UTF-8'?><gpx version="1.1" creator="JPX - https://github.com/jenetics/jpx" xmlns="http://www.topografix.com/GPX/1/1"><trk><trkseg><trkpt lat="43.686626246243506" lon="11.133436773476893"><ele>92.0</ele><time>2026-04-07T15:04:38Z</time></trkpt><trkpt lat="43.68667715420828" lon="11.133512114833838"><ele>92.0</ele><time>2026-04-07T15:04:43Z</time></trkpt><trkpt lat="43.686781842772845" lon="11.133522067532278"><ele>92.0</ele><time>2026-04-07T15:04:49Z</time></trkpt><trkpt lat="43.686887028066124" lon="11.133450473421092"><ele>92.0</ele><time>2026-04-07T15:04:55.001Z</time></trkpt><trkpt lat="43.686895801899844" lon="11.13354426729386"><ele>92.0</ele><time>2026-04-07T15:04:58.001Z</time></trkpt><trkpt lat="43.68681248644182" lon="11.133600242994401"><ele>92.0</ele><time>2026-04-07T15:05:01.001Z</time></trkpt><trkpt lat="43.68673511162903" lon="11.13364917458463"><ele>92.0</ele><time>2026-04-07T15:05:03.001Z</time></trkpt><trkpt lat="43.686644874191416" lon="11.133690074867046"><ele>92.0</ele><time>2026-04-07T15:05:05.001Z</time></trkpt><trkpt lat="43.68654132023072" lon="11.133704563708145"><ele>92.0</ele><time>2026-04-07T15:05:07.001Z</time></trkpt><trkpt lat="43.68647546552993" lon="11.133735268277293"><ele>92.0</ele><time>2026-04-07T15:05:08.001Z</time></trkpt><trkpt lat="43.68638159707235" lon="11.133782551378593"><ele>92.0</ele><time>2026-04-07T15:05:10.001Z</time></trkpt><trkpt lat="43.686297701095114" lon="11.133856268419441"><ele>92.0</ele><time>2026-04-07T15:05:12.001Z</time></trkpt><trkpt lat="43.686187887504786" lon="11.133848852563057"><ele>92.0</ele><time>2026-04-07T15:05:14.001Z</time></trkpt><trkpt lat="43.686139676872074" lon="11.133736842943161"><ele>92.0</ele><time>2026-04-07T15:05:16.001Z</time></trkpt><trkpt lat="43.68608325799919" lon="11.133649386022874"><ele>92.0</ele><time>2026-04-07T15:05:18.001Z</time></trkpt><trkpt lat="43.686003528798274" lon="11.13354178001903"><ele>91.19999999999999</ele><time>2026-04-07T15:05:20.001Z</time></trkpt><trkpt lat="43.68594254228549" lon="11.133440717068872"><ele>90.4</ele><time>2026-04-07T15:05:22.001Z</time></trkpt><trkpt lat="43.685903035780726" lon="11.133323639899663"><ele>89.6</ele><time>2026-04-07T15:05:24.001Z</time></trkpt><trkpt lat="43.68586055100731" lon="11.133183127419837"><ele>88.80000000000001</ele><time>2026-04-07T15:05:26.001Z</time></trkpt><trkpt lat="43.68581802185794" lon="11.1330646533706"><ele>88.0</ele><time>2026-04-07T15:05:28.001Z</time></trkpt><trkpt lat="43.68577920452653" lon="11.13292751284019"><ele>88.0</ele><time>2026-04-07T15:05:30.001Z</time></trkpt><trkpt lat="43.685737303861494" lon="11.132790394526475"><ele>88.0</ele><time>2026-04-07T15:05:32.001Z</time></trkpt><trkpt lat="43.68569186342236" lon="11.132657339478886"><ele>88.0</ele><time>2026-04-07T15:05:34.001Z</time></trkpt><trkpt lat="43.68564167778463" lon="11.132527005783583"><ele>88.0</ele><time>2026-04-07T15:05:36.001Z</time></trkpt><trkpt lat="43.68558459847513" lon="11.1323905934939"><ele>88.0</ele><time>2026-04-07T15:05:38.001Z</time></trkpt><trkpt lat="43.68552269067648" lon="11.132259180771866"><ele>88.2</ele><time>2026-04-07T15:05:40.001Z</time></trkpt><trkpt lat="43.68546152939637" lon="11.13213206137385"><ele>88.4</ele><time>2026-04-07T15:05:42.001Z</time></trkpt><trkpt lat="43.685374446994594" lon="11.132030260760198"><ele>88.60000000000001</ele><time>2026-04-07T15:05:44.001Z</time></trkpt><trkpt lat="43.68529126753602" lon="11.13192773242328"><ele>88.80000000000001</ele><time>2026-04-07T15:05:46.002Z</time></trkpt><trkpt lat="43.685222431395026" lon="11.131816971993203"><ele>89.0</ele><time>2026-04-07T15:05:48.002Z</time></trkpt><trkpt lat="43.68517029797804" lon="11.131706574809938"><ele>88.0</ele><time>2026-04-07T15:05:50.002Z</time></trkpt><trkpt lat="43.68519362325983" lon="11.131561642404865"><ele>87.0</ele><time>2026-04-07T15:05:52.002Z</time></trkpt><trkpt lat="43.68519794648487" lon="11.131421486479868"><ele>86.0</ele><time>2026-04-07T15:05:54.002Z</time></trkpt><trkpt lat="43.68512568632313" lon="11.131303665990686"><ele>85.0</ele><time>2026-04-07T15:05:56.002Z</time></trkpt><trkpt lat="43.68506526801631" lon="11.131180308185032"><ele>84.0</ele><time>2026-04-07T15:05:58.002Z</time></trkpt><trkpt lat="43.68501142535523" lon="11.131067586943734"><ele>84.0</ele><time>2026-04-07T15:06:00.002Z</time></trkpt><trkpt lat="43.68495118067881" lon="11.130923359774384"><ele>84.0</ele><time>2026-04-07T15:06:02.002Z</time></trkpt><trkpt lat="43.68484840538545" lon="11.130873608002753"><ele>84.0</ele><time>2026-04-07T15:06:04.002Z</time></trkpt><trkpt lat="43.684745161715696" lon="11.13086971700538"><ele>84.0</ele><time>2026-04-07T15:06:06.002Z</time></trkpt><trkpt lat="43.68465459475703" lon="11.130913376981017"><ele>84.0</ele><time>2026-04-07T15:06:08.002Z</time></trkpt><trkpt lat="43.68456361960162" lon="11.130950862282583"><ele>84.0</ele><time>2026-04-07T15:06:10.002Z</time></trkpt><trkpt lat="43.68448321011211" lon="11.131025389857808"><ele>84.0</ele><time>2026-04-07T15:06:12.002Z</time></trkpt><trkpt lat="43.684416126579826" lon="11.13107255586607"><ele>84.0</ele><time>2026-04-07T15:06:14.002Z</time></trkpt><trkpt lat="43.684330302342694" lon="11.13107448298652"><ele>84.0</ele><time>2026-04-07T15:06:17.002Z</time></trkpt><trkpt lat="43.68433131065331" lon="11.130931406269186"><ele>84.0</ele><time>2026-04-07T15:06:20.002Z</time></trkpt><trkpt lat="43.68432385302843" lon="11.130822535152864"><ele>84.0</ele><time>2026-04-07T15:06:22.002Z</time></trkpt><trkpt lat="43.68431290895846" lon="11.130722638252388"><ele>83.6</ele><time>2026-04-07T15:06:24.002Z</time></trkpt><trkpt lat="43.68429040863602" lon="11.130618154832051"><ele>83.2</ele><time>2026-04-07T15:06:26.002Z</time></trkpt><trkpt lat="43.68426285698571" lon="11.130500781498423"><ele>82.8</ele><time>2026-04-07T15:06:28.002Z</time></trkpt><trkpt lat="43.684218029916785" lon="11.130401934877758"><ele>82.39999999999999</ele><time>2026-04-07T15:06:30.002Z</time></trkpt><trkpt lat="43.68415727317796" lon="11.13030288159228"><ele>82.0</ele><time>2026-04-07T15:06:32.002Z</time></trkpt><trkpt lat="43.6840788388812" lon="11.130172755687077"><ele>82.0</ele><time>2026-04-07T15:06:34.002Z</time></trkpt><trkpt lat="43.684026941829195" lon="11.130039659989697"><ele>82.0</ele><time>2026-04-07T15:06:36.002Z</time></trkpt><trkpt lat="43.68397647358801" lon="11.129922170058109"><ele>82.0</ele><time>2026-04-07T15:06:38.002Z</time></trkpt><trkpt lat="43.68392808768533" lon="11.129800712653847"><ele>82.0</ele><time>2026-04-07T15:06:40.002Z</time></trkpt><trkpt lat="43.683883980753" lon="11.129691879248115"><ele>82.0</ele><time>2026-04-07T15:06:42.003Z</time></trkpt><trkpt lat="43.68384265180357" lon="11.129582919034107"><ele>82.0</ele><time>2026-04-07T15:06:44.003Z</time></trkpt><trkpt lat="43.68381324101082" lon="11.129473764623373"><ele>82.0</ele><time>2026-04-07T15:06:46.003Z</time></trkpt><trkpt lat="43.68377244891422" lon="11.129378486121686"><ele>82.0</ele><time>2026-04-07T15:06:48.003Z</time></trkpt><trkpt lat="43.68373903613571" lon="11.129289488248396"><ele>82.0</ele><time>2026-04-07T15:06:50.003Z</time></trkpt><trkpt lat="43.68371520679221" lon="11.129202860795077"><ele>82.0</ele><time>2026-04-07T15:06:52.003Z</time></trkpt><trkpt lat="43.683642257186314" lon="11.129198162576847"><ele>82.0</ele><time>2026-04-07T15:06:59.003Z</time></trkpt><trkpt lat="43.683560326742274" lon="11.129264122215098"><ele>82.0</ele><time>2026-04-07T15:07:02.003Z</time></trkpt><trkpt lat="43.683490059020805" lon="11.129315782042404"><ele>82.0</ele><time>2026-04-07T15:07:05.003Z</time></trkpt><trkpt lat="43.68343442525522" lon="11.129359369054015"><ele>82.0</ele><time>2026-04-07T15:07:08.003Z</time></trkpt><trkpt lat="43.68335603004756" lon="11.129351198050973"><ele>82.0</ele><time>2026-04-07T15:07:11.003Z</time></trkpt><trkpt lat="43.683272032619406" lon="11.129407454375128"><ele>82.0</ele><time>2026-04-07T15:07:13.003Z</time></trkpt><trkpt lat="43.68319445454662" lon="11.129433318300636"><ele>82.0</ele><time>2026-04-07T15:07:15.003Z</time></trkpt><trkpt lat="43.68313825417729" lon="11.12947601815791"><ele>82.0</ele><time>2026-04-07T15:07:17.003Z</time></trkpt><trkpt lat="43.68307276243459" lon="11.12954220876153"><ele>82.0</ele><time>2026-04-07T15:07:20.003Z</time></trkpt><trkpt lat="43.68298912033426" lon="11.12946040314217"><ele>82.0</ele><time>2026-04-07T15:07:23.003Z</time></trkpt><trkpt lat="43.68293406411771" lon="11.12932404742471"><ele>82.0</ele><time>2026-04-07T15:07:25.003Z</time></trkpt><trkpt lat="43.682901757921954" lon="11.129247741067207"><ele>82.0</ele><time>2026-04-07T15:07:26.003Z</time></trkpt><trkpt lat="43.682865607824056" lon="11.129172725513019"><ele>82.0</ele><time>2026-04-07T15:07:27.003Z</time></trkpt><trkpt lat="43.68282694693765" lon="11.129103326901971"><ele>81.57142857142857</ele><time>2026-04-07T15:07:28.003Z</time></trkpt><trkpt lat="43.68276820394841" lon="11.129041282201934"><ele>81.14285714285714</ele><time>2026-04-07T15:07:29.003Z</time></trkpt><trkpt lat="43.68271123714771" lon="11.128986802238561"><ele>80.71428571428572</ele><time>2026-04-07T15:07:30.003Z</time></trkpt><trkpt lat="43.68265975925918" lon="11.128922263053333"><ele>80.28571428571428</ele><time>2026-04-07T15:07:31.003Z</time></trkpt><trkpt lat="43.68261615041703" lon="11.12884688909231"><ele>79.85714285714286</ele><time>2026-04-07T15:07:32.003Z</time></trkpt><trkpt lat="43.68257271770941" lon="11.128779114363377"><ele>79.42857142857143</ele><time>2026-04-07T15:07:33.003Z</time></trkpt><trkpt lat="43.682533211027994" lon="11.12870790319642"><ele>79.0</ele><time>2026-04-07T15:07:34.003Z</time></trkpt><trkpt lat="43.6824712832517" lon="11.1285696218539"><ele>79.0</ele><time>2026-04-07T15:07:36.004Z</time></trkpt><trkpt lat="43.682404297221154" lon="11.128452369259591"><ele>79.0</ele><time>2026-04-07T15:07:38.004Z</time></trkpt><trkpt lat="43.68235275118978" lon="11.128317134132653"><ele>79.0</ele><time>2026-04-07T15:07:40.004Z</time></trkpt><trkpt lat="43.682285586730494" lon="11.12818595833861"><ele>79.0</ele><time>2026-04-07T15:07:42.004Z</time></trkpt><trkpt lat="43.6822173485631" lon="11.128061582395903"><ele>79.0</ele><time>2026-04-07T15:07:44.004Z</time></trkpt><trkpt lat="43.682146873964655" lon="11.127957158044568"><ele>79.0</ele><time>2026-04-07T15:07:46.004Z</time></trkpt><trkpt lat="43.68209613315503" lon="11.127851089234342"><ele>79.0</ele><time>2026-04-07T15:07:48.004Z</time></trkpt><trkpt lat="43.6820594605362" lon="11.12775063879458"><ele>79.0</ele><time>2026-04-07T15:07:50.004Z</time></trkpt><trkpt lat="43.68202808018348" lon="11.127652853101804"><ele>79.0</ele><time>2026-04-07T15:07:52.004Z</time></trkpt><trkpt lat="43.68194283010948" lon="11.127595020333963"><ele>79.0</ele><time>2026-04-07T15:07:55.004Z</time></trkpt><trkpt lat="43.68183242022247" lon="11.12762056892756"><ele>78.8</ele><time>2026-04-07T15:07:57.004Z</time></trkpt><trkpt lat="43.68172312399934" lon="11.127676197740087"><ele>78.60000000000001</ele><time>2026-04-07T15:07:59.004Z</time></trkpt><trkpt lat="43.68161075178899" lon="11.127732942606471"><ele>78.4</ele><time>2026-04-07T15:08:01.004Z</time></trkpt><trkpt lat="43.68155232764369" lon="11.127766329416982"><ele>78.2</ele><time>2026-04-07T15:08:02.004Z</time></trkpt><trkpt lat="43.68144835750678" lon="11.127794049946992"><ele>78.0</ele><time>2026-04-07T15:08:04.004Z</time></trkpt><trkpt lat="43.68135837484945" lon="11.127848949592114"><ele>78.0</ele><time>2026-04-07T15:08:06.004Z</time></trkpt><trkpt lat="43.68125391715409" lon="11.127904802016928"><ele>78.0</ele><time>2026-04-07T15:08:08.004Z</time></trkpt><trkpt lat="43.681153256508026" lon="11.127970697160773"><ele>78.0</ele><time>2026-04-07T15:08:10.004Z</time></trkpt><trkpt lat="43.68104856650686" lon="11.128027934025532"><ele>78.0</ele><time>2026-04-07T15:08:12.004Z</time></trkpt><trkpt lat="43.68095229983634" lon="11.12809618415367"><ele>78.0</ele><time>2026-04-07T15:08:14.004Z</time></trkpt><trkpt lat="43.68086908715688" lon="11.128167582554271"><ele>78.4</ele><time>2026-04-07T15:08:16.004Z</time></trkpt><trkpt lat="43.68076846725373" lon="11.128242629161436"><ele>78.8</ele><time>2026-04-07T15:08:18.004Z</time></trkpt><trkpt lat="43.6806785161904" lon="11.128322429572533"><ele>79.2</ele><time>2026-04-07T15:08:20.004Z</time></trkpt><trkpt lat="43.68058756116261" lon="11.128384670886332"><ele>79.6</ele><time>2026-04-07T15:08:22.004Z</time></trkpt><trkpt lat="43.68049257726132" lon="11.128456020116012"><ele>80.0</ele><time>2026-04-07T15:08:24.004Z</time></trkpt><trkpt lat="43.68040948313291" lon="11.12853771035092"><ele>80.0</ele><time>2026-04-07T15:08:26.004Z</time></trkpt><trkpt lat="43.68031861067603" lon="11.128612104944684"><ele>80.0</ele><time>2026-04-07T15:08:28.004Z</time></trkpt><trkpt lat="43.68023514160475" lon="11.128689636954253"><ele>80.0</ele><time>2026-04-07T15:08:30.005Z</time></trkpt><trkpt lat="43.68015471950341" lon="11.128768215261546"><ele>80.0</ele><time>2026-04-07T15:08:32.005Z</time></trkpt><trkpt lat="43.680078084579456" lon="11.128844505196147"><ele>80.0</ele><time>2026-04-07T15:08:34.005Z</time></trkpt><trkpt lat="43.67999251031383" lon="11.128912730107393"><ele>80.0</ele><time>2026-04-07T15:08:36.005Z</time></trkpt><trkpt lat="43.679897851670425" lon="11.128967132610565"><ele>80.0</ele><time>2026-04-07T15:08:38.005Z</time></trkpt><trkpt lat="43.679795853434825" lon="11.129011436630309"><ele>80.0</ele><time>2026-04-07T15:08:40.005Z</time></trkpt><trkpt lat="43.67970382547317" lon="11.129067252002644"><ele>80.0</ele><time>2026-04-07T15:08:42.005Z</time></trkpt><trkpt lat="43.67961526305406" lon="11.129106272710342"><ele>80.0</ele><time>2026-04-07T15:08:44.005Z</time></trkpt><trkpt lat="43.67953003567144" lon="11.129125173590058"><ele>80.0</ele><time>2026-04-07T15:08:46.005Z</time></trkpt><trkpt lat="43.67944666118626" lon="11.129164647766759"><ele>80.0</ele><time>2026-04-07T15:08:48.005Z</time></trkpt><trkpt lat="43.67934809593526" lon="11.129203113480079"><ele>80.0</ele><time>2026-04-07T15:08:50.005Z</time></trkpt><trkpt lat="43.67924476694847" lon="11.129240717364551"><ele>80.0</ele><time>2026-04-07T15:08:52.005Z</time></trkpt><trkpt lat="43.679162371985974" lon="11.12929930138502"><ele>80.0</ele><time>2026-04-07T15:08:54.005Z</time></trkpt><trkpt lat="43.67906543662709" lon="11.129347085257317"><ele>80.2</ele><time>2026-04-07T15:08:56.005Z</time></trkpt><trkpt lat="43.678984214580574" lon="11.129424552791274"><ele>80.4</ele><time>2026-04-07T15:08:58.005Z</time></trkpt><trkpt lat="43.6788905665578" lon="11.129499758257907"><ele>80.6</ele><time>2026-04-07T15:09:00.005Z</time></trkpt><trkpt lat="43.67879067636238" lon="11.129577750179797"><ele>80.8</ele><time>2026-04-07T15:09:02.005Z</time></trkpt><trkpt lat="43.67868729171013" lon="11.129628697251968"><ele>81.0</ele><time>2026-04-07T15:09:04.005Z</time></trkpt><trkpt lat="43.67858872698279" lon="11.129677635657172"><ele>81.4</ele><time>2026-04-07T15:09:06.005Z</time></trkpt><trkpt lat="43.678484365840035" lon="11.129730194909012"><ele>81.8</ele><time>2026-04-07T15:09:08.005Z</time></trkpt><trkpt lat="43.678381347873525" lon="11.129800625954045"><ele>82.2</ele><time>2026-04-07T15:09:10.005Z</time></trkpt><trkpt lat="43.67829124058818" lon="11.129862896388175"><ele>82.60000000000001</ele><time>2026-04-07T15:09:12.005Z</time></trkpt><trkpt lat="43.67818944766211" lon="11.129889180275171"><ele>83.0</ele><time>2026-04-07T15:09:14.005Z</time></trkpt><trkpt lat="43.67807268788848" lon="11.129908233105349"><ele>83.0</ele><time>2026-04-07T15:09:16.005Z</time></trkpt><trkpt lat="43.67797890094276" lon="11.129926072633848"><ele>83.0</ele><time>2026-04-07T15:09:18.005Z</time></trkpt><trkpt lat="43.677869218469354" lon="11.129954031949833"><ele>83.0</ele><time>2026-04-07T15:09:20.005Z</time></trkpt><trkpt lat="43.677758797384904" lon="11.129977368120874"><ele>83.0</ele><time>2026-04-07T15:09:22.005Z</time></trkpt><trkpt lat="43.677652558686866" lon="11.13001923487885"><ele>83.0</ele><time>2026-04-07T15:09:24.006Z</time></trkpt><trkpt lat="43.67755645637966" lon="11.130063940889057"><ele>83.2</ele><time>2026-04-07T15:09:26.006Z</time></trkpt><trkpt lat="43.677462479351526" lon="11.130103249736914"><ele>83.4</ele><time>2026-04-07T15:09:28.006Z</time></trkpt><trkpt lat="43.67737028267055" lon="11.130158747315496"><ele>83.60000000000001</ele><time>2026-04-07T15:09:30.006Z</time></trkpt><trkpt lat="43.677292980986934" lon="11.130217963863915"><ele>83.80000000000001</ele><time>2026-04-07T15:09:32.006Z</time></trkpt><trkpt lat="43.677210669837464" lon="11.130268046397173"><ele>84.0</ele><time>2026-04-07T15:09:34.006Z</time></trkpt><trkpt lat="43.677131072769704" lon="11.13033773168328"><ele>84.0</ele><time>2026-04-07T15:09:36.006Z</time></trkpt><trkpt lat="43.67704846623419" lon="11.130401357116906"><ele>84.0</ele><time>2026-04-07T15:09:38.006Z</time></trkpt><trkpt lat="43.67696596658927" lon="11.13045411376963"><ele>84.0</ele><time>2026-04-07T15:09:40.006Z</time></trkpt><trkpt lat="43.67689425769145" lon="11.13051727748476"><ele>84.0</ele><time>2026-04-07T15:09:42.006Z</time></trkpt><trkpt lat="43.676817736310504" lon="11.130561148114834"><ele>84.0</ele><time>2026-04-07T15:09:44.006Z</time></trkpt><trkpt lat="43.6767325460629" lon="11.130630266074991"><ele>83.80000000000001</ele><time>2026-04-07T15:09:46.006Z</time></trkpt><trkpt lat="43.676644913258926" lon="11.130682205821675"><ele>83.60000000000001</ele><time>2026-04-07T15:09:48.006Z</time></trkpt><trkpt lat="43.67655771341761" lon="11.130752843072987"><ele>83.4</ele><time>2026-04-07T15:09:50.006Z</time></trkpt><trkpt lat="43.676465559697704" lon="11.130818845787806"><ele>83.2</ele><time>2026-04-07T15:09:52.006Z</time></trkpt><trkpt lat="43.67639012076062" lon="11.130866363371792"><ele>83.0</ele><time>2026-04-07T15:09:54.006Z</time></trkpt><trkpt lat="43.67630859367557" lon="11.130942862337864"><ele>82.80000000000001</ele><time>2026-04-07T15:09:56.006Z</time></trkpt><trkpt lat="43.67622259458379" lon="11.130998583418785"><ele>82.6</ele><time>2026-04-07T15:09:58.006Z</time></trkpt><trkpt lat="43.67614085566967" lon="11.131085103305526"><ele>82.4</ele><time>2026-04-07T15:10:00.006Z</time></trkpt><trkpt lat="43.67606328179961" lon="11.131177306508476"><ele>82.19999999999999</ele><time>2026-04-07T15:10:02.006Z</time></trkpt><trkpt lat="43.67597630577087" lon="11.131259376418752"><ele>82.0</ele><time>2026-04-07T15:10:04.006Z</time></trkpt><trkpt lat="43.67588370189739" lon="11.131340063814578"><ele>82.0</ele><time>2026-04-07T15:10:06.006Z</time></trkpt><trkpt lat="43.67578777984413" lon="11.131378262530044"><ele>82.0</ele><time>2026-04-07T15:10:08.006Z</time></trkpt><trkpt lat="43.675702227699496" lon="11.131417788610214"><ele>82.0</ele><time>2026-04-07T15:10:10.006Z</time></trkpt><trkpt lat="43.675615099280016" lon="11.131472327189032"><ele>82.0</ele><time>2026-04-07T15:10:12.006Z</time></trkpt><trkpt lat="43.67552766903426" lon="11.131521688227215"><ele>82.0</ele><time>2026-04-07T15:10:14.006Z</time></trkpt><trkpt lat="43.675445762204184" lon="11.131579499554535"><ele>81.8</ele><time>2026-04-07T15:10:16.006Z</time></trkpt><trkpt lat="43.6753509877839" lon="11.131637639102532"><ele>81.6</ele><time>2026-04-07T15:10:18.006Z</time></trkpt><trkpt lat="43.67525121883856" lon="11.131659837094013"><ele>81.39999999999999</ele><time>2026-04-07T15:10:20.006Z</time></trkpt><trkpt lat="43.67515709440836" lon="11.131698597169244"><ele>81.19999999999999</ele><time>2026-04-07T15:10:22.006Z</time></trkpt><trkpt lat="43.67505320317824" lon="11.131743804453471"><ele>81.0</ele><time>2026-04-07T15:10:24.006Z</time></trkpt><trkpt lat="43.674959836767535" lon="11.13180185972233"><ele>81.0</ele><time>2026-04-07T15:10:26.006Z</time></trkpt><trkpt lat="43.67487046318662" lon="11.131863275393652"><ele>81.0</ele><time>2026-04-07T15:10:28.007Z</time></trkpt><trkpt lat="43.674787118523426" lon="11.131933085884448"><ele>81.0</ele><time>2026-04-07T15:10:30.007Z</time></trkpt><trkpt lat="43.67467937875594" lon="11.131941761571616"><ele>81.0</ele><time>2026-04-07T15:10:32.007Z</time></trkpt><trkpt lat="43.6745745573621" lon="11.131950810603042"><ele>81.0</ele><time>2026-04-07T15:10:34.007Z</time></trkpt><trkpt lat="43.674473578992384" lon="11.131954301880604"><ele>81.0</ele><time>2026-04-07T15:10:36.007Z</time></trkpt><trkpt lat="43.67438224469666" lon="11.131969522231996"><ele>81.0</ele><time>2026-04-07T15:10:38.007Z</time></trkpt><trkpt lat="43.67428835769033" lon="11.131974359526112"><ele>81.0</ele><time>2026-04-07T15:10:40.007Z</time></trkpt><trkpt lat="43.674197274247696" lon="11.131990661877554"><ele>81.0</ele><time>2026-04-07T15:10:42.007Z</time></trkpt><trkpt lat="43.67411084417401" lon="11.131978780171359"><ele>81.0</ele><time>2026-04-07T15:10:44.007Z</time></trkpt><trkpt lat="43.67401168334021" lon="11.13200707112754"><ele>81.0</ele><time>2026-04-07T15:10:46.007Z</time></trkpt><trkpt lat="43.67392485956321" lon="11.13202683186254"><ele>81.0</ele><time>2026-04-07T15:10:48.007Z</time></trkpt><trkpt lat="43.67383324053764" lon="11.132024437229175"><ele>81.0</ele><time>2026-04-07T15:10:50.007Z</time></trkpt><trkpt lat="43.673741122145" lon="11.132041857925389"><ele>81.0</ele><time>2026-04-07T15:10:52.007Z</time></trkpt><trkpt lat="43.67365139491718" lon="11.132048939801761"><ele>81.0</ele><time>2026-04-07T15:10:54.007Z</time></trkpt><trkpt lat="43.67355816991459" lon="11.132054818543955"><ele>81.19999999999999</ele><time>2026-04-07T15:10:56.007Z</time></trkpt><trkpt lat="43.67346512612662" lon="11.132053074655191"><ele>81.39999999999999</ele><time>2026-04-07T15:10:58.007Z</time></trkpt><trkpt lat="43.67337417118841" lon="11.132042761833635"><ele>81.6</ele><time>2026-04-07T15:11:00.007Z</time></trkpt><trkpt lat="43.67328407439969" lon="11.132020867758845"><ele>81.8</ele><time>2026-04-07T15:11:02.007Z</time></trkpt><trkpt lat="43.67318849547683" lon="11.132007584698913"><ele>82.0</ele><time>2026-04-07T15:11:04.007Z</time></trkpt><trkpt lat="43.673090595020575" lon="11.132022192192785"><ele>82.0</ele><time>2026-04-07T15:11:06.007Z</time></trkpt><trkpt lat="43.6729936701393" lon="11.132023665964391"><ele>82.0</ele><time>2026-04-07T15:11:08.007Z</time></trkpt><trkpt lat="43.67289775920694" lon="11.131998291034616"><ele>82.0</ele><time>2026-04-07T15:11:10.007Z</time></trkpt><trkpt lat="43.67279007225183" lon="11.131993067533376"><ele>82.0</ele><time>2026-04-07T15:11:12.007Z</time></trkpt><trkpt lat="43.67268681322035" lon="11.132019159910337"><ele>82.0</ele><time>2026-04-07T15:11:14.007Z</time></trkpt><trkpt lat="43.6725924878867" lon="11.132021724378925"><ele>82.0</ele><time>2026-04-07T15:11:16.007Z</time></trkpt><trkpt lat="43.67249119351283" lon="11.132020092277987"><ele>82.0</ele><time>2026-04-07T15:11:18.007Z</time></trkpt><trkpt lat="43.67239665322783" lon="11.13204055377413"><ele>82.0</ele><time>2026-04-07T15:11:20.007Z</time></trkpt><trkpt lat="43.67231254140568" lon="11.132059043452877"><ele>82.0</ele><time>2026-04-07T15:11:22.007Z</time></trkpt><trkpt lat="43.6722262911723" lon="11.13206981386627"><ele>82.0</ele><time>2026-04-07T15:11:24.008Z</time></trkpt><trkpt lat="43.67214133065587" lon="11.132101874163581"><ele>82.0</ele><time>2026-04-07T15:11:26.008Z</time></trkpt><trkpt lat="43.672050125487516" lon="11.132121903047546"><ele>82.0</ele><time>2026-04-07T15:11:28.008Z</time></trkpt><trkpt lat="43.67196938041458" lon="11.13213478042498"><ele>82.0</ele><time>2026-04-07T15:11:30.008Z</time></trkpt><trkpt lat="43.671873965607645" lon="11.132149562895439"><ele>82.0</ele><time>2026-04-07T15:11:32.008Z</time></trkpt><trkpt lat="43.67178885573045" lon="11.132179642281177"><ele>82.0</ele><time>2026-04-07T15:11:34.008Z</time></trkpt><trkpt lat="43.67169944218411" lon="11.13221325882508"><ele>82.33333333333333</ele><time>2026-04-07T15:11:36.008Z</time></trkpt><trkpt lat="43.671622497702415" lon="11.13224835130518"><ele>82.66666666666666</ele><time>2026-04-07T15:11:38.008Z</time></trkpt><trkpt lat="43.67155207380393" lon="11.132294079363149"><ele>83.0</ele><time>2026-04-07T15:11:40.008Z</time></trkpt><trkpt lat="43.67148023069588" lon="11.132338898151172"><ele>83.33333333333333</ele><time>2026-04-07T15:11:42.008Z</time></trkpt><trkpt lat="43.67140736650588" lon="11.132388672872986"><ele>83.66666666666667</ele><time>2026-04-07T15:11:44.008Z</time></trkpt><trkpt lat="43.67131063177871" lon="11.132422063712216"><ele>84.0</ele><time>2026-04-07T15:11:46.008Z</time></trkpt><trkpt lat="43.671221491451895" lon="11.132486035240765"><ele>84.2</ele><time>2026-04-07T15:11:48.008Z</time></trkpt><trkpt lat="43.67113731210612" lon="11.132553687120211"><ele>84.4</ele><time>2026-04-07T15:11:50.008Z</time></trkpt><trkpt lat="43.67105995885999" lon="11.132629763792824"><ele>84.6</ele><time>2026-04-07T15:11:52.008Z</time></trkpt><trkpt lat="43.670978413914355" lon="11.132728527759221"><ele>84.8</ele><time>2026-04-07T15:11:54.008Z</time></trkpt><trkpt lat="43.67089924863577" lon="11.132789169121784"><ele>85.0</ele><time>2026-04-07T15:11:56.008Z</time></trkpt><trkpt lat="43.670818285083485" lon="11.132864218210404"><ele>85.0</ele><time>2026-04-07T15:11:58.008Z</time></trkpt><trkpt lat="43.67073978030945" lon="11.132928095280665"><ele>85.0</ele><time>2026-04-07T15:12:00.008Z</time></trkpt><trkpt lat="43.67065344638828" lon="11.133019270212953"><ele>85.0</ele><time>2026-04-07T15:12:02.008Z</time></trkpt><trkpt lat="43.67056730472731" lon="11.133099304545429"><ele>85.0</ele><time>2026-04-07T15:12:04.008Z</time></trkpt><trkpt lat="43.67049197417762" lon="11.13318380560875"><ele>85.0</ele><time>2026-04-07T15:12:06.008Z</time></trkpt><trkpt lat="43.670401094429224" lon="11.133277879583355"><ele>85.2</ele><time>2026-04-07T15:12:08.008Z</time></trkpt><trkpt lat="43.670318084966944" lon="11.133368669841913"><ele>85.4</ele><time>2026-04-07T15:12:10.008Z</time></trkpt><trkpt lat="43.67024627484157" lon="11.133443878727231"><ele>85.6</ele><time>2026-04-07T15:12:12.008Z</time></trkpt><trkpt lat="43.67016808885566" lon="11.13351802231366"><ele>85.8</ele><time>2026-04-07T15:12:14.008Z</time></trkpt><trkpt lat="43.670102352009856" lon="11.133605055458931"><ele>86.0</ele><time>2026-04-07T15:12:16.008Z</time></trkpt><trkpt lat="43.6700256298528" lon="11.133688162256623"><ele>86.0</ele><time>2026-04-07T15:12:18.008Z</time></trkpt><trkpt lat="43.669954744260515" lon="11.133769152353652"><ele>86.0</ele><time>2026-04-07T15:12:20.009Z</time></trkpt><trkpt lat="43.669881121785586" lon="11.13385066733433"><ele>86.0</ele><time>2026-04-07T15:12:22.009Z</time></trkpt><trkpt lat="43.66980731854432" lon="11.133933557931545"><ele>86.0</ele><time>2026-04-07T15:12:24.009Z</time></trkpt><trkpt lat="43.66973517398549" lon="11.134006808145593"><ele>86.0</ele><time>2026-04-07T15:12:26.009Z</time></trkpt><trkpt lat="43.669667923557185" lon="11.134081786848702"><ele>86.0</ele><time>2026-04-07T15:12:28.009Z</time></trkpt><trkpt lat="43.66958756694103" lon="11.134140178852073"><ele>86.0</ele><time>2026-04-07T15:12:30.009Z</time></trkpt><trkpt lat="43.669476974493534" lon="11.134264629896869"><ele>86.0</ele><time>2026-04-07T15:12:33.009Z</time></trkpt><trkpt lat="43.66939449925844" lon="11.134316830634482"><ele>86.0</ele><time>2026-04-07T15:12:35.009Z</time></trkpt><trkpt lat="43.669309269675594" lon="11.134404279066306"><ele>86.0</ele><time>2026-04-07T15:12:37.009Z</time></trkpt><trkpt lat="43.669231487106025" lon="11.134485264000471"><ele>86.19999999999999</ele><time>2026-04-07T15:12:39.009Z</time></trkpt><trkpt lat="43.6691585028181" lon="11.134555506593662"><ele>86.39999999999999</ele><time>2026-04-07T15:12:41.009Z</time></trkpt><trkpt lat="43.669083542265476" lon="11.13463297209539"><ele>86.6</ele><time>2026-04-07T15:12:43.009Z</time></trkpt><trkpt lat="43.66900356283287" lon="11.134709174537587"><ele>86.8</ele><time>2026-04-07T15:12:45.009Z</time></trkpt><trkpt lat="43.668936886243586" lon="11.134787810287408"><ele>87.0</ele><time>2026-04-07T15:12:47.009Z</time></trkpt><trkpt lat="43.66886186524465" lon="11.134868367486861"><ele>87.0</ele><time>2026-04-07T15:12:49.009Z</time></trkpt><trkpt lat="43.668774268869484" lon="11.134942227391143"><ele>87.0</ele><time>2026-04-07T15:12:51.009Z</time></trkpt><trkpt lat="43.668690794530626" lon="11.135004117317592"><ele>87.0</ele><time>2026-04-07T15:12:53.009Z</time></trkpt><trkpt lat="43.6686074096965" lon="11.135064210531503"><ele>87.0</ele><time>2026-04-07T15:12:55.009Z</time></trkpt><trkpt lat="43.66852352628845" lon="11.13515781508038"><ele>87.0</ele><time>2026-04-07T15:12:57.009Z</time></trkpt><trkpt lat="43.66843914490522" lon="11.13523749042016"><ele>87.0</ele><time>2026-04-07T15:12:59.009Z</time></trkpt><trkpt lat="43.66835553558158" lon="11.135316712823913"><ele>87.0</ele><time>2026-04-07T15:13:01.009Z</time></trkpt><trkpt lat="43.66826338987586" lon="11.13536843931413"><ele>87.0</ele><time>2026-04-07T15:13:03.009Z</time></trkpt><trkpt lat="43.66816149774289" lon="11.13541544465462"><ele>87.0</ele><time>2026-04-07T15:13:05.009Z</time></trkpt><trkpt lat="43.66806454610303" lon="11.135455700277445"><ele>87.0</ele><time>2026-04-07T15:13:07.009Z</time></trkpt><trkpt lat="43.667953220729885" lon="11.135466819203982"><ele>87.0</ele><time>2026-04-07T15:13:09.009Z</time></trkpt><trkpt lat="43.667850636081205" lon="11.135493851806215"><ele>87.0</ele><time>2026-04-07T15:13:11.009Z</time></trkpt><trkpt lat="43.66773765616539" lon="11.135514032907718"><ele>87.0</ele><time>2026-04-07T15:13:13.009Z</time></trkpt><trkpt lat="43.667633946699105" lon="11.135537021210233"><ele>87.0</ele><time>2026-04-07T15:13:15.01Z</time></trkpt><trkpt lat="43.66752393050135" lon="11.135533024117784"><ele>87.0</ele><time>2026-04-07T15:13:17.01Z</time></trkpt><trkpt lat="43.667434386171074" lon="11.135524249036516"><ele>87.19999999999999</ele><time>2026-04-07T15:13:19.01Z</time></trkpt><trkpt lat="43.66733378573524" lon="11.135523944753206"><ele>87.4</ele><time>2026-04-07T15:13:21.01Z</time></trkpt><trkpt lat="43.667236882663346" lon="11.135537049201975"><ele>87.6</ele><time>2026-04-07T15:13:23.01Z</time></trkpt><trkpt lat="43.66713861266303" lon="11.13555357228172"><ele>87.80000000000001</ele><time>2026-04-07T15:13:25.01Z</time></trkpt><trkpt lat="43.66704031391535" lon="11.135568583332438"><ele>88.0</ele><time>2026-04-07T15:13:27.01Z</time></trkpt><trkpt lat="43.66694432929247" lon="11.135574104068263"><ele>88.0</ele><time>2026-04-07T15:13:29.01Z</time></trkpt><trkpt lat="43.66685152188952" lon="11.13557183361015"><ele>88.0</ele><time>2026-04-07T15:13:31.01Z</time></trkpt><trkpt lat="43.66675530387677" lon="11.135579437747845"><ele>88.0</ele><time>2026-04-07T15:13:33.01Z</time></trkpt><trkpt lat="43.66666900100964" lon="11.13558243943172"><ele>88.0</ele><time>2026-04-07T15:13:35.01Z</time></trkpt><trkpt lat="43.666579215067664" lon="11.135578807779533"><ele>88.0</ele><time>2026-04-07T15:13:37.01Z</time></trkpt><trkpt lat="43.66650942303641" lon="11.135588648324273"><ele>88.0</ele><time>2026-04-07T15:13:39.01Z</time></trkpt><trkpt lat="43.666429482991255" lon="11.13561795307495"><ele>88.0</ele><time>2026-04-07T15:13:41.01Z</time></trkpt><trkpt lat="43.666359754759235" lon="11.135644026616106"><ele>88.0</ele><time>2026-04-07T15:13:43.01Z</time></trkpt><trkpt lat="43.66629058361609" lon="11.13565706368248"><ele>88.0</ele><time>2026-04-07T15:13:45.01Z</time></trkpt><trkpt lat="43.66621018717336" lon="11.135675073645649"><ele>88.0</ele><time>2026-04-07T15:13:47.01Z</time></trkpt><trkpt lat="43.66612992597011" lon="11.135686255409391"><ele>88.0</ele><time>2026-04-07T15:13:49.01Z</time></trkpt><trkpt lat="43.666047663572" lon="11.135705408901039"><ele>88.0</ele><time>2026-04-07T15:13:51.01Z</time></trkpt><trkpt lat="43.66597228121321" lon="11.135723852597932"><ele>88.5</ele><time>2026-04-07T15:13:53.011Z</time></trkpt><trkpt lat="43.665897911050855" lon="11.135728419927464"><ele>89.0</ele><time>2026-04-07T15:13:55.011Z</time></trkpt><trkpt lat="43.665797870268" lon="11.135761080322439"><ele>89.5</ele><time>2026-04-07T15:13:57.011Z</time></trkpt><trkpt lat="43.66570968663513" lon="11.135798576721527"><ele>90.0</ele><time>2026-04-07T15:13:59.011Z</time></trkpt><trkpt lat="43.66562349989074" lon="11.135827313234957"><ele>90.5</ele><time>2026-04-07T15:14:01.011Z</time></trkpt><trkpt lat="43.66553856473889" lon="11.135866269143477"><ele>91.0</ele><time>2026-04-07T15:14:03.011Z</time></trkpt><trkpt lat="43.66545424957855" lon="11.135896532802839"><ele>91.0</ele><time>2026-04-07T15:14:05.011Z</time></trkpt><trkpt lat="43.665369339130095" lon="11.135937337223522"><ele>91.0</ele><time>2026-04-07T15:14:07.011Z</time></trkpt><trkpt lat="43.66528521256575" lon="11.135985111181911"><ele>91.0</ele><time>2026-04-07T15:14:09.011Z</time></trkpt><trkpt lat="43.66520522596003" lon="11.136022617974287"><ele>91.0</ele><time>2026-04-07T15:14:11.012Z</time></trkpt><trkpt lat="43.665130365852065" lon="11.13607700451641"><ele>91.0</ele><time>2026-04-07T15:14:13.012Z</time></trkpt><trkpt lat="43.665058737157594" lon="11.136153224055128"><ele>91.0</ele><time>2026-04-07T15:14:15.012Z</time></trkpt><trkpt lat="43.66497624094958" lon="11.136223949780938"><ele>91.19999999999999</ele><time>2026-04-07T15:14:17.012Z</time></trkpt><trkpt lat="43.664896226035665" lon="11.136300530798563"><ele>91.39999999999999</ele><time>2026-04-07T15:14:19.012Z</time></trkpt><trkpt lat="43.66482223656458" lon="11.136384974204091"><ele>91.6</ele><time>2026-04-07T15:14:21.012Z</time></trkpt><trkpt lat="43.664751570829395" lon="11.136478450860606"><ele>91.8</ele><time>2026-04-07T15:14:23.012Z</time></trkpt><trkpt lat="43.66468488287311" lon="11.136597719177658"><ele>92.0</ele><time>2026-04-07T15:14:25.012Z</time></trkpt><trkpt lat="43.66461269375515" lon="11.136681281218017"><ele>91.8</ele><time>2026-04-07T15:14:27.012Z</time></trkpt><trkpt lat="43.664531083713726" lon="11.136781634561219"><ele>91.6</ele><time>2026-04-07T15:14:29.012Z</time></trkpt><trkpt lat="43.664445199002216" lon="11.136881956028336"><ele>91.39999999999999</ele><time>2026-04-07T15:14:31.012Z</time></trkpt><trkpt lat="43.6643601924749" lon="11.13695889230477"><ele>91.19999999999999</ele><time>2026-04-07T15:14:33.012Z</time></trkpt><trkpt lat="43.664263045076105" lon="11.137008038560667"><ele>91.0</ele><time>2026-04-07T15:14:35.012Z</time></trkpt><trkpt lat="43.66417721048439" lon="11.137082922328467"><ele>91.0</ele><time>2026-04-07T15:14:37.012Z</time></trkpt><trkpt lat="43.66408931416928" lon="11.137147703314568"><ele>91.0</ele><time>2026-04-07T15:14:39.012Z</time></trkpt><trkpt lat="43.66400125687635" lon="11.137214762414303"><ele>91.0</ele><time>2026-04-07T15:14:41.012Z</time></trkpt><trkpt lat="43.66391408618848" lon="11.137260918808341"><ele>91.0</ele><time>2026-04-07T15:14:43.012Z</time></trkpt><trkpt lat="43.66383490361245" lon="11.137321422720175"><ele>91.0</ele><time>2026-04-07T15:14:45.012Z</time></trkpt><trkpt lat="43.66375158904703" lon="11.137371532725432"><ele>91.0</ele><time>2026-04-07T15:14:47.012Z</time></trkpt><trkpt lat="43.66367203549325" lon="11.137416370374376"><ele>91.0</ele><time>2026-04-07T15:14:49.012Z</time></trkpt><trkpt lat="43.663602586389445" lon="11.137456729460908"><ele>91.0</ele><time>2026-04-07T15:14:51.012Z</time></trkpt><trkpt lat="43.663524374262835" lon="11.137493283955815"><ele>91.0</ele><time>2026-04-07T15:14:53.012Z</time></trkpt><trkpt lat="43.6634451619878" lon="11.13752425630543"><ele>91.0</ele><time>2026-04-07T15:14:55.012Z</time></trkpt><trkpt lat="43.663375759316324" lon="11.137561741970794"><ele>91.0</ele><time>2026-04-07T15:14:57.012Z</time></trkpt><trkpt lat="43.66329893008349" lon="11.137609506601821"><ele>91.19999999999999</ele><time>2026-04-07T15:14:59.012Z</time></trkpt><trkpt lat="43.66321699839131" lon="11.137676766341972"><ele>91.39999999999999</ele><time>2026-04-07T15:15:01.012Z</time></trkpt><trkpt lat="43.66313654506623" lon="11.13773386399921"><ele>91.6</ele><time>2026-04-07T15:15:03.012Z</time></trkpt><trkpt lat="43.66306302647313" lon="11.137795566559632"><ele>91.8</ele><time>2026-04-07T15:15:05.013Z</time></trkpt><trkpt lat="43.66298592721567" lon="11.137853358824875"><ele>92.0</ele><time>2026-04-07T15:15:07.013Z</time></trkpt><trkpt lat="43.66290883247976" lon="11.137931254044249"><ele>92.0</ele><time>2026-04-07T15:15:09.013Z</time></trkpt><trkpt lat="43.66283088898645" lon="11.137979749739722"><ele>92.0</ele><time>2026-04-07T15:15:11.013Z</time></trkpt><trkpt lat="43.66275392228778" lon="11.138041606876072"><ele>92.0</ele><time>2026-04-07T15:15:13.013Z</time></trkpt><trkpt lat="43.662676347324904" lon="11.138104210822586"><ele>92.0</ele><time>2026-04-07T15:15:15.013Z</time></trkpt><trkpt lat="43.66259745071796" lon="11.138169681655233"><ele>92.0</ele><time>2026-04-07T15:15:17.013Z</time></trkpt><trkpt lat="43.662511344438634" lon="11.138234013035651"><ele>92.0</ele><time>2026-04-07T15:15:19.013Z</time></trkpt><trkpt lat="43.662427188941024" lon="11.138303929500871"><ele>92.0</ele><time>2026-04-07T15:15:21.013Z</time></trkpt><trkpt lat="43.662343659196" lon="11.13836712643845"><ele>92.0</ele><time>2026-04-07T15:15:23.013Z</time></trkpt><trkpt lat="43.66226580078254" lon="11.138440272219512"><ele>92.0</ele><time>2026-04-07T15:15:25.013Z</time></trkpt><trkpt lat="43.66218677106628" lon="11.138504926817516"><ele>92.0</ele><time>2026-04-07T15:15:27.013Z</time></trkpt><trkpt lat="43.66210479860058" lon="11.138579084948345"><ele>92.0</ele><time>2026-04-07T15:15:29.013Z</time></trkpt><trkpt lat="43.66202478820681" lon="11.1386581155568"><ele>92.0</ele><time>2026-04-07T15:15:31.013Z</time></trkpt><trkpt lat="43.66194745066886" lon="11.138732720400819"><ele>92.0</ele><time>2026-04-07T15:15:33.013Z</time></trkpt><trkpt lat="43.66186419848992" lon="11.13881359358271"><ele>92.0</ele><time>2026-04-07T15:15:35.013Z</time></trkpt><trkpt lat="43.66178810932658" lon="11.138892918506352"><ele>92.0</ele><time>2026-04-07T15:15:37.013Z</time></trkpt><trkpt lat="43.66170679038594" lon="11.138967993006363"><ele>91.8</ele><time>2026-04-07T15:15:39.013Z</time></trkpt><trkpt lat="43.66162224861443" lon="11.139055378265153"><ele>91.6</ele><time>2026-04-07T15:15:41.013Z</time></trkpt><trkpt lat="43.66154022533559" lon="11.139133104107344"><ele>91.39999999999999</ele><time>2026-04-07T15:15:43.013Z</time></trkpt><trkpt lat="43.661461054900094" lon="11.139217860315037"><ele>91.19999999999999</ele><time>2026-04-07T15:15:45.013Z</time></trkpt><trkpt lat="43.661387504782816" lon="11.13931448657774"><ele>91.0</ele><time>2026-04-07T15:15:47.013Z</time></trkpt><trkpt lat="43.66130493142016" lon="11.139399962067827"><ele>91.0</ele><time>2026-04-07T15:15:49.013Z</time></trkpt><trkpt lat="43.66122885403905" lon="11.139488493547658"><ele>91.0</ele><time>2026-04-07T15:15:51.013Z</time></trkpt><trkpt lat="43.66115063815473" lon="11.139582012520087"><ele>91.0</ele><time>2026-04-07T15:15:53.013Z</time></trkpt><trkpt lat="43.661078264282025" lon="11.13967088643623"><ele>91.0</ele><time>2026-04-07T15:15:55.013Z</time></trkpt><trkpt lat="43.66101224557107" lon="11.139770293254177"><ele>91.0</ele><time>2026-04-07T15:15:57.013Z</time></trkpt><trkpt lat="43.66097310488632" lon="11.139902344394955"><ele>91.6</ele><time>2026-04-07T15:15:59.013Z</time></trkpt><trkpt lat="43.660966180638134" lon="11.140049416546653"><ele>92.19999999999999</ele><time>2026-04-07T15:16:01.014Z</time></trkpt><trkpt lat="43.66091937466597" lon="11.140180037321176"><ele>92.80000000000001</ele><time>2026-04-07T15:16:03.014Z</time></trkpt><trkpt lat="43.66087821379567" lon="11.14031268587669"><ele>93.4</ele><time>2026-04-07T15:16:05.014Z</time></trkpt><trkpt lat="43.660849621082946" lon="11.14045959242729"><ele>94.0</ele><time>2026-04-07T15:16:07.014Z</time></trkpt><trkpt lat="43.660823010219005" lon="11.14060267216245"><ele>94.2</ele><time>2026-04-07T15:16:09.014Z</time></trkpt><trkpt lat="43.66078812257299" lon="11.140744212628292"><ele>94.4</ele><time>2026-04-07T15:16:11.014Z</time></trkpt><trkpt lat="43.660731568708215" lon="11.140872945132074"><ele>94.6</ele><time>2026-04-07T15:16:13.014Z</time></trkpt><trkpt lat="43.6606552835254" lon="11.140969255835525"><ele>94.8</ele><time>2026-04-07T15:16:15.014Z</time></trkpt><trkpt lat="43.66057386097862" lon="11.14107927505492"><ele>95.0</ele><time>2026-04-07T15:16:17.014Z</time></trkpt><trkpt lat="43.66049644402067" lon="11.141203049677102"><ele>95.0</ele><time>2026-04-07T15:16:19.014Z</time></trkpt><trkpt lat="43.66039237342193" lon="11.141272547085778"><ele>95.0</ele><time>2026-04-07T15:16:21.014Z</time></trkpt><trkpt lat="43.660312159246914" lon="11.141369516480562"><ele>95.0</ele><time>2026-04-07T15:16:23.014Z</time></trkpt><trkpt lat="43.66024819953717" lon="11.14146557571727"><ele>95.0</ele><time>2026-04-07T15:16:25.014Z</time></trkpt><trkpt lat="43.660198652368436" lon="11.141561048221513"><ele>95.0</ele><time>2026-04-07T15:16:27.014Z</time></trkpt><trkpt lat="43.66013136153934" lon="11.141648048175963"><ele>95.16666666666667</ele><time>2026-04-07T15:16:29.014Z</time></trkpt><trkpt lat="43.66007240141655" lon="11.14174610300272"><ele>95.33333333333334</ele><time>2026-04-07T15:16:31.014Z</time></trkpt><trkpt lat="43.66001650686216" lon="11.141840089529962"><ele>95.5</ele><time>2026-04-07T15:16:33.014Z</time></trkpt><trkpt lat="43.65995399679215" lon="11.141933890368746"><ele>95.66666666666667</ele><time>2026-04-07T15:16:35.014Z</time></trkpt><trkpt lat="43.65988954699799" lon="11.142014313965175"><ele>95.83333333333333</ele><time>2026-04-07T15:16:37.014Z</time></trkpt><trkpt lat="43.65983605392291" lon="11.142109442042903"><ele>96.0</ele><time>2026-04-07T15:16:39.014Z</time></trkpt><trkpt lat="43.65977368908529" lon="11.142204793752112"><ele>96.0</ele><time>2026-04-07T15:16:41.014Z</time></trkpt><trkpt lat="43.65969185428782" lon="11.142262904235464"><ele>96.0</ele><time>2026-04-07T15:16:43.014Z</time></trkpt><trkpt lat="43.659622341241054" lon="11.142352339193474"><ele>96.0</ele><time>2026-04-07T15:16:45.014Z</time></trkpt><trkpt lat="43.659545861268285" lon="11.142439485120383"><ele>96.0</ele><time>2026-04-07T15:16:47.014Z</time></trkpt><trkpt lat="43.65946254860523" lon="11.142515723903294"><ele>96.0</ele><time>2026-04-07T15:16:49.014Z</time></trkpt><trkpt lat="43.65938207513358" lon="11.142601522485284"><ele>95.8</ele><time>2026-04-07T15:16:51.014Z</time></trkpt><trkpt lat="43.65930435480135" lon="11.142689249743022"><ele>95.6</ele><time>2026-04-07T15:16:53.014Z</time></trkpt><trkpt lat="43.659216845443225" lon="11.142769856306389"><ele>95.4</ele><time>2026-04-07T15:16:55.015Z</time></trkpt><trkpt lat="43.659137927179664" lon="11.142866937398567"><ele>95.2</ele><time>2026-04-07T15:16:57.015Z</time></trkpt><trkpt lat="43.65906208401058" lon="11.14296190427213"><ele>95.0</ele><time>2026-04-07T15:16:59.015Z</time></trkpt><trkpt lat="43.65898551722611" lon="11.143053463958974"><ele>95.0</ele><time>2026-04-07T15:17:01.015Z</time></trkpt><trkpt lat="43.65891994419964" lon="11.143152263796658"><ele>95.0</ele><time>2026-04-07T15:17:03.015Z</time></trkpt><trkpt lat="43.65884583488107" lon="11.143230919423143"><ele>95.0</ele><time>2026-04-07T15:17:05.015Z</time></trkpt><trkpt lat="43.658760644185286" lon="11.14327722690165"><ele>95.0</ele><time>2026-04-07T15:17:07.015Z</time></trkpt><trkpt lat="43.65866664448343" lon="11.143325233937489"><ele>95.0</ele><time>2026-04-07T15:17:09.015Z</time></trkpt><trkpt lat="43.65857826131226" lon="11.143385546583232"><ele>95.6</ele><time>2026-04-07T15:17:11.015Z</time></trkpt><trkpt lat="43.658510126822875" lon="11.143455844327882"><ele>96.2</ele><time>2026-04-07T15:17:13.015Z</time></trkpt><trkpt lat="43.658447056189914" lon="11.143552129107988"><ele>96.80000000000001</ele><time>2026-04-07T15:17:15.015Z</time></trkpt><trkpt lat="43.658385942039786" lon="11.14366113527032"><ele>97.4</ele><time>2026-04-07T15:17:17.015Z</time></trkpt><trkpt lat="43.65832451313023" lon="11.143769126451708"><ele>98.0</ele><time>2026-04-07T15:17:19.015Z</time></trkpt><trkpt lat="43.658252652223894" lon="11.143866482867539"><ele>98.0</ele><time>2026-04-07T15:17:21.015Z</time></trkpt><trkpt lat="43.658187571142996" lon="11.143979638667497"><ele>98.0</ele><time>2026-04-07T15:17:23.015Z</time></trkpt><trkpt lat="43.658116038147895" lon="11.14408711685315"><ele>98.0</ele><time>2026-04-07T15:17:25.015Z</time></trkpt><trkpt lat="43.658032034284275" lon="11.144165293553161"><ele>98.0</ele><time>2026-04-07T15:17:27.015Z</time></trkpt><trkpt lat="43.65795238319296" lon="11.1442533726876"><ele>98.0</ele><time>2026-04-07T15:17:29.015Z</time></trkpt><trkpt lat="43.65787438410781" lon="11.144338987433347"><ele>98.0</ele><time>2026-04-07T15:17:31.015Z</time></trkpt><trkpt lat="43.65778974541234" lon="11.144410678523796"><ele>98.0</ele><time>2026-04-07T15:17:33.015Z</time></trkpt><trkpt lat="43.657719955952636" lon="11.144488550800224"><ele>98.0</ele><time>2026-04-07T15:17:35.015Z</time></trkpt><trkpt lat="43.65764952357556" lon="11.144589332369403"><ele>98.0</ele><time>2026-04-07T15:17:37.015Z</time></trkpt><trkpt lat="43.657594156414845" lon="11.144688616154498"><ele>98.0</ele><time>2026-04-07T15:17:39.015Z</time></trkpt><trkpt lat="43.657531324626305" lon="11.14479149319344"><ele>98.2</ele><time>2026-04-07T15:17:41.015Z</time></trkpt><trkpt lat="43.657488138307926" lon="11.144913823087396"><ele>98.4</ele><time>2026-04-07T15:17:43.015Z</time></trkpt><trkpt lat="43.65747180983646" lon="11.145041843305268"><ele>98.60000000000001</ele><time>2026-04-07T15:17:45.015Z</time></trkpt><trkpt lat="43.65741924267849" lon="11.145157670678174"><ele>98.80000000000001</ele><time>2026-04-07T15:17:47.015Z</time></trkpt><trkpt lat="43.6573569467157" lon="11.1452755541112"><ele>99.0</ele><time>2026-04-07T15:17:49.015Z</time></trkpt><trkpt lat="43.65731408802909" lon="11.145404265919579"><ele>99.0</ele><time>2026-04-07T15:17:51.016Z</time></trkpt><trkpt lat="43.65731271380057" lon="11.145492839164927"><ele>99.0</ele><time>2026-04-07T15:17:52.016Z</time></trkpt><trkpt lat="43.657327264398376" lon="11.145649579712746"><ele>99.0</ele><time>2026-04-07T15:17:54.016Z</time></trkpt><trkpt lat="43.657318102438964" lon="11.145807638315226"><ele>99.0</ele><time>2026-04-07T15:17:56.016Z</time></trkpt><trkpt lat="43.657291996722606" lon="11.14595925962858"><ele>99.0</ele><time>2026-04-07T15:17:58.016Z</time></trkpt><trkpt lat="43.65728105853137" lon="11.146107528584249"><ele>98.80000000000001</ele><time>2026-04-07T15:18:00.016Z</time></trkpt><trkpt lat="43.65725954206039" lon="11.146259469250666"><ele>98.60000000000001</ele><time>2026-04-07T15:18:02.016Z</time></trkpt><trkpt lat="43.657208066617436" lon="11.146398395771016"><ele>98.4</ele><time>2026-04-07T15:18:04.016Z</time></trkpt><trkpt lat="43.65715931679418" lon="11.14652025391045"><ele>98.2</ele><time>2026-04-07T15:18:06.016Z</time></trkpt><trkpt lat="43.65715293991144" lon="11.146665597746551"><ele>98.0</ele><time>2026-04-07T15:18:08.016Z</time></trkpt><trkpt lat="43.657129696717526" lon="11.146802010724189"><ele>98.0</ele><time>2026-04-07T15:18:10.016Z</time></trkpt><trkpt lat="43.657093746334496" lon="11.14694765458954"><ele>98.0</ele><time>2026-04-07T15:18:12.016Z</time></trkpt><trkpt lat="43.657069201030204" lon="11.147102413943452"><ele>98.0</ele><time>2026-04-07T15:18:14.016Z</time></trkpt><trkpt lat="43.65705170031835" lon="11.14726291331987"><ele>98.0</ele><time>2026-04-07T15:18:16.016Z</time></trkpt><trkpt lat="43.65702596373634" lon="11.147417233993481"><ele>98.0</ele><time>2026-04-07T15:18:18.016Z</time></trkpt><trkpt lat="43.65699774455255" lon="11.147567106141345"><ele>98.0</ele><time>2026-04-07T15:18:20.016Z</time></trkpt><trkpt lat="43.6569725245747" lon="11.147716650692837"><ele>98.0</ele><time>2026-04-07T15:18:22.016Z</time></trkpt><trkpt lat="43.65694452913097" lon="11.147858939316013"><ele>98.0</ele><time>2026-04-07T15:18:24.016Z</time></trkpt><trkpt lat="43.65691029966945" lon="11.147995507363415"><ele>98.0</ele><time>2026-04-07T15:18:26.016Z</time></trkpt><trkpt lat="43.65685133599063" lon="11.14812339707183"><ele>98.2</ele><time>2026-04-07T15:18:28.016Z</time></trkpt><trkpt lat="43.656774085983855" lon="11.148231655779536"><ele>98.4</ele><time>2026-04-07T15:18:30.016Z</time></trkpt><trkpt lat="43.656704451840746" lon="11.148336501876512"><ele>98.60000000000001</ele><time>2026-04-07T15:18:32.016Z</time></trkpt><trkpt lat="43.656623848384434" lon="11.148436318330784"><ele>98.80000000000001</ele><time>2026-04-07T15:18:34.016Z</time></trkpt><trkpt lat="43.65653119855578" lon="11.14850863324817"><ele>99.0</ele><time>2026-04-07T15:18:36.016Z</time></trkpt><trkpt lat="43.65645220284149" lon="11.148612814255863"><ele>99.0</ele><time>2026-04-07T15:18:38.016Z</time></trkpt><trkpt lat="43.65638674997791" lon="11.148726897257932"><ele>99.0</ele><time>2026-04-07T15:18:40.016Z</time></trkpt><trkpt lat="43.65631226724606" lon="11.148841971991292"><ele>99.0</ele><time>2026-04-07T15:18:42.016Z</time></trkpt><trkpt lat="43.656234686245085" lon="11.1489383394214"><ele>99.0</ele><time>2026-04-07T15:18:44.016Z</time></trkpt><trkpt lat="43.656136815580425" lon="11.14899851591607"><ele>99.0</ele><time>2026-04-07T15:18:46.017Z</time></trkpt><trkpt lat="43.656062201024504" lon="11.149084504795209"><ele>99.0</ele><time>2026-04-07T15:18:48.017Z</time></trkpt><trkpt lat="43.65598612405432" lon="11.149160828325282"><ele>99.0</ele><time>2026-04-07T15:18:50.017Z</time></trkpt><trkpt lat="43.655921077593625" lon="11.149243075075361"><ele>99.0</ele><time>2026-04-07T15:18:52.017Z</time></trkpt><trkpt lat="43.655848183208256" lon="11.14932457885448"><ele>99.0</ele><time>2026-04-07T15:18:54.017Z</time></trkpt><trkpt lat="43.65577225348221" lon="11.149388441663305"><ele>99.0</ele><time>2026-04-07T15:18:56.017Z</time></trkpt><trkpt lat="43.655703081396034" lon="11.14946019135619"><ele>99.0</ele><time>2026-04-07T15:18:58.017Z</time></trkpt><trkpt lat="43.65563382585827" lon="11.149546460799304"><ele>99.0</ele><time>2026-04-07T15:19:00.017Z</time></trkpt><trkpt lat="43.65554877720606" lon="11.149622010315014"><ele>99.0</ele><time>2026-04-07T15:19:02.017Z</time></trkpt><trkpt lat="43.65546480056097" lon="11.149691533522564"><ele>99.0</ele><time>2026-04-07T15:19:04.017Z</time></trkpt><trkpt lat="43.65538112498318" lon="11.14976024951824"><ele>99.0</ele><time>2026-04-07T15:19:06.017Z</time></trkpt><trkpt lat="43.65532057858047" lon="11.149874884176786"><ele>99.6</ele><time>2026-04-07T15:19:08.017Z</time></trkpt><trkpt lat="43.65525149529634" lon="11.149970154565851"><ele>100.2</ele><time>2026-04-07T15:19:10.017Z</time></trkpt><trkpt lat="43.65517658487496" lon="11.150046662283668"><ele>100.8</ele><time>2026-04-07T15:19:12.017Z</time></trkpt><trkpt lat="43.655123764728245" lon="11.150154449034538"><ele>101.39999999999999</ele><time>2026-04-07T15:19:14.017Z</time></trkpt><trkpt lat="43.6550689666909" lon="11.150254841384923"><ele>102.0</ele><time>2026-04-07T15:19:16.017Z</time></trkpt><trkpt lat="43.655004278581025" lon="11.150336054471413"><ele>102.0</ele><time>2026-04-07T15:19:18.017Z</time></trkpt><trkpt lat="43.65493816457355" lon="11.150416151398614"><ele>102.0</ele><time>2026-04-07T15:19:20.017Z</time></trkpt><trkpt lat="43.654854081484004" lon="11.150475378466076"><ele>102.0</ele><time>2026-04-07T15:19:22.017Z</time></trkpt><trkpt lat="43.65478754432991" lon="11.15057790980522"><ele>102.0</ele><time>2026-04-07T15:19:24.017Z</time></trkpt><trkpt lat="43.65471861930539" lon="11.150658792833198"><ele>102.0</ele><time>2026-04-07T15:19:26.017Z</time></trkpt><trkpt lat="43.65465426837344" lon="11.150753936044861"><ele>102.0</ele><time>2026-04-07T15:19:28.017Z</time></trkpt><trkpt lat="43.654582704263085" lon="11.150822329556314"><ele>102.0</ele><time>2026-04-07T15:19:30.017Z</time></trkpt><trkpt lat="43.65449416999171" lon="11.150872089029349"><ele>102.0</ele><time>2026-04-07T15:19:32.017Z</time></trkpt><trkpt lat="43.65442158430015" lon="11.15093380419346"><ele>102.0</ele><time>2026-04-07T15:19:34.017Z</time></trkpt><trkpt lat="43.65434711946211" lon="11.151030280462804"><ele>102.0</ele><time>2026-04-07T15:19:36.017Z</time></trkpt><trkpt lat="43.65427568912386" lon="11.151131407605313"><ele>102.0</ele><time>2026-04-07T15:19:38.017Z</time></trkpt><trkpt lat="43.65421609284125" lon="11.151230472976831"><ele>102.0</ele><time>2026-04-07T15:19:40.018Z</time></trkpt><trkpt lat="43.654163692865446" lon="11.151342617146076"><ele>102.0</ele><time>2026-04-07T15:19:42.018Z</time></trkpt><trkpt lat="43.65409838805027" lon="11.151447351724302"><ele>102.0</ele><time>2026-04-07T15:19:44.018Z</time></trkpt><trkpt lat="43.65403398475084" lon="11.151547273046184"><ele>102.0</ele><time>2026-04-07T15:19:46.018Z</time></trkpt><trkpt lat="43.65397173656245" lon="11.15165597380887"><ele>102.0</ele><time>2026-04-07T15:19:48.018Z</time></trkpt><trkpt lat="43.65391863425429" lon="11.151769020036044"><ele>102.0</ele><time>2026-04-07T15:19:50.018Z</time></trkpt><trkpt lat="43.65385683776132" lon="11.15188671421693"><ele>102.0</ele><time>2026-04-07T15:19:52.018Z</time></trkpt><trkpt lat="43.65379780787181" lon="11.151995608647038"><ele>102.0</ele><time>2026-04-07T15:19:54.018Z</time></trkpt><trkpt lat="43.6537318013847" lon="11.152098008478381"><ele>102.0</ele><time>2026-04-07T15:19:56.018Z</time></trkpt><trkpt lat="43.6536695329805" lon="11.152202668851698"><ele>102.19999999999999</ele><time>2026-04-07T15:19:58.018Z</time></trkpt><trkpt lat="43.65360068642907" lon="11.152299962150689"><ele>102.4</ele><time>2026-04-07T15:20:00.018Z</time></trkpt><trkpt lat="43.65354393109335" lon="11.15240113946031"><ele>102.6</ele><time>2026-04-07T15:20:02.018Z</time></trkpt><trkpt lat="43.65347876537492" lon="11.152495309346738"><ele>102.80000000000001</ele><time>2026-04-07T15:20:04.018Z</time></trkpt><trkpt lat="43.653419034896274" lon="11.152594721201606"><ele>103.0</ele><time>2026-04-07T15:20:06.018Z</time></trkpt><trkpt lat="43.653355250454474" lon="11.152685518580482"><ele>103.0</ele><time>2026-04-07T15:20:08.018Z</time></trkpt><trkpt lat="43.65329466521767" lon="11.152781168295865"><ele>103.0</ele><time>2026-04-07T15:20:10.018Z</time></trkpt><trkpt lat="43.65323525460165" lon="11.15288535599799"><ele>103.0</ele><time>2026-04-07T15:20:12.018Z</time></trkpt><trkpt lat="43.65319011947915" lon="11.15300284175266"><ele>103.0</ele><time>2026-04-07T15:20:14.018Z</time></trkpt><trkpt lat="43.65314868428315" lon="11.153123357138622"><ele>103.0</ele><time>2026-04-07T15:20:16.018Z</time></trkpt><trkpt lat="43.65311640452391" lon="11.153252615278879"><ele>103.0</ele><time>2026-04-07T15:20:18.018Z</time></trkpt><trkpt lat="43.65307885592713" lon="11.153379804813168"><ele>103.0</ele><time>2026-04-07T15:20:20.018Z</time></trkpt><trkpt lat="43.65303759449027" lon="11.153503918711852"><ele>103.0</ele><time>2026-04-07T15:20:22.018Z</time></trkpt><trkpt lat="43.65299425247698" lon="11.153624023315436"><ele>103.0</ele><time>2026-04-07T15:20:24.018Z</time></trkpt><trkpt lat="43.65294403845859" lon="11.153735842487007"><ele>103.0</ele><time>2026-04-07T15:20:26.018Z</time></trkpt><trkpt lat="43.652888102305646" lon="11.153842618417844"><ele>102.99999999999999</ele><time>2026-04-07T15:20:28.018Z</time></trkpt><trkpt lat="43.652835438564615" lon="11.153907345552026"><ele>103.0</ele><time>2026-04-07T15:20:30.018Z</time></trkpt><trkpt lat="43.6527763748924" lon="11.153944506849422"><ele>103.0</ele><time>2026-04-07T15:20:36.019Z</time></trkpt><trkpt lat="43.65271656844872" lon="11.154004780363131"><ele>103.0</ele><time>2026-04-07T15:20:41.019Z</time></trkpt><trkpt lat="43.65266279654799" lon="11.154057181626063"><ele>103.0</ele><time>2026-04-07T15:20:48.019Z</time></trkpt><trkpt lat="43.65260472421694" lon="11.154091629993502"><ele>102.99999999999999</ele><time>2026-04-07T15:20:57.019Z</time></trkpt><trkpt lat="43.652547570099756" lon="11.154147605158947"><ele>103.0</ele><time>2026-04-07T15:21:01.019Z</time></trkpt><trkpt lat="43.652489335350054" lon="11.154186378496213"><ele>103.50000000000001</ele><time>2026-04-07T15:21:04.019Z</time></trkpt><trkpt lat="43.65240956728604" lon="11.154245932492817"><ele>104.0</ele><time>2026-04-07T15:21:07.019Z</time></trkpt><trkpt lat="43.65235622402135" lon="11.154307100163761"><ele>104.5</ele><time>2026-04-07T15:21:09.019Z</time></trkpt><trkpt lat="43.65230057365335" lon="11.154367581704491"><ele>105.0</ele><time>2026-04-07T15:21:11.019Z</time></trkpt><trkpt lat="43.652249945755194" lon="11.154459714000787"><ele>105.50000000000001</ele><time>2026-04-07T15:21:13.019Z</time></trkpt><trkpt lat="43.65220962286712" lon="11.154559196680495"><ele>106.0</ele><time>2026-04-07T15:21:15.019Z</time></trkpt><trkpt lat="43.65216647320216" lon="11.15465696104859"><ele>106.00000000000001</ele><time>2026-04-07T15:21:17.019Z</time></trkpt><trkpt lat="43.652130139917695" lon="11.15476494424241"><ele>106.0</ele><time>2026-04-07T15:21:19.019Z</time></trkpt><trkpt lat="43.652089291277875" lon="11.154859203989574"><ele>106.0</ele><time>2026-04-07T15:21:21.019Z</time></trkpt><trkpt lat="43.652039389351984" lon="11.15495980815448"><ele>106.0</ele><time>2026-04-07T15:21:23.019Z</time></trkpt><trkpt lat="43.65197564149294" lon="11.155051158877264"><ele>106.00000000000001</ele><time>2026-04-07T15:21:25.019Z</time></trkpt><trkpt lat="43.65191076928173" lon="11.155132599826095"><ele>106.0</ele><time>2026-04-07T15:21:27.019Z</time></trkpt><trkpt lat="43.651841051861595" lon="11.155213442491183"><ele>106.0</ele><time>2026-04-07T15:21:29.019Z</time></trkpt><trkpt lat="43.651762954058654" lon="11.155285636457197"><ele>106.0</ele><time>2026-04-07T15:21:31.02Z</time></trkpt><trkpt lat="43.651691255605584" lon="11.155355625678496"><ele>106.0</ele><time>2026-04-07T15:21:33.02Z</time></trkpt><trkpt lat="43.65161450935856" lon="11.155428741828324"><ele>106.0</ele><time>2026-04-07T15:21:35.02Z</time></trkpt><trkpt lat="43.651534362753" lon="11.155501355825201"><ele>106.0</ele><time>2026-04-07T15:21:37.02Z</time></trkpt><trkpt lat="43.651456723153906" lon="11.155584678199498"><ele>106.0</ele><time>2026-04-07T15:21:39.02Z</time></trkpt><trkpt lat="43.65138894860405" lon="11.15565568214925"><ele>106.0</ele><time>2026-04-07T15:21:41.02Z</time></trkpt><trkpt lat="43.65131425988776" lon="11.155743837373246"><ele>106.0</ele><time>2026-04-07T15:21:43.02Z</time></trkpt><trkpt lat="43.651250650298415" lon="11.155835710353928"><ele>106.0</ele><time>2026-04-07T15:21:45.02Z</time></trkpt><trkpt lat="43.65120266698508" lon="11.155943778413912"><ele>106.0</ele><time>2026-04-07T15:21:47.02Z</time></trkpt><trkpt lat="43.651165140090875" lon="11.1560663768433"><ele>106.0</ele><time>2026-04-07T15:21:49.02Z</time></trkpt><trkpt lat="43.651128111009186" lon="11.156189928112433"><ele>106.0</ele><time>2026-04-07T15:21:51.02Z</time></trkpt><trkpt lat="43.65110201228959" lon="11.156314735326623"><ele>106.0</ele><time>2026-04-07T15:21:53.02Z</time></trkpt><trkpt lat="43.651064229351995" lon="11.156426802377231"><ele>106.0</ele><time>2026-04-07T15:21:55.02Z</time></trkpt><trkpt lat="43.651014655421044" lon="11.156542961781186"><ele>106.0</ele><time>2026-04-07T15:21:57.02Z</time></trkpt><trkpt lat="43.65095445079662" lon="11.156655804844819"><ele>106.0</ele><time>2026-04-07T15:21:59.02Z</time></trkpt><trkpt lat="43.650890731922715" lon="11.156760064208957"><ele>106.0</ele><time>2026-04-07T15:22:01.02Z</time></trkpt><trkpt lat="43.65082062052815" lon="11.156854364691618"><ele>106.0</ele><time>2026-04-07T15:22:03.02Z</time></trkpt><trkpt lat="43.650745217171526" lon="11.156956481997467"><ele>106.0</ele><time>2026-04-07T15:22:05.02Z</time></trkpt><trkpt lat="43.65067640031276" lon="11.157078218983058"><ele>106.0</ele><time>2026-04-07T15:22:07.02Z</time></trkpt><trkpt lat="43.650599234795976" lon="11.157194037736113"><ele>106.0</ele><time>2026-04-07T15:22:09.02Z</time></trkpt><trkpt lat="43.65052847581609" lon="11.157308735128971"><ele>106.0</ele><time>2026-04-07T15:22:11.02Z</time></trkpt><trkpt lat="43.65045511604232" lon="11.157414764751179"><ele>106.0</ele><time>2026-04-07T15:22:13.02Z</time></trkpt><trkpt lat="43.6503886715157" lon="11.157530585253223"><ele>106.0</ele><time>2026-04-07T15:22:15.02Z</time></trkpt><trkpt lat="43.65031797301959" lon="11.157643713022246"><ele>106.0</ele><time>2026-04-07T15:22:17.02Z</time></trkpt><trkpt lat="43.65026297086538" lon="11.157766220150911"><ele>106.0</ele><time>2026-04-07T15:22:19.02Z</time></trkpt><trkpt lat="43.65022265272759" lon="11.157901389204804"><ele>106.0</ele><time>2026-04-07T15:22:21.02Z</time></trkpt><trkpt lat="43.65019638302223" lon="11.158045798702668"><ele>106.0</ele><time>2026-04-07T15:22:23.02Z</time></trkpt><trkpt lat="43.65017178529362" lon="11.158187511409881"><ele>106.0</ele><time>2026-04-07T15:22:25.02Z</time></trkpt><trkpt lat="43.65014770589103" lon="11.158327537448537"><ele>106.0</ele><time>2026-04-07T15:22:27.021Z</time></trkpt><trkpt lat="43.65012550395429" lon="11.158469060960048"><ele>106.19999999999999</ele><time>2026-04-07T15:22:29.021Z</time></trkpt><trkpt lat="43.65010255756689" lon="11.158605338919347"><ele>106.39999999999999</ele><time>2026-04-07T15:22:31.021Z</time></trkpt><trkpt lat="43.65007607284311" lon="11.158744796809557"><ele>106.6</ele><time>2026-04-07T15:22:33.021Z</time></trkpt><trkpt lat="43.65004930402309" lon="11.158885239831088"><ele>106.8</ele><time>2026-04-07T15:22:35.021Z</time></trkpt><trkpt lat="43.650022473673936" lon="11.159024320419936"><ele>107.0</ele><time>2026-04-07T15:22:37.021Z</time></trkpt><trkpt lat="43.64998623851022" lon="11.1591555388808"><ele>107.0</ele><time>2026-04-07T15:22:39.021Z</time></trkpt><trkpt lat="43.64993787104743" lon="11.159277986697973"><ele>106.99999999999999</ele><time>2026-04-07T15:22:41.021Z</time></trkpt><trkpt lat="43.649884107952914" lon="11.15940466880478"><ele>106.99999999999999</ele><time>2026-04-07T15:22:43.021Z</time></trkpt><trkpt lat="43.64981876025488" lon="11.159523335274384"><ele>107.0</ele><time>2026-04-07T15:22:45.021Z</time></trkpt><trkpt lat="43.649747909085576" lon="11.159629356816781"><ele>107.0</ele><time>2026-04-07T15:22:47.021Z</time></trkpt><trkpt lat="43.64968777305914" lon="11.159748976380143"><ele>107.0</ele><time>2026-04-07T15:22:49.021Z</time></trkpt><trkpt lat="43.649622459718145" lon="11.159862684244047"><ele>106.99999999999999</ele><time>2026-04-07T15:22:51.021Z</time></trkpt><trkpt lat="43.649558537651146" lon="11.159977571162496"><ele>106.99999999999999</ele><time>2026-04-07T15:22:53.021Z</time></trkpt><trkpt lat="43.64949549647808" lon="11.16009798869834"><ele>107.0</ele><time>2026-04-07T15:22:55.021Z</time></trkpt><trkpt lat="43.64942825423943" lon="11.160211546106206"><ele>107.0</ele><time>2026-04-07T15:22:57.021Z</time></trkpt><trkpt lat="43.64936067910444" lon="11.160329244678136"><ele>107.19999999999999</ele><time>2026-04-07T15:22:59.021Z</time></trkpt><trkpt lat="43.6492986074904" lon="11.160449514285697"><ele>107.39999999999999</ele><time>2026-04-07T15:23:01.021Z</time></trkpt><trkpt lat="43.64923428247771" lon="11.160570763809957"><ele>107.60000000000001</ele><time>2026-04-07T15:23:03.021Z</time></trkpt><trkpt lat="43.649175285772664" lon="11.160693258820853"><ele>107.80000000000001</ele><time>2026-04-07T15:23:05.021Z</time></trkpt><trkpt lat="43.64911168108074" lon="11.160809050351418"><ele>108.0</ele><time>2026-04-07T15:23:07.021Z</time></trkpt><trkpt lat="43.64905567733869" lon="11.160931722891036"><ele>108.2</ele><time>2026-04-07T15:23:09.021Z</time></trkpt><trkpt lat="43.64899255795254" lon="11.161046234192536"><ele>108.4</ele><time>2026-04-07T15:23:11.021Z</time></trkpt><trkpt lat="43.64894609028751" lon="11.161172027719783"><ele>108.60000000000001</ele><time>2026-04-07T15:23:13.021Z</time></trkpt><trkpt lat="43.64888550145874" lon="11.161288144388424"><ele>108.80000000000001</ele><time>2026-04-07T15:23:15.021Z</time></trkpt><trkpt lat="43.64883163624002" lon="11.16140388823724"><ele>109.0</ele><time>2026-04-07T15:23:17.021Z</time></trkpt><trkpt lat="43.64877854432531" lon="11.161521976723405"><ele>109.0</ele><time>2026-04-07T15:23:19.021Z</time></trkpt><trkpt lat="43.64872313117769" lon="11.16163614653024"><ele>109.0</ele><time>2026-04-07T15:23:21.022Z</time></trkpt><trkpt lat="43.648667774118806" lon="11.161749484725025"><ele>109.0</ele><time>2026-04-07T15:23:23.022Z</time></trkpt><trkpt lat="43.64860438671556" lon="11.161862762066939"><ele>109.0</ele><time>2026-04-07T15:23:25.022Z</time></trkpt><trkpt lat="43.6485396238551" lon="11.161968974121773"><ele>109.0</ele><time>2026-04-07T15:23:27.022Z</time></trkpt><trkpt lat="43.64846988256323" lon="11.162064955541712"><ele>109.0</ele><time>2026-04-07T15:23:29.022Z</time></trkpt><trkpt lat="43.64839452690493" lon="11.162156494047709"><ele>109.0</ele><time>2026-04-07T15:23:31.022Z</time></trkpt><trkpt lat="43.64832357976757" lon="11.162252712836132"><ele>109.0</ele><time>2026-04-07T15:23:33.022Z</time></trkpt><trkpt lat="43.648258534699266" lon="11.162343443671748"><ele>109.0</ele><time>2026-04-07T15:23:35.022Z</time></trkpt><trkpt lat="43.64818729956317" lon="11.162439615353469"><ele>109.0</ele><time>2026-04-07T15:23:37.022Z</time></trkpt><trkpt lat="43.648121670995415" lon="11.162549933386444"><ele>109.4</ele><time>2026-04-07T15:23:39.022Z</time></trkpt><trkpt lat="43.64805231896565" lon="11.162641762862144"><ele>109.80000000000001</ele><time>2026-04-07T15:23:41.022Z</time></trkpt><trkpt lat="43.647981016435644" lon="11.162734044918823"><ele>110.19999999999999</ele><time>2026-04-07T15:23:43.022Z</time></trkpt><trkpt lat="43.64790889069819" lon="11.162827677033462"><ele>110.6</ele><time>2026-04-07T15:23:45.022Z</time></trkpt><trkpt lat="43.64783868358489" lon="11.162924167907192"><ele>111.0</ele><time>2026-04-07T15:23:47.022Z</time></trkpt><trkpt lat="43.64775985999489" lon="11.163017010688625"><ele>111.0</ele><time>2026-04-07T15:23:49.022Z</time></trkpt><trkpt lat="43.64768432086423" lon="11.163106838272212"><ele>111.0</ele><time>2026-04-07T15:23:51.022Z</time></trkpt><trkpt lat="43.64760919513507" lon="11.163195175183539"><ele>111.0</ele><time>2026-04-07T15:23:53.022Z</time></trkpt><trkpt lat="43.64753138982937" lon="11.16328251262463"><ele>111.0</ele><time>2026-04-07T15:23:55.022Z</time></trkpt><trkpt lat="43.64745670087594" lon="11.1633576009543"><ele>111.0</ele><time>2026-04-07T15:23:57.022Z</time></trkpt><trkpt lat="43.64737993339697" lon="11.16340700405095"><ele>111.19999999999999</ele><time>2026-04-07T15:23:59.022Z</time></trkpt><trkpt lat="43.64730981245082" lon="11.163455881587268"><ele>111.39999999999999</ele><time>2026-04-07T15:24:01.022Z</time></trkpt><trkpt lat="43.64722262334069" lon="11.163547005463585"><ele>111.6</ele><time>2026-04-07T15:24:03.022Z</time></trkpt><trkpt lat="43.64713966455924" lon="11.163624257848598"><ele>111.8</ele><time>2026-04-07T15:24:05.022Z</time></trkpt><trkpt lat="43.64706024245669" lon="11.16369363292551"><ele>112.0</ele><time>2026-04-07T15:24:07.022Z</time></trkpt><trkpt lat="43.64697421854802" lon="11.163768864370057"><ele>112.19999999999999</ele><time>2026-04-07T15:24:09.018Z</time></trkpt><trkpt lat="43.64689159252204" lon="11.163832842207205"><ele>112.39999999999999</ele><time>2026-04-07T15:24:11.018Z</time></trkpt><trkpt lat="43.646813208526" lon="11.163893666827004"><ele>112.60000000000001</ele><time>2026-04-07T15:24:13.018Z</time></trkpt><trkpt lat="43.64671879024638" lon="11.163965229968191"><ele>112.80000000000001</ele><time>2026-04-07T15:24:15.018Z</time></trkpt><trkpt lat="43.64662563586533" lon="11.164014542704251"><ele>113.0</ele><time>2026-04-07T15:24:17.018Z</time></trkpt><trkpt lat="43.64652738345808" lon="11.164066362071555"><ele>113.0</ele><time>2026-04-07T15:24:19.018Z</time></trkpt><trkpt lat="43.64642777712042" lon="11.164090777753856"><ele>113.00000000000001</ele><time>2026-04-07T15:24:21.018Z</time></trkpt><trkpt lat="43.646332458349946" lon="11.164110730540717"><ele>113.00000000000001</ele><time>2026-04-07T15:24:23.018Z</time></trkpt><trkpt lat="43.6462276683212" lon="11.16412017628259"><ele>113.0</ele><time>2026-04-07T15:24:25.018Z</time></trkpt><trkpt lat="43.64613355485501" lon="11.164135856842217"><ele>113.0</ele><time>2026-04-07T15:24:27.018Z</time></trkpt><trkpt lat="43.646045946624334" lon="11.164156448063059"><ele>113.14285714285714</ele><time>2026-04-07T15:24:29.018Z</time></trkpt><trkpt lat="43.64597442332487" lon="11.164194723655688"><ele>113.28571428571428</ele><time>2026-04-07T15:24:31.018Z</time></trkpt><trkpt lat="43.645932210831006" lon="11.164263547023584"><ele>113.42857142857142</ele><time>2026-04-07T15:24:33.018Z</time></trkpt><trkpt lat="43.64591721279308" lon="11.16436777927257"><ele>113.57142857142857</ele><time>2026-04-07T15:24:36.018Z</time></trkpt><trkpt lat="43.645893097440954" lon="11.164454663689083"><ele>113.7142857142857</ele><time>2026-04-07T15:24:42.018Z</time></trkpt><trkpt lat="43.64587514853367" lon="11.164545005680965"><ele>113.85714285714285</ele><time>2026-04-07T15:24:50.018Z</time></trkpt><trkpt lat="43.64582632761496" lon="11.164616725554355"><ele>114.0</ele><time>2026-04-07T15:24:55.018Z</time></trkpt><trkpt lat="43.64574204540629" lon="11.164644531178864"><ele>114.0</ele><time>2026-04-07T15:24:58.018Z</time></trkpt><trkpt lat="43.64572165524362" lon="11.16453541737972"><ele>114.0</ele><time>2026-04-07T15:25:00.019Z</time></trkpt><trkpt lat="43.645708789848165" lon="11.164384034135038"><ele>114.0</ele><time>2026-04-07T15:25:02.018Z</time></trkpt><trkpt lat="43.64560911726434" lon="11.164304802258869"><ele>114.0</ele><time>2026-04-07T15:25:04.018Z</time></trkpt><trkpt lat="43.645534173612496" lon="11.164311883853566"><ele>114.0</ele><time>2026-04-07T15:25:05.018Z</time></trkpt><trkpt lat="43.64545970786187" lon="11.164328301195686"><ele>114.0</ele><time>2026-04-07T15:25:06.018Z</time></trkpt><trkpt lat="43.645394653579466" lon="11.16432974605187"><ele>114.0</ele><time>2026-04-07T15:25:08.019Z</time></trkpt><trkpt lat="43.645318074960365" lon="11.164348116950016"><ele>114.0</ele><time>2026-04-07T15:25:10.019Z</time></trkpt><trkpt lat="43.64521697540152" lon="11.164353131665322"><ele>114.0</ele><time>2026-04-07T15:25:12.019Z</time></trkpt><trkpt lat="43.64512225244281" lon="11.164356330272362"><ele>114.0</ele><time>2026-04-07T15:25:14.019Z</time></trkpt><trkpt lat="43.64502190462717" lon="11.164357848959517"><ele>114.0</ele><time>2026-04-07T15:25:16.019Z</time></trkpt><trkpt lat="43.64491585236334" lon="11.164381128076913"><ele>113.6</ele><time>2026-04-07T15:25:18.019Z</time></trkpt><trkpt lat="43.644801785945006" lon="11.164403090041185"><ele>113.2</ele><time>2026-04-07T15:25:20.019Z</time></trkpt><trkpt lat="43.644691587058475" lon="11.16442408508613"><ele>112.79999999999998</ele><time>2026-04-07T15:25:22.019Z</time></trkpt><trkpt lat="43.6445888954914" lon="11.164442044353674"><ele>112.39999999999999</ele><time>2026-04-07T15:25:24.019Z</time></trkpt><trkpt lat="43.64447950427621" lon="11.164474027345857"><ele>112.0</ele><time>2026-04-07T15:25:26.019Z</time></trkpt><trkpt lat="43.64437744568106" lon="11.164509095796609"><ele>112.0</ele><time>2026-04-07T15:25:28.019Z</time></trkpt><trkpt lat="43.64426304596685" lon="11.164534530206394"><ele>111.99999999999999</ele><time>2026-04-07T15:25:30.019Z</time></trkpt><trkpt lat="43.644158459679595" lon="11.164556282114553"><ele>111.99999999999999</ele><time>2026-04-07T15:25:32.019Z</time></trkpt><trkpt lat="43.64405255641433" lon="11.16458826247019"><ele>112.0</ele><time>2026-04-07T15:25:34.019Z</time></trkpt><trkpt lat="43.643953666664736" lon="11.164616341087092"><ele>112.0</ele><time>2026-04-07T15:25:36.019Z</time></trkpt><trkpt lat="43.643853902369564" lon="11.164657842569865"><ele>112.0</ele><time>2026-04-07T15:25:38.019Z</time></trkpt><trkpt lat="43.64375870073786" lon="11.164718378617895"><ele>111.99999999999999</ele><time>2026-04-07T15:25:40.019Z</time></trkpt><trkpt lat="43.643673605003364" lon="11.16480743094872"><ele>111.99999999999999</ele><time>2026-04-07T15:25:42.019Z</time></trkpt><trkpt lat="43.64357440020808" lon="11.164856586609828"><ele>112.0</ele><time>2026-04-07T15:25:44.019Z</time></trkpt><trkpt lat="43.643479574888424" lon="11.164915308969503"><ele>112.0</ele><time>2026-04-07T15:25:46.019Z</time></trkpt><trkpt lat="43.643382970315876" lon="11.164944070137551"><ele>112.19999999999999</ele><time>2026-04-07T15:25:48.019Z</time></trkpt><trkpt lat="43.64328862180029" lon="11.164971320971539"><ele>112.39999999999999</ele><time>2026-04-07T15:25:50.019Z</time></trkpt><trkpt lat="43.64318659089676" lon="11.165011506278661"><ele>112.60000000000001</ele><time>2026-04-07T15:25:52.019Z</time></trkpt><trkpt lat="43.643079826804275" lon="11.165062919519599"><ele>112.80000000000001</ele><time>2026-04-07T15:25:54.02Z</time></trkpt><trkpt lat="43.64297775870406" lon="11.165113566026038"><ele>113.0</ele><time>2026-04-07T15:25:56.02Z</time></trkpt><trkpt lat="43.64287684866561" lon="11.16516006753962"><ele>113.0</ele><time>2026-04-07T15:25:58.02Z</time></trkpt><trkpt lat="43.64277802987181" lon="11.16521367897513"><ele>113.00000000000001</ele><time>2026-04-07T15:26:00.02Z</time></trkpt><trkpt lat="43.64268322165697" lon="11.16526075289941"><ele>113.00000000000001</ele><time>2026-04-07T15:26:02.02Z</time></trkpt><trkpt lat="43.64258771050812" lon="11.165318784063714"><ele>113.0</ele><time>2026-04-07T15:26:04.02Z</time></trkpt><trkpt lat="43.642491073175" lon="11.165356796021461"><ele>113.0</ele><time>2026-04-07T15:26:06.02Z</time></trkpt><trkpt lat="43.642396041120826" lon="11.165384301107416"><ele>113.0</ele><time>2026-04-07T15:26:08.02Z</time></trkpt><trkpt lat="43.64229824388761" lon="11.165416917560828"><ele>113.00000000000001</ele><time>2026-04-07T15:26:10.02Z</time></trkpt><trkpt lat="43.6422030340306" lon="11.165484596706241"><ele>113.00000000000001</ele><time>2026-04-07T15:26:12.02Z</time></trkpt><trkpt lat="43.6421076443629" lon="11.165523703785631"><ele>113.0</ele><time>2026-04-07T15:26:14.02Z</time></trkpt><trkpt lat="43.6420063946845" lon="11.165590569892856"><ele>113.0</ele><time>2026-04-07T15:26:16.02Z</time></trkpt><trkpt lat="43.64194906759491" lon="11.165628387805556"><ele>112.80000000000001</ele><time>2026-04-07T15:26:17.02Z</time></trkpt><trkpt lat="43.64184196221845" lon="11.165696146905612"><ele>112.60000000000001</ele><time>2026-04-07T15:26:19.02Z</time></trkpt><trkpt lat="43.6417515784791" lon="11.165783530476805"><ele>112.39999999999999</ele><time>2026-04-07T15:26:21.02Z</time></trkpt><trkpt lat="43.64165946622116" lon="11.1658605251778"><ele>112.19999999999999</ele><time>2026-04-07T15:26:23.02Z</time></trkpt><trkpt lat="43.6416111349892" lon="11.165916581403131"><ele>112.0</ele><time>2026-04-07T15:26:24.02Z</time></trkpt><trkpt lat="43.64150726584039" lon="11.166014330750635"><ele>112.00000000000001</ele><time>2026-04-07T15:26:26.02Z</time></trkpt><trkpt lat="43.64140800087054" lon="11.166102816828172"><ele>112.0</ele><time>2026-04-07T15:26:28.02Z</time></trkpt><trkpt lat="43.641356913983415" lon="11.166155883181448"><ele>112.0</ele><time>2026-04-07T15:26:29.02Z</time></trkpt><trkpt lat="43.641306766570075" lon="11.166215174244664"><ele>112.0</ele><time>2026-04-07T15:26:30.02Z</time></trkpt><trkpt lat="43.64126051231274" lon="11.166274846994218"><ele>112.00000000000001</ele><time>2026-04-07T15:26:31.02Z</time></trkpt><trkpt lat="43.641173436318994" lon="11.166386288654332"><ele>112.0</ele><time>2026-04-07T15:26:33.02Z</time></trkpt><trkpt lat="43.64108297327002" lon="11.16649047667127"><ele>112.19999999999999</ele><time>2026-04-07T15:26:35.02Z</time></trkpt><trkpt lat="43.641008723758844" lon="11.166611522546624"><ele>112.39999999999999</ele><time>2026-04-07T15:26:37.02Z</time></trkpt><trkpt lat="43.64092456523468" lon="11.166716298708948"><ele>112.60000000000001</ele><time>2026-04-07T15:26:39.02Z</time></trkpt><trkpt lat="43.64084882236078" lon="11.16681045337638"><ele>112.80000000000001</ele><time>2026-04-07T15:26:41.02Z</time></trkpt><trkpt lat="43.6407761566982" lon="11.16690594120751"><ele>113.0</ele><time>2026-04-07T15:26:43.02Z</time></trkpt><trkpt lat="43.640701013018365" lon="11.167003399898443"><ele>112.99999999999999</ele><time>2026-04-07T15:26:45.02Z</time></trkpt><trkpt lat="43.64063369041545" lon="11.167092461153963"><ele>113.0</ele><time>2026-04-07T15:26:47.02Z</time></trkpt><trkpt lat="43.64055956378532" lon="11.167177803663002"><ele>113.0</ele><time>2026-04-07T15:26:49.021Z</time></trkpt><trkpt lat="43.64050124121183" lon="11.167249976102061"><ele>113.0</ele><time>2026-04-07T15:26:51.021Z</time></trkpt><trkpt lat="43.64042731161845" lon="11.167301809127293"><ele>112.99999999999999</ele><time>2026-04-07T15:26:54.021Z</time></trkpt><trkpt lat="43.64036781649341" lon="11.167384346200532"><ele>113.0</ele><time>2026-04-07T15:26:57.021Z</time></trkpt><trkpt lat="43.64027704915584" lon="11.167478053293847"><ele>113.49999999999999</ele><time>2026-04-07T15:26:59.021Z</time></trkpt><trkpt lat="43.640200419664986" lon="11.16754994322509"><ele>114.0</ele><time>2026-04-07T15:27:03.02Z</time></trkpt><trkpt lat="43.64013777135498" lon="11.167610708117682"><ele>114.5</ele><time>2026-04-07T15:27:05.02Z</time></trkpt><trkpt lat="43.64007405220658" lon="11.167659977232795"><ele>115.0</ele><time>2026-04-07T15:27:07.02Z</time></trkpt><trkpt lat="43.64001588934073" lon="11.167732929983517"><ele>115.49999999999999</ele><time>2026-04-07T15:27:09.02Z</time></trkpt><trkpt lat="43.63995275980651" lon="11.167773521757125"><ele>116.0</ele><time>2026-04-07T15:27:11.02Z</time></trkpt><trkpt lat="43.63988085995807" lon="11.167839143525505"><ele>115.99999999999999</ele><time>2026-04-07T15:27:13.02Z</time></trkpt><trkpt lat="43.63981747048066" lon="11.167896643566356"><ele>116.0</ele><time>2026-04-07T15:27:15.02Z</time></trkpt><trkpt lat="43.63975374735395" lon="11.167974776276205"><ele>116.0</ele><time>2026-04-07T15:27:17.02Z</time></trkpt><trkpt lat="43.63967763982029" lon="11.168050376680544"><ele>116.0</ele><time>2026-04-07T15:27:19.02Z</time></trkpt><trkpt lat="43.639609160726664" lon="11.168107090192061"><ele>115.99999999999999</ele><time>2026-04-07T15:27:21.02Z</time></trkpt><trkpt lat="43.639537503657465" lon="11.168147942878981"><ele>116.0</ele><time>2026-04-07T15:27:23.02Z</time></trkpt><trkpt lat="43.6394521730466" lon="11.168183330453788"><ele>115.99999999999999</ele><time>2026-04-07T15:27:25.02Z</time></trkpt><trkpt lat="43.63936741763575" lon="11.168214246641927"><ele>116.0</ele><time>2026-04-07T15:27:27.02Z</time></trkpt><trkpt lat="43.63927790684624" lon="11.168250658587565"><ele>116.0</ele><time>2026-04-07T15:27:29.02Z</time></trkpt><trkpt lat="43.63919240470836" lon="11.168283002095311"><ele>116.0</ele><time>2026-04-07T15:27:31.02Z</time></trkpt><trkpt lat="43.63911719726809" lon="11.168312520539214"><ele>115.99999999999999</ele><time>2026-04-07T15:27:33.02Z</time></trkpt><trkpt lat="43.63904784959686" lon="11.168338763236088"><ele>116.0</ele><time>2026-04-07T15:27:35.02Z</time></trkpt><trkpt lat="43.63897516213527" lon="11.168371962798552"><ele>115.99999999999999</ele><time>2026-04-07T15:27:37.02Z</time></trkpt><trkpt lat="43.63890028627616" lon="11.168397502333754"><ele>116.0</ele><time>2026-04-07T15:27:39.02Z</time></trkpt><trkpt lat="43.6388244135233" lon="11.168410808128863"><ele>116.0</ele><time>2026-04-07T15:27:41.02Z</time></trkpt><trkpt lat="43.638741308747434" lon="11.168434683290268"><ele>116.0</ele><time>2026-04-07T15:27:43.02Z</time></trkpt><trkpt lat="43.638654510741695" lon="11.16846803704478"><ele>115.99999999999999</ele><time>2026-04-07T15:27:45.02Z</time></trkpt><trkpt lat="43.638588683459545" lon="11.168495716213533"><ele>116.0</ele><time>2026-04-07T15:27:47.02Z</time></trkpt><trkpt lat="43.63849879283996" lon="11.168539925613606"><ele>116.14285714285717</ele><time>2026-04-07T15:27:50.02Z</time></trkpt><trkpt lat="43.638473100512726" lon="11.16863234013253"><ele>116.28571428571429</ele><time>2026-04-07T15:27:52.02Z</time></trkpt><trkpt lat="43.63848624592156" lon="11.168724507181352"><ele>116.42857142857144</ele><time>2026-04-07T15:27:54.02Z</time></trkpt><trkpt lat="43.638477428459474" lon="11.168815092692235"><ele>116.57142857142858</ele><time>2026-04-07T15:27:56.02Z</time></trkpt><trkpt lat="43.6384041085784" lon="11.168839184389103"><ele>116.71428571428572</ele><time>2026-04-07T15:27:59.021Z</time></trkpt><trkpt lat="43.63832818596444" lon="11.168891383844167"><ele>116.85714285714286</ele><time>2026-04-07T15:28:02.021Z</time></trkpt><trkpt lat="43.638262570775765" lon="11.168928702296729"><ele>117.0</ele><time>2026-04-07T15:28:04.021Z</time></trkpt><trkpt lat="43.638206489234534" lon="11.168995421122643"><ele>117.42857142857143</ele><time>2026-04-07T15:28:07.021Z</time></trkpt><trkpt lat="43.638157125787934" lon="11.169058892474137"><ele>117.85714285714286</ele><time>2026-04-07T15:28:09.021Z</time></trkpt><trkpt lat="43.63809731721501" lon="11.169106172323758"><ele>118.28571428571429</ele><time>2026-04-07T15:28:11.021Z</time></trkpt><trkpt lat="43.63803785352525" lon="11.169155328673881"><ele>118.71428571428572</ele><time>2026-04-07T15:28:13.021Z</time></trkpt><trkpt lat="43.63796083390864" lon="11.169194922406284"><ele>119.14285714285714</ele><time>2026-04-07T15:28:15.021Z</time></trkpt><trkpt lat="43.637895757328636" lon="11.169235455664719"><ele>119.57142857142858</ele><time>2026-04-07T15:28:17.021Z</time></trkpt><trkpt lat="43.63784147924979" lon="11.169282105809739"><ele>120.0</ele><time>2026-04-07T15:28:19.021Z</time></trkpt><trkpt lat="43.637782161382894" lon="11.169355942735876"><ele>120.0</ele><time>2026-04-07T15:28:22.021Z</time></trkpt><trkpt lat="43.63772394074881" lon="11.169410345191265"><ele>120.0</ele><time>2026-04-07T15:28:25.021Z</time></trkpt><trkpt lat="43.63761341254509" lon="11.169477380268209"><ele>120.0</ele><time>2026-04-07T15:29:34.022Z</time></trkpt><trkpt lat="43.63754302380224" lon="11.169514291042113"><ele>120.0</ele><time>2026-04-07T15:29:38.022Z</time></trkpt><trkpt lat="43.63748475417117" lon="11.169582072174997"><ele>120.0</ele><time>2026-04-07T15:29:41.022Z</time></trkpt><trkpt lat="43.63742907852222" lon="11.169628102053357"><ele>120.0</ele><time>2026-04-07T15:29:44.023Z</time></trkpt><trkpt lat="43.63737961288533" lon="11.169684446057692"><ele>120.0</ele><time>2026-04-07T15:29:46.023Z</time></trkpt><trkpt lat="43.63730947768831" lon="11.169761378792856"><ele>120.0</ele><time>2026-04-07T15:29:49.023Z</time></trkpt><trkpt lat="43.63731554672485" lon="11.169878188666651"><ele>120.0</ele><time>2026-04-07T15:29:52.023Z</time></trkpt><trkpt lat="43.63732797777021" lon="11.169964682673088"><ele>120.0</ele><time>2026-04-07T15:29:54.023Z</time></trkpt><trkpt lat="43.63727202018793" lon="11.170024905185262"><ele>120.0</ele><time>2026-04-07T15:29:57.023Z</time></trkpt><trkpt lat="43.6372182068958" lon="11.169951533893261"><ele>120.0</ele><time>2026-04-07T15:29:59.023Z</time></trkpt><trkpt lat="43.637169453157426" lon="11.169872828702392"><ele>120.0</ele><time>2026-04-07T15:30:01.023Z</time></trkpt><trkpt lat="43.6371187291984" lon="11.169801327486677"><ele>120.0</ele><time>2026-04-07T15:30:03.023Z</time></trkpt><trkpt lat="43.6370659246609" lon="11.169709960706511"><ele>120.0</ele><time>2026-04-07T15:30:05.023Z</time></trkpt><trkpt lat="43.637006531410755" lon="11.169624305817678"><ele>120.0</ele><time>2026-04-07T15:30:07.023Z</time></trkpt><trkpt lat="43.636941706476215" lon="11.16959465487678"><ele>120.0</ele><time>2026-04-07T15:30:09.023Z</time></trkpt><trkpt lat="43.636899545381674" lon="11.169664061553267"><ele>120.0</ele><time>2026-04-07T15:30:11.023Z</time></trkpt><trkpt lat="43.636889927401725" lon="11.169779401229825"><ele>120.5</ele><time>2026-04-07T15:30:13.023Z</time></trkpt><trkpt lat="43.63686966983539" lon="11.169892818526655"><ele>121.0</ele><time>2026-04-07T15:30:15.023Z</time></trkpt><trkpt lat="43.63684579904951" lon="11.170005509351158"><ele>121.5</ele><time>2026-04-07T15:30:17.023Z</time></trkpt><trkpt lat="43.636818117868344" lon="11.17011052221971"><ele>122.0</ele><time>2026-04-07T15:30:19.023Z</time></trkpt><trkpt lat="43.636798498062944" lon="11.170203080524448"><ele>122.5</ele><time>2026-04-07T15:30:21.023Z</time></trkpt><trkpt lat="43.63676885164657" lon="11.170316668924443"><ele>123.0</ele><time>2026-04-07T15:30:24.023Z</time></trkpt><trkpt lat="43.63672281104578" lon="11.170436299189973"><ele>123.0</ele><time>2026-04-07T15:30:27.023Z</time></trkpt><trkpt lat="43.636674641939024" lon="11.170544274057772"><ele>123.00000000000001</ele><time>2026-04-07T15:30:29.023Z</time></trkpt><trkpt lat="43.63661980083622" lon="11.170654613135278"><ele>123.00000000000001</ele><time>2026-04-07T15:30:31.023Z</time></trkpt><trkpt lat="43.636562580743146" lon="11.17076349534259"><ele>123.0</ele><time>2026-04-07T15:30:33.023Z</time></trkpt><trkpt lat="43.636506844269796" lon="11.170871045510083"><ele>123.0</ele><time>2026-04-07T15:30:35.023Z</time></trkpt><trkpt lat="43.6364540490189" lon="11.170985058571754"><ele>122.80000000000001</ele><time>2026-04-07T15:30:37.023Z</time></trkpt><trkpt lat="43.63638624504964" lon="11.171089984422393"><ele>122.60000000000001</ele><time>2026-04-07T15:30:39.024Z</time></trkpt><trkpt lat="43.63634510975393" lon="11.171224031290983"><ele>122.39999999999999</ele><time>2026-04-07T15:30:41.024Z</time></trkpt><trkpt lat="43.636294384922344" lon="11.171341395870934"><ele>122.19999999999999</ele><time>2026-04-07T15:30:43.024Z</time></trkpt><trkpt lat="43.636234454475826" lon="11.171466935929827"><ele>122.0</ele><time>2026-04-07T15:30:45.024Z</time></trkpt><trkpt lat="43.63617017779956" lon="11.17159833974503"><ele>122.0</ele><time>2026-04-07T15:30:47.024Z</time></trkpt><trkpt lat="43.63611862742236" lon="11.17174353586955"><ele>121.99999999999999</ele><time>2026-04-07T15:30:49.024Z</time></trkpt><trkpt lat="43.636052039723914" lon="11.171893475278805"><ele>121.99999999999999</ele><time>2026-04-07T15:30:51.024Z</time></trkpt><trkpt lat="43.63601599195041" lon="11.171967430650898"><ele>122.0</ele><time>2026-04-07T15:30:52.024Z</time></trkpt><trkpt lat="43.63594366696106" lon="11.172084923650392"><ele>122.0</ele><time>2026-04-07T15:30:54.024Z</time></trkpt><trkpt lat="43.63587653233392" lon="11.172200601323649"><ele>122.0</ele><time>2026-04-07T15:30:56.024Z</time></trkpt><trkpt lat="43.63579304830512" lon="11.17230026235816"><ele>121.99999999999999</ele><time>2026-04-07T15:30:58.024Z</time></trkpt><trkpt lat="43.63573340673425" lon="11.172405061134867"><ele>121.99999999999999</ele><time>2026-04-07T15:31:00.024Z</time></trkpt><trkpt lat="43.63567530988302" lon="11.17250882794502"><ele>122.0</ele><time>2026-04-07T15:31:02.024Z</time></trkpt><trkpt lat="43.63560761579131" lon="11.172589221423156"><ele>122.0</ele><time>2026-04-07T15:31:04.024Z</time></trkpt><trkpt lat="43.63553560902602" lon="11.172683834987005"><ele>121.8</ele><time>2026-04-07T15:31:06.024Z</time></trkpt><trkpt lat="43.63545418548646" lon="11.172757723635657"><ele>121.6</ele><time>2026-04-07T15:31:08.024Z</time></trkpt><trkpt lat="43.63537546971895" lon="11.172827172420027"><ele>121.39999999999999</ele><time>2026-04-07T15:31:10.024Z</time></trkpt><trkpt lat="43.63529794851085" lon="11.172914297704937"><ele>121.19999999999999</ele><time>2026-04-07T15:31:12.024Z</time></trkpt><trkpt lat="43.63522446528836" lon="11.172985348303563"><ele>121.0</ele><time>2026-04-07T15:31:14.024Z</time></trkpt><trkpt lat="43.63514248553536" lon="11.173077061042926"><ele>121.4</ele><time>2026-04-07T15:31:16.024Z</time></trkpt><trkpt lat="43.635072878915956" lon="11.17318686952225"><ele>121.8</ele><time>2026-04-07T15:31:18.023Z</time></trkpt><trkpt lat="43.635006453747344" lon="11.173291055235573"><ele>122.20000000000002</ele><time>2026-04-07T15:31:20.024Z</time></trkpt><trkpt lat="43.63494227806931" lon="11.173410783165359"><ele>122.60000000000001</ele><time>2026-04-07T15:31:22.024Z</time></trkpt><trkpt lat="43.634869463993525" lon="11.173515611724556"><ele>123.0</ele><time>2026-04-07T15:31:24.023Z</time></trkpt><trkpt lat="43.634788809858804" lon="11.173620872416814"><ele>123.0</ele><time>2026-04-07T15:31:26.024Z</time></trkpt><trkpt lat="43.634710711134254" lon="11.173711791492936"><ele>123.00000000000001</ele><time>2026-04-07T15:31:28.024Z</time></trkpt><trkpt lat="43.63463715322488" lon="11.173766310720373"><ele>123.00000000000001</ele><time>2026-04-07T15:31:30.024Z</time></trkpt><trkpt lat="43.63453926371427" lon="11.173738133558803"><ele>123.0</ele><time>2026-04-07T15:31:32.024Z</time></trkpt><trkpt lat="43.634439136989805" lon="11.17373739109125"><ele>123.0</ele><time>2026-04-07T15:31:34.024Z</time></trkpt><trkpt lat="43.63435154630629" lon="11.173766785004794"><ele>123.2</ele><time>2026-04-07T15:31:36.024Z</time></trkpt><trkpt lat="43.63425344318338" lon="11.173824184473427"><ele>123.4</ele><time>2026-04-07T15:31:38.024Z</time></trkpt><trkpt lat="43.634164851397074" lon="11.173872340564294"><ele>123.60000000000001</ele><time>2026-04-07T15:31:40.024Z</time></trkpt><trkpt lat="43.634081296391216" lon="11.173944234934359"><ele>123.80000000000001</ele><time>2026-04-07T15:31:42.024Z</time></trkpt><trkpt lat="43.634031215153314" lon="11.174005434172738"><ele>124.0</ele><time>2026-04-07T15:31:43.024Z</time></trkpt><trkpt lat="43.63394588054458" lon="11.17412307592897"><ele>124.0</ele><time>2026-04-07T15:31:45.024Z</time></trkpt><trkpt lat="43.63390227341163" lon="11.174185872655723"><ele>124.0</ele><time>2026-04-07T15:31:46.024Z</time></trkpt><trkpt lat="43.63382821890182" lon="11.17431484028621"><ele>124.0</ele><time>2026-04-07T15:31:48.024Z</time></trkpt><trkpt lat="43.63377286956694" lon="11.17443948628488"><ele>124.0</ele><time>2026-04-07T15:31:50.024Z</time></trkpt><trkpt lat="43.633708878975064" lon="11.174538527832855"><ele>124.0</ele><time>2026-04-07T15:31:52.024Z</time></trkpt><trkpt lat="43.63364281511024" lon="11.174662105671839"><ele>124.0</ele><time>2026-04-07T15:31:54.024Z</time></trkpt><trkpt lat="43.633583767772954" lon="11.174776072753591"><ele>124.0</ele><time>2026-04-07T15:31:56.024Z</time></trkpt><trkpt lat="43.633519602991484" lon="11.174887260245686"><ele>124.0</ele><time>2026-04-07T15:31:58.024Z</time></trkpt><trkpt lat="43.63345512772143" lon="11.17501918635754"><ele>124.0</ele><time>2026-04-07T15:32:00.024Z</time></trkpt><trkpt lat="43.63341235638216" lon="11.175140654648311"><ele>124.0</ele><time>2026-04-07T15:32:02.024Z</time></trkpt><trkpt lat="43.633360285206294" lon="11.175261174452912"><ele>124.0</ele><time>2026-04-07T15:32:04.024Z</time></trkpt><trkpt lat="43.63332500772688" lon="11.175399646762859"><ele>124.0</ele><time>2026-04-07T15:32:06.024Z</time></trkpt><trkpt lat="43.633314796678754" lon="11.175539475835079"><ele>124.0</ele><time>2026-04-07T15:32:08.024Z</time></trkpt><trkpt lat="43.63332408675001" lon="11.175672868459603"><ele>124.0</ele><time>2026-04-07T15:32:10.024Z</time></trkpt><trkpt lat="43.63335637529848" lon="11.17577294647044"><ele>124.0</ele><time>2026-04-07T15:32:12.025Z</time></trkpt><trkpt lat="43.63339093979598" lon="11.175866055996556"><ele>124.16666666666667</ele><time>2026-04-07T15:32:14.025Z</time></trkpt><trkpt lat="43.6334294520337" lon="11.175983974482445"><ele>124.33333333333334</ele><time>2026-04-07T15:32:16.025Z</time></trkpt><trkpt lat="43.63345115943983" lon="11.176092081015009"><ele>124.5</ele><time>2026-04-07T15:32:18.025Z</time></trkpt><trkpt lat="43.63348372338744" lon="11.176186678677906"><ele>124.66666666666666</ele><time>2026-04-07T15:32:20.025Z</time></trkpt><trkpt lat="43.633526059602836" lon="11.176276867095204"><ele>124.83333333333333</ele><time>2026-04-07T15:32:22.025Z</time></trkpt><trkpt lat="43.633569104531134" lon="11.176363685322098"><ele>125.0</ele><time>2026-04-07T15:32:24.025Z</time></trkpt><trkpt lat="43.63359218764914" lon="11.176469568218778"><ele>124.99999999999999</ele><time>2026-04-07T15:32:26.025Z</time></trkpt><trkpt lat="43.63360950990834" lon="11.17656797902186"><ele>125.0</ele><time>2026-04-07T15:32:28.025Z</time></trkpt><trkpt lat="43.63361389928932" lon="11.176683070266712"><ele>125.0</ele><time>2026-04-07T15:32:30.025Z</time></trkpt><trkpt lat="43.63359741460164" lon="11.176774199608436"><ele>125.0</ele><time>2026-04-07T15:32:32.025Z</time></trkpt><trkpt lat="43.63357940156515" lon="11.176871785514534"><ele>124.99999999999999</ele><time>2026-04-07T15:32:34.025Z</time></trkpt><trkpt lat="43.633569340136866" lon="11.176990737424068"><ele>125.0</ele><time>2026-04-07T15:32:36.025Z</time></trkpt><trkpt lat="43.63358291624432" lon="11.177106892712278"><ele>124.99999999999999</ele><time>2026-04-07T15:32:38.025Z</time></trkpt><trkpt lat="43.63360571866506" lon="11.177224703953925"><ele>125.0</ele><time>2026-04-07T15:32:40.025Z</time></trkpt><trkpt lat="43.63362380328215" lon="11.177349414105745"><ele>125.0</ele><time>2026-04-07T15:32:42.025Z</time></trkpt><trkpt lat="43.63364480866879" lon="11.177470848787783"><ele>125.0</ele><time>2026-04-07T15:32:44.025Z</time></trkpt><trkpt lat="43.63367197759061" lon="11.177585649561433"><ele>124.99999999999999</ele><time>2026-04-07T15:32:46.025Z</time></trkpt><trkpt lat="43.63370432804663" lon="11.177694498665884"><ele>125.0</ele><time>2026-04-07T15:32:48.025Z</time></trkpt><trkpt lat="43.63374095135253" lon="11.177800188713721"><ele>125.49999999999999</ele><time>2026-04-07T15:32:50.025Z</time></trkpt><trkpt lat="43.6337701464577" lon="11.177913013365622"><ele>126.0</ele><time>2026-04-07T15:32:52.025Z</time></trkpt><trkpt lat="43.633800880129755" lon="11.178021536196006"><ele>126.5</ele><time>2026-04-07T15:32:54.025Z</time></trkpt><trkpt lat="43.633828235671494" lon="11.178127441847002"><ele>127.0</ele><time>2026-04-07T15:32:56.025Z</time></trkpt><trkpt lat="43.633853237762374" lon="11.178238137280067"><ele>127.49999999999999</ele><time>2026-04-07T15:32:58.025Z</time></trkpt><trkpt lat="43.63388985150482" lon="11.178344693130235"><ele>128.0</ele><time>2026-04-07T15:33:00.025Z</time></trkpt><trkpt lat="43.63392000895729" lon="11.178449853113628"><ele>128.16666666666666</ele><time>2026-04-07T15:33:02.025Z</time></trkpt><trkpt lat="43.633952821637344" lon="11.17855015732945"><ele>128.33333333333331</ele><time>2026-04-07T15:33:04.025Z</time></trkpt><trkpt lat="43.63399480693346" lon="11.178635777149385"><ele>128.5</ele><time>2026-04-07T15:33:06.025Z</time></trkpt><trkpt lat="43.63402737510742" lon="11.17872664202825"><ele>128.66666666666666</ele><time>2026-04-07T15:33:08.026Z</time></trkpt><trkpt lat="43.634063267936206" lon="11.178809373981888"><ele>128.83333333333334</ele><time>2026-04-07T15:33:10.026Z</time></trkpt><trkpt lat="43.63409978695892" lon="11.178916909058877"><ele>129.0</ele><time>2026-04-07T15:33:13.026Z</time></trkpt><trkpt lat="43.634075836687565" lon="11.17902134529644"><ele>128.99999999999997</ele><time>2026-04-07T15:33:16.026Z</time></trkpt><trkpt lat="43.63400639670329" lon="11.179048893536123"><ele>129.0</ele><time>2026-04-07T15:33:18.026Z</time></trkpt><trkpt lat="43.63394158171247" lon="11.179094161795513"><ele>129.0</ele><time>2026-04-07T15:33:20.026Z</time></trkpt><trkpt lat="43.633878231288534" lon="11.179132693954134"><ele>129.0</ele><time>2026-04-07T15:33:22.025Z</time></trkpt><trkpt lat="43.63381478630681" lon="11.179172221367379"><ele>129.0</ele><time>2026-04-07T15:33:24.026Z</time></trkpt><trkpt lat="43.63375398636725" lon="11.17920983978733"><ele>128.99999999999997</ele><time>2026-04-07T15:33:26.025Z</time></trkpt><trkpt lat="43.63369483267352" lon="11.179279653590243"><ele>129.0</ele><time>2026-04-07T15:33:28.026Z</time></trkpt><trkpt lat="43.63362590872801" lon="11.179345463895043"><ele>129.0</ele><time>2026-04-07T15:33:30.025Z</time></trkpt><trkpt lat="43.6335639545012" lon="11.179420714483857"><ele>129.0</ele><time>2026-04-07T15:33:32.025Z</time></trkpt><trkpt lat="43.633507976854425" lon="11.1794860149892"><ele>129.0</ele><time>2026-04-07T15:33:34.025Z</time></trkpt><trkpt lat="43.63345175792434" lon="11.179546816396583"><ele>129.0</ele><time>2026-04-07T15:33:36.025Z</time></trkpt><trkpt lat="43.633383930652116" lon="11.179623211371936"><ele>129.0</ele><time>2026-04-07T15:33:38.025Z</time></trkpt><trkpt lat="43.63332885662599" lon="11.17970094351586"><ele>129.0</ele><time>2026-04-07T15:33:40.026Z</time></trkpt><trkpt lat="43.63324872295623" lon="11.179814913110276"><ele>129.16666666666666</ele><time>2026-04-07T15:33:42.026Z</time></trkpt><trkpt lat="43.63319961801598" lon="11.179871915021574"><ele>129.33333333333334</ele><time>2026-04-07T15:33:43.026Z</time></trkpt><trkpt lat="43.633111638202486" lon="11.179969852044069"><ele>129.5</ele><time>2026-04-07T15:33:45.026Z</time></trkpt><trkpt lat="43.63305019992264" lon="11.180064151748347"><ele>129.66666666666669</ele><time>2026-04-07T15:33:47.026Z</time></trkpt><trkpt lat="43.63305318672387" lon="11.180168709490825"><ele>129.83333333333334</ele><time>2026-04-07T15:33:49.026Z</time></trkpt><trkpt lat="43.63309052383695" lon="11.18025789163664"><ele>130.0</ele><time>2026-04-07T15:33:51.026Z</time></trkpt><trkpt lat="43.63313230426137" lon="11.180350937741736"><ele>130.00000000000003</ele><time>2026-04-07T15:33:53.026Z</time></trkpt><trkpt lat="43.63317534377172" lon="11.180449652431522"><ele>130.0</ele><time>2026-04-07T15:33:55.026Z</time></trkpt><trkpt lat="43.63321644863044" lon="11.180544309467239"><ele>130.0</ele><time>2026-04-07T15:33:57.026Z</time></trkpt><trkpt lat="43.63324756656928" lon="11.180636899431606"><ele>130.0</ele><time>2026-04-07T15:33:59.026Z</time></trkpt><trkpt lat="43.63328180645037" lon="11.180717388401732"><ele>130.0</ele><time>2026-04-07T15:34:01.026Z</time></trkpt><trkpt lat="43.63330078134334" lon="11.18080086335318"><ele>130.00000000000003</ele><time>2026-04-07T15:34:03.026Z</time></trkpt><trkpt lat="43.63332676946871" lon="11.180886870361578"><ele>130.0</ele><time>2026-04-07T15:34:05.026Z</time></trkpt><trkpt lat="43.63334197031517" lon="11.180972457456138"><ele>130.5</ele><time>2026-04-07T15:34:07.026Z</time></trkpt><trkpt lat="43.633370656059704" lon="11.18108480814925"><ele>131.0</ele><time>2026-04-07T15:34:10.026Z</time></trkpt><trkpt lat="43.63339964620003" lon="11.181166006203647"><ele>131.5</ele><time>2026-04-07T15:34:12.026Z</time></trkpt><trkpt lat="43.63341643145346" lon="11.18127354521583"><ele>132.0</ele><time>2026-04-07T15:34:15.026Z</time></trkpt><trkpt lat="43.633416586554645" lon="11.18139566756337"><ele>132.5</ele><time>2026-04-07T15:34:18.026Z</time></trkpt><trkpt lat="43.63341241977535" lon="11.181515467867683"><ele>133.0</ele><time>2026-04-07T15:34:21.026Z</time></trkpt><trkpt lat="43.63340502501441" lon="11.181632363695131"><ele>133.5</ele><time>2026-04-07T15:34:24.026Z</time></trkpt><trkpt lat="43.633444414286394" lon="11.181721286036238"><ele>134.0</ele><time>2026-04-07T15:34:27.026Z</time></trkpt><trkpt lat="43.63353201224972" lon="11.181667594808692"><ele>134.5</ele><time>2026-04-07T15:34:31.026Z</time></trkpt><trkpt lat="43.63361030729478" lon="11.18161396314836"><ele>135.0</ele><time>2026-04-07T15:34:33.026Z</time></trkpt><trkpt lat="43.63372241056344" lon="11.18159097625478"><ele>135.5</ele><time>2026-04-07T15:34:35.027Z</time></trkpt><trkpt lat="43.633784472055474" lon="11.18161663839937"><ele>136.0</ele><time>2026-04-07T15:34:36.027Z</time></trkpt><trkpt lat="43.63384854778107" lon="11.18167484006094"><ele>136.0</ele><time>2026-04-07T15:34:37.027Z</time></trkpt><trkpt lat="43.63388720148057" lon="11.181766467636193"><ele>136.0</ele><time>2026-04-07T15:34:38.027Z</time></trkpt><trkpt lat="43.633921442616455" lon="11.181933661995325"><ele>136.0</ele><time>2026-04-07T15:34:40.027Z</time></trkpt><trkpt lat="43.63392149153863" lon="11.1820694831971"><ele>136.0</ele><time>2026-04-07T15:34:42.027Z</time></trkpt><trkpt lat="43.63394751487025" lon="11.182183532388452"><ele>136.0</ele><time>2026-04-07T15:34:45.027Z</time></trkpt><trkpt lat="43.63403086739059" lon="11.182226925021666"><ele>136.0</ele><time>2026-04-07T15:34:47.027Z</time></trkpt><trkpt lat="43.63413262746258" lon="11.182251882219937"><ele>136.0</ele><time>2026-04-07T15:34:49.027Z</time></trkpt><trkpt lat="43.6341997437311" lon="11.182288326303317"><ele>136.0</ele><time>2026-04-07T15:34:50.027Z</time></trkpt><trkpt lat="43.63427155697438" lon="11.1823284837705"><ele>136.0</ele><time>2026-04-07T15:34:51.027Z</time></trkpt><trkpt lat="43.6343361658602" lon="11.182384167695682"><ele>136.0</ele><time>2026-04-07T15:34:52.027Z</time></trkpt><trkpt lat="43.63439133094282" lon="11.18245000873552"><ele>136.0</ele><time>2026-04-07T15:34:53.027Z</time></trkpt><trkpt lat="43.634439055751834" lon="11.18250919469746"><ele>135.83333333333334</ele><time>2026-04-07T15:34:54.027Z</time></trkpt><trkpt lat="43.63448369234886" lon="11.18257316059848"><ele>135.66666666666669</ele><time>2026-04-07T15:34:55.027Z</time></trkpt><trkpt lat="43.634569046526025" lon="11.182683038752327"><ele>135.5</ele><time>2026-04-07T15:34:57.027Z</time></trkpt><trkpt lat="43.63464574459741" lon="11.18276630119451"><ele>135.33333333333334</ele><time>2026-04-07T15:34:59.027Z</time></trkpt><trkpt lat="43.634713762885085" lon="11.18284677620516"><ele>135.16666666666666</ele><time>2026-04-07T15:35:01.027Z</time></trkpt><trkpt lat="43.6347552214897" lon="11.182934861554575"><ele>135.0</ele><time>2026-04-07T15:35:03.027Z</time></trkpt><trkpt lat="43.63479980031509" lon="11.183024165232178"><ele>135.0</ele><time>2026-04-07T15:35:05.027Z</time></trkpt><trkpt lat="43.63483066695145" lon="11.18313827128739"><ele>135.0</ele><time>2026-04-07T15:35:07.027Z</time></trkpt><trkpt lat="43.634884092698734" lon="11.183211636202623"><ele>135.0</ele><time>2026-04-07T15:35:09.027Z</time></trkpt><trkpt lat="43.63494385014289" lon="11.18327746516374"><ele>135.0</ele><time>2026-04-07T15:35:11.027Z</time></trkpt><trkpt lat="43.63501649203942" lon="11.183352575784046"><ele>135.0</ele><time>2026-04-07T15:35:13.027Z</time></trkpt><trkpt lat="43.635084550022796" lon="11.18341699455949"><ele>135.0</ele><time>2026-04-07T15:35:15.027Z</time></trkpt><trkpt lat="43.63514994125225" lon="11.18351108181177"><ele>135.0</ele><time>2026-04-07T15:35:17.027Z</time></trkpt><trkpt lat="43.63520744717526" lon="11.183601812357812"><ele>135.0</ele><time>2026-04-07T15:35:19.027Z</time></trkpt><trkpt lat="43.6352637812195" lon="11.183688655055999"><ele>135.0</ele><time>2026-04-07T15:35:21.027Z</time></trkpt><trkpt lat="43.63531846465416" lon="11.183773771001636"><ele>135.0</ele><time>2026-04-07T15:35:23.027Z</time></trkpt><trkpt lat="43.63537084147072" lon="11.183863334577156"><ele>135.0</ele><time>2026-04-07T15:35:25.027Z</time></trkpt><trkpt lat="43.635420412307845" lon="11.183960288023558"><ele>135.0</ele><time>2026-04-07T15:35:27.027Z</time></trkpt><trkpt lat="43.6354606213092" lon="11.184065816761493"><ele>135.5</ele><time>2026-04-07T15:35:29.027Z</time></trkpt><trkpt lat="43.63550885562239" lon="11.184163880653877"><ele>136.0</ele><time>2026-04-07T15:35:31.027Z</time></trkpt><trkpt lat="43.63555493344243" lon="11.1842581159942"><ele>136.5</ele><time>2026-04-07T15:35:33.027Z</time></trkpt><trkpt lat="43.635587245266365" lon="11.18437836287387"><ele>137.0</ele><time>2026-04-07T15:35:35.027Z</time></trkpt><trkpt lat="43.635580813255544" lon="11.18450329341864"><ele>137.5</ele><time>2026-04-07T15:35:37.028Z</time></trkpt><trkpt lat="43.63556385053334" lon="11.184626379518482"><ele>138.0</ele><time>2026-04-07T15:35:39.028Z</time></trkpt><trkpt lat="43.63555129794675" lon="11.184747077607128"><ele>138.16666666666666</ele><time>2026-04-07T15:35:41.028Z</time></trkpt><trkpt lat="43.635542079884466" lon="11.18486790204635"><ele>138.33333333333334</ele><time>2026-04-07T15:35:43.028Z</time></trkpt><trkpt lat="43.6355346449825" lon="11.184984390013966"><ele>138.5</ele><time>2026-04-07T15:35:45.028Z</time></trkpt><trkpt lat="43.63552951725955" lon="11.185108247011577"><ele>138.66666666666669</ele><time>2026-04-07T15:35:47.028Z</time></trkpt><trkpt lat="43.63553108452278" lon="11.185224818939773"><ele>138.83333333333334</ele><time>2026-04-07T15:35:49.028Z</time></trkpt><trkpt lat="43.6355223595191" lon="11.18533934989426"><ele>139.0</ele><time>2026-04-07T15:35:51.028Z</time></trkpt><trkpt lat="43.63550977977029" lon="11.185458200363245"><ele>139.0</ele><time>2026-04-07T15:35:53.028Z</time></trkpt><trkpt lat="43.635498073518235" lon="11.185571029349756"><ele>139.0</ele><time>2026-04-07T15:35:55.028Z</time></trkpt><trkpt lat="43.63549206490017" lon="11.18568679681491"><ele>139.0</ele><time>2026-04-07T15:35:57.028Z</time></trkpt><trkpt lat="43.63548921435901" lon="11.185805125775227"><ele>139.0</ele><time>2026-04-07T15:35:59.028Z</time></trkpt><trkpt lat="43.635469729374165" lon="11.185917118837681"><ele>139.0</ele><time>2026-04-07T15:36:01.028Z</time></trkpt><trkpt lat="43.635450551419076" lon="11.186028738786435"><ele>139.0</ele><time>2026-04-07T15:36:03.028Z</time></trkpt><trkpt lat="43.63542090360302" lon="11.186116477704033"><ele>139.28571428571428</ele><time>2026-04-07T15:36:05.028Z</time></trkpt><trkpt lat="43.63539353373725" lon="11.18619503459461"><ele>139.57142857142858</ele><time>2026-04-07T15:36:08.028Z</time></trkpt><trkpt lat="43.635414931536026" lon="11.186303229694554"><ele>139.85714285714286</ele><time>2026-04-07T15:36:13.028Z</time></trkpt><trkpt lat="43.63544176440257" lon="11.186383439830962"><ele>140.14285714285714</ele><time>2026-04-07T15:36:17.028Z</time></trkpt><trkpt lat="43.63549678295137" lon="11.186460959962192"><ele>140.42857142857142</ele><time>2026-04-07T15:36:22.028Z</time></trkpt><trkpt lat="43.63553606501698" lon="11.186543252144492"><ele>140.71428571428572</ele><time>2026-04-07T15:36:26.029Z</time></trkpt><trkpt lat="43.63552502995998" lon="11.186635605808142"><ele>141.0</ele><time>2026-04-07T15:36:30.029Z</time></trkpt><trkpt lat="43.635491943370255" lon="11.186729962228876"><ele>141.16666666666666</ele><time>2026-04-07T15:36:33.029Z</time></trkpt><trkpt lat="43.63545729868907" lon="11.18682248846714"><ele>141.33333333333334</ele><time>2026-04-07T15:36:36.029Z</time></trkpt><trkpt lat="43.6354109154129" lon="11.186930972867996"><ele>141.5</ele><time>2026-04-07T15:36:39.029Z</time></trkpt><trkpt lat="43.6353676150827" lon="11.187035316074933"><ele>141.66666666666669</ele><time>2026-04-07T15:36:42.029Z</time></trkpt><trkpt lat="43.63533951371934" lon="11.187162808014179"><ele>141.83333333333334</ele><time>2026-04-07T15:36:45.029Z</time></trkpt><trkpt lat="43.635337457043164" lon="11.187258260403752"><ele>142.0</ele><time>2026-04-07T15:36:47.029Z</time></trkpt><trkpt lat="43.6353408911485" lon="11.187349105242559"><ele>142.14285714285714</ele><time>2026-04-07T15:36:49.029Z</time></trkpt><trkpt lat="43.63536061247141" lon="11.187448997615498"><ele>142.28571428571428</ele><time>2026-04-07T15:36:51.029Z</time></trkpt><trkpt lat="43.635370356653496" lon="11.187549543172217"><ele>142.42857142857142</ele><time>2026-04-07T15:36:53.029Z</time></trkpt><trkpt lat="43.63539426226405" lon="11.187644757754661"><ele>142.57142857142856</ele><time>2026-04-07T15:36:55.029Z</time></trkpt><trkpt lat="43.635427174361666" lon="11.187736614615217"><ele>142.71428571428572</ele><time>2026-04-07T15:36:57.029Z</time></trkpt><trkpt lat="43.63546184972504" lon="11.187821455607184"><ele>142.85714285714283</ele><time>2026-04-07T15:36:59.029Z</time></trkpt><trkpt lat="43.635498153085415" lon="11.18791117835386"><ele>143.0</ele><time>2026-04-07T15:37:01.029Z</time></trkpt><trkpt lat="43.63552796078104" lon="11.188001001883041"><ele>143.0</ele><time>2026-04-07T15:37:03.029Z</time></trkpt><trkpt lat="43.63555871711899" lon="11.188102988787104"><ele>143.0</ele><time>2026-04-07T15:37:05.029Z</time></trkpt><trkpt lat="43.63558842583045" lon="11.188202282468877"><ele>143.0</ele><time>2026-04-07T15:37:07.029Z</time></trkpt><trkpt lat="43.63562060613089" lon="11.188297220957443"><ele>143.0</ele><time>2026-04-07T15:37:09.029Z</time></trkpt><trkpt lat="43.63564374676192" lon="11.188390256414934"><ele>143.0</ele><time>2026-04-07T15:37:11.029Z</time></trkpt><trkpt lat="43.635666311489146" lon="11.188501339820013"><ele>143.0</ele><time>2026-04-07T15:37:13.029Z</time></trkpt><trkpt lat="43.63568355539197" lon="11.188612196422993"><ele>143.28571428571428</ele><time>2026-04-07T15:37:15.029Z</time></trkpt><trkpt lat="43.635688942149336" lon="11.188729398870302"><ele>143.57142857142856</ele><time>2026-04-07T15:37:17.029Z</time></trkpt><trkpt lat="43.6356872048277" lon="11.188825718062343"><ele>143.85714285714286</ele><time>2026-04-07T15:37:19.03Z</time></trkpt><trkpt lat="43.63570210195443" lon="11.188911168899395"><ele>144.14285714285714</ele><time>2026-04-07T15:37:21.03Z</time></trkpt><trkpt lat="43.63570535914617" lon="11.189004677844045"><ele>144.42857142857144</ele><time>2026-04-07T15:37:23.03Z</time></trkpt><trkpt lat="43.63572010901088" lon="11.189109693033881"><ele>144.71428571428572</ele><time>2026-04-07T15:37:25.03Z</time></trkpt><trkpt lat="43.6357434920695" lon="11.189214589416753"><ele>145.0</ele><time>2026-04-07T15:37:27.03Z</time></trkpt><trkpt lat="43.63576157687512" lon="11.189316881044748"><ele>145.0</ele><time>2026-04-07T15:37:29.03Z</time></trkpt><trkpt lat="43.6357753000107" lon="11.189418267263495"><ele>145.0</ele><time>2026-04-07T15:37:31.029Z</time></trkpt><trkpt lat="43.635786261276245" lon="11.189521752233727"><ele>145.0</ele><time>2026-04-07T15:37:33.03Z</time></trkpt><trkpt lat="43.635814930523836" lon="11.189625103383898"><ele>145.0</ele><time>2026-04-07T15:37:35.029Z</time></trkpt><trkpt lat="43.635844157017345" lon="11.189730559349588"><ele>145.0</ele><time>2026-04-07T15:37:37.029Z</time></trkpt><trkpt lat="43.635870084494705" lon="11.189831017598786"><ele>145.0</ele><time>2026-04-07T15:37:39.029Z</time></trkpt><trkpt lat="43.63589524344537" lon="11.189936393754675"><ele>145.33333333333334</ele><time>2026-04-07T15:37:41.03Z</time></trkpt><trkpt lat="43.63591817915327" lon="11.190034083001432"><ele>145.66666666666669</ele><time>2026-04-07T15:37:43.029Z</time></trkpt><trkpt lat="43.63593192705707" lon="11.190126106251022"><ele>146.0</ele><time>2026-04-07T15:37:45.029Z</time></trkpt><trkpt lat="43.63593053929576" lon="11.190219059895083"><ele>146.33333333333334</ele><time>2026-04-07T15:37:47.029Z</time></trkpt><trkpt lat="43.63594414321216" lon="11.190338373756504"><ele>146.66666666666666</ele><time>2026-04-07T15:37:49.029Z</time></trkpt><trkpt lat="43.63594832586375" lon="11.190446826021212"><ele>147.0</ele><time>2026-04-07T15:37:51.029Z</time></trkpt><trkpt lat="43.635959538560144" lon="11.190565918707627"><ele>147.33333333333334</ele><time>2026-04-07T15:37:53.03Z</time></trkpt><trkpt lat="43.635967903832665" lon="11.190678209007757"><ele>147.66666666666666</ele><time>2026-04-07T15:37:55.03Z</time></trkpt><trkpt lat="43.635967120163116" lon="11.19078975373995"><ele>148.0</ele><time>2026-04-07T15:37:57.03Z</time></trkpt><trkpt lat="43.635970797236446" lon="11.190894786846407"><ele>148.33333333333331</ele><time>2026-04-07T15:37:59.03Z</time></trkpt><trkpt lat="43.635966587772614" lon="11.191001814587178"><ele>148.66666666666666</ele><time>2026-04-07T15:38:01.03Z</time></trkpt><trkpt lat="43.63595727530415" lon="11.191112065868468"><ele>149.0</ele><time>2026-04-07T15:38:03.03Z</time></trkpt><trkpt lat="43.635946154061564" lon="11.191214986031945"><ele>149.0</ele><time>2026-04-07T15:38:05.03Z</time></trkpt><trkpt lat="43.63592160721552" lon="11.191320275225502"><ele>149.0</ele><time>2026-04-07T15:38:07.03Z</time></trkpt><trkpt lat="43.635904286475224" lon="11.191434153026348"><ele>149.0</ele><time>2026-04-07T15:38:09.03Z</time></trkpt><trkpt lat="43.635885544799216" lon="11.191527940444942"><ele>149.0</ele><time>2026-04-07T15:38:11.03Z</time></trkpt><trkpt lat="43.63586816918125" lon="11.19162568311819"><ele>149.0</ele><time>2026-04-07T15:38:13.03Z</time></trkpt><trkpt lat="43.63585023712929" lon="11.191719435102845"><ele>149.0</ele><time>2026-04-07T15:38:15.03Z</time></trkpt><trkpt lat="43.63583487387495" lon="11.19182141845152"><ele>149.33333333333331</ele><time>2026-04-07T15:38:17.03Z</time></trkpt><trkpt lat="43.635817510074524" lon="11.191928421566285"><ele>149.66666666666666</ele><time>2026-04-07T15:38:19.03Z</time></trkpt><trkpt lat="43.63579479987397" lon="11.192038615376545"><ele>150.0</ele><time>2026-04-07T15:38:21.03Z</time></trkpt><trkpt lat="43.635767959243815" lon="11.192145266239766"><ele>150.33333333333334</ele><time>2026-04-07T15:38:23.03Z</time></trkpt><trkpt lat="43.63573413957571" lon="11.192249641824334"><ele>150.66666666666669</ele><time>2026-04-07T15:38:25.03Z</time></trkpt><trkpt lat="43.635712843642615" lon="11.192355145473162"><ele>151.0</ele><time>2026-04-07T15:38:27.03Z</time></trkpt><trkpt lat="43.63569821087265" lon="11.192466650769408"><ele>151.16666666666669</ele><time>2026-04-07T15:38:29.03Z</time></trkpt><trkpt lat="43.635677148230705" lon="11.192576823057648"><ele>151.33333333333334</ele><time>2026-04-07T15:38:31.03Z</time></trkpt><trkpt lat="43.63566480174894" lon="11.19268821105257"><ele>151.5</ele><time>2026-04-07T15:38:33.03Z</time></trkpt><trkpt lat="43.63565734961653" lon="11.192808470568643"><ele>151.66666666666666</ele><time>2026-04-07T15:38:35.03Z</time></trkpt><trkpt lat="43.63565970534264" lon="11.192927172078702"><ele>151.83333333333331</ele><time>2026-04-07T15:38:37.03Z</time></trkpt><trkpt lat="43.635663149212206" lon="11.193039682935112"><ele>152.0</ele><time>2026-04-07T15:38:39.03Z</time></trkpt><trkpt lat="43.635647102177884" lon="11.19315178056885"><ele>152.0</ele><time>2026-04-07T15:38:41.03Z</time></trkpt><trkpt lat="43.635621621286504" lon="11.193259508052048"><ele>152.0</ele><time>2026-04-07T15:38:43.03Z</time></trkpt><trkpt lat="43.63559180140008" lon="11.193366579367643"><ele>152.0</ele><time>2026-04-07T15:38:45.03Z</time></trkpt><trkpt lat="43.63558893944753" lon="11.19347616398908"><ele>152.0</ele><time>2026-04-07T15:38:47.03Z</time></trkpt><trkpt lat="43.63559233783188" lon="11.193589475887885"><ele>152.0</ele><time>2026-04-07T15:38:49.031Z</time></trkpt><trkpt lat="43.63558784497097" lon="11.193698407791434"><ele>152.0</ele><time>2026-04-07T15:38:51.031Z</time></trkpt><trkpt lat="43.6355617176657" lon="11.193805057208655"><ele>152.0</ele><time>2026-04-07T15:38:53.031Z</time></trkpt><trkpt lat="43.63553728826408" lon="11.193913968697544"><ele>152.0</ele><time>2026-04-07T15:38:55.031Z</time></trkpt><trkpt lat="43.635510853557825" lon="11.194023710643554"><ele>152.0</ele><time>2026-04-07T15:38:57.031Z</time></trkpt><trkpt lat="43.63548795466909" lon="11.194137527802376"><ele>152.0</ele><time>2026-04-07T15:38:59.031Z</time></trkpt><trkpt lat="43.63545370217761" lon="11.19423945081371"><ele>152.0</ele><time>2026-04-07T15:39:01.031Z</time></trkpt><trkpt lat="43.63542950143964" lon="11.194335128871181"><ele>152.0</ele><time>2026-04-07T15:39:03.031Z</time></trkpt><trkpt lat="43.63541482030242" lon="11.194450478356035"><ele>151.83333333333331</ele><time>2026-04-07T15:39:05.031Z</time></trkpt><trkpt lat="43.63539385446602" lon="11.194568002934412"><ele>151.66666666666666</ele><time>2026-04-07T15:39:07.031Z</time></trkpt><trkpt lat="43.63537749274975" lon="11.19468273406166"><ele>151.5</ele><time>2026-04-07T15:39:09.031Z</time></trkpt><trkpt lat="43.635356091382434" lon="11.194800473892993"><ele>151.33333333333334</ele><time>2026-04-07T15:39:11.031Z</time></trkpt><trkpt lat="43.635332808178234" lon="11.194917174182361"><ele>151.16666666666669</ele><time>2026-04-07T15:39:13.031Z</time></trkpt><trkpt lat="43.63531691645943" lon="11.19503371775586"><ele>151.0</ele><time>2026-04-07T15:39:15.031Z</time></trkpt><trkpt lat="43.63529967589391" lon="11.195145628596391"><ele>152.83333333333334</ele><time>2026-04-07T15:39:17.031Z</time></trkpt><trkpt lat="43.635290290100684" lon="11.195264048248612"><ele>154.66666666666669</ele><time>2026-04-07T15:39:19.031Z</time></trkpt><trkpt lat="43.635288925360896" lon="11.195372257762074"><ele>156.5</ele><time>2026-04-07T15:39:21.031Z</time></trkpt><trkpt lat="43.6352662531479" lon="11.195485746113544"><ele>158.33333333333334</ele><time>2026-04-07T15:39:23.031Z</time></trkpt><trkpt lat="43.63523864169791" lon="11.19559224310677"><ele>160.16666666666666</ele><time>2026-04-07T15:39:25.031Z</time></trkpt><trkpt lat="43.63521763996068" lon="11.19569722309284"><ele>162.0</ele><time>2026-04-07T15:39:27.031Z</time></trkpt><trkpt lat="43.63519643386748" lon="11.195804607870283"><ele>162.0</ele><time>2026-04-07T15:39:29.031Z</time></trkpt><trkpt lat="43.63516300349225" lon="11.195906700666676"><ele>162.0</ele><time>2026-04-07T15:39:31.031Z</time></trkpt><trkpt lat="43.635134666749934" lon="11.196010332981672"><ele>162.0</ele><time>2026-04-07T15:39:33.031Z</time></trkpt><trkpt lat="43.63510496313624" lon="11.196122949730064"><ele>162.0</ele><time>2026-04-07T15:39:35.031Z</time></trkpt><trkpt lat="43.63507561641969" lon="11.196237630456832"><ele>162.0</ele><time>2026-04-07T15:39:37.032Z</time></trkpt><trkpt lat="43.63504795163316" lon="11.196343054627082"><ele>162.0</ele><time>2026-04-07T15:39:39.031Z</time></trkpt><trkpt lat="43.635027842784005" lon="11.196461752014576"><ele>161.33333333333334</ele><time>2026-04-07T15:39:41.032Z</time></trkpt><trkpt lat="43.6349885814067" lon="11.196571209052722"><ele>160.66666666666666</ele><time>2026-04-07T15:39:43.031Z</time></trkpt><trkpt lat="43.63496772673627" lon="11.19668540736274"><ele>160.0</ele><time>2026-04-07T15:39:45.032Z</time></trkpt><trkpt lat="43.634945790896644" lon="11.196794974315718"><ele>159.33333333333331</ele><time>2026-04-07T15:39:47.031Z</time></trkpt><trkpt lat="43.63492536003662" lon="11.196907795584089"><ele>158.66666666666666</ele><time>2026-04-07T15:39:49.032Z</time></trkpt><trkpt lat="43.63490119578301" lon="11.197019108354345"><ele>158.0</ele><time>2026-04-07T15:39:51.031Z</time></trkpt><trkpt lat="43.6348812230698" lon="11.197130725076978"><ele>158.0</ele><time>2026-04-07T15:39:53.031Z</time></trkpt><trkpt lat="43.634858620580324" lon="11.197242652898082"><ele>158.0</ele><time>2026-04-07T15:39:55.031Z</time></trkpt><trkpt lat="43.63482791462684" lon="11.197345530347185"><ele>158.0</ele><time>2026-04-07T15:39:57.031Z</time></trkpt><trkpt lat="43.63480418836209" lon="11.197444022339539"><ele>158.0</ele><time>2026-04-07T15:39:59.031Z</time></trkpt><trkpt lat="43.63478145573734" lon="11.197540645028994"><ele>158.0</ele><time>2026-04-07T15:40:01.031Z</time></trkpt><trkpt lat="43.634757279872204" lon="11.197639224776589"><ele>158.0</ele><time>2026-04-07T15:40:03.031Z</time></trkpt><trkpt lat="43.634732706436765" lon="11.197739799661605"><ele>158.0</ele><time>2026-04-07T15:40:05.031Z</time></trkpt><trkpt lat="43.634701813700985" lon="11.197835842665947"><ele>158.0</ele><time>2026-04-07T15:40:07.031Z</time></trkpt><trkpt lat="43.63467837149628" lon="11.197940869848345"><ele>158.0</ele><time>2026-04-07T15:40:09.032Z</time></trkpt><trkpt lat="43.63465050979671" lon="11.198044969026999"><ele>158.0</ele><time>2026-04-07T15:40:11.032Z</time></trkpt><trkpt lat="43.63462369436585" lon="11.198147855039117"><ele>158.0</ele><time>2026-04-07T15:40:13.032Z</time></trkpt><trkpt lat="43.634597658631876" lon="11.198250228553494"><ele>158.0</ele><time>2026-04-07T15:40:15.032Z</time></trkpt><trkpt lat="43.6345785056189" lon="11.198353271921288"><ele>158.0</ele><time>2026-04-07T15:40:17.032Z</time></trkpt><trkpt lat="43.63455598783949" lon="11.198462557124099"><ele>158.0</ele><time>2026-04-07T15:40:19.032Z</time></trkpt><trkpt lat="43.63453491694142" lon="11.198564436067056"><ele>158.0</ele><time>2026-04-07T15:40:21.032Z</time></trkpt><trkpt lat="43.6345166316136" lon="11.198669476109737"><ele>158.0</ele><time>2026-04-07T15:40:23.032Z</time></trkpt><trkpt lat="43.63449844987299" lon="11.19877340222599"><ele>158.0</ele><time>2026-04-07T15:40:25.032Z</time></trkpt><trkpt lat="43.63448202595515" lon="11.198878427466845"><ele>158.0</ele><time>2026-04-07T15:40:27.032Z</time></trkpt><trkpt lat="43.63447547761979" lon="11.198987496369169"><ele>158.2857142857143</ele><time>2026-04-07T15:40:29.032Z</time></trkpt><trkpt lat="43.63447668353644" lon="11.199091467458345"><ele>158.57142857142858</ele><time>2026-04-07T15:40:31.032Z</time></trkpt><trkpt lat="43.63448030400472" lon="11.199196179691413"><ele>158.85714285714286</ele><time>2026-04-07T15:40:33.032Z</time></trkpt><trkpt lat="43.63448939315385" lon="11.199290251657887"><ele>159.14285714285717</ele><time>2026-04-07T15:40:35.032Z</time></trkpt><trkpt lat="43.63449095724845" lon="11.199391812571843"><ele>159.42857142857144</ele><time>2026-04-07T15:40:37.032Z</time></trkpt><trkpt lat="43.6345024093162" lon="11.19948726658513"><ele>159.71428571428572</ele><time>2026-04-07T15:40:39.032Z</time></trkpt><trkpt lat="43.6345074656713" lon="11.199605115362397"><ele>160.0</ele><time>2026-04-07T15:40:42.032Z</time></trkpt><trkpt lat="43.63449791137342" lon="11.199713646927245"><ele>161.85714285714286</ele><time>2026-04-07T15:40:45.032Z</time></trkpt><trkpt lat="43.63444186125769" lon="11.199784745761523"><ele>163.71428571428572</ele><time>2026-04-07T15:40:48.032Z</time></trkpt><trkpt lat="43.63435332310313" lon="11.199783970882134"><ele>165.57142857142856</ele><time>2026-04-07T15:40:51.032Z</time></trkpt><trkpt lat="43.63427775641619" lon="11.199782890965638"><ele>167.42857142857144</ele><time>2026-04-07T15:40:55.032Z</time></trkpt><trkpt lat="43.63422494929449" lon="11.199842679081353"><ele>169.2857142857143</ele><time>2026-04-07T15:40:58.032Z</time></trkpt><trkpt lat="43.634234205745685" lon="11.199943569281027"><ele>171.14285714285714</ele><time>2026-04-07T15:41:02.032Z</time></trkpt><trkpt lat="43.63420316955264" lon="11.199871266797139"><ele>173.0</ele><time>2026-04-07T15:42:36.034Z</time></trkpt><trkpt lat="43.63426707615345" lon="11.199803927187459"><ele>173.0</ele><time>2026-04-07T15:42:40.034Z</time></trkpt><trkpt lat="43.63446041014042" lon="11.199758027426952"><ele>173.0</ele><time>2026-04-07T15:42:48.034Z</time></trkpt><trkpt lat="43.63447378748226" lon="11.199641718936643"><ele>173.0</ele><time>2026-04-07T15:42:51.034Z</time></trkpt><trkpt lat="43.634462667382415" lon="11.199545720692539"><ele>173.0</ele><time>2026-04-07T15:42:53.034Z</time></trkpt><trkpt lat="43.63446063732541" lon="11.199438441446755"><ele>173.0</ele><time>2026-04-07T15:42:55.034Z</time></trkpt><trkpt lat="43.63445489101166" lon="11.199328345879142"><ele>173.0</ele><time>2026-04-07T15:42:57.034Z</time></trkpt><trkpt lat="43.63444885123243" lon="11.199220900510623"><ele>173.0</ele><time>2026-04-07T15:42:59.034Z</time></trkpt><trkpt lat="43.63444829102601" lon="11.199105735554825"><ele>173.0</ele><time>2026-04-07T15:43:01.034Z</time></trkpt><trkpt lat="43.63445223366277" lon="11.198992983262416"><ele>173.0</ele><time>2026-04-07T15:43:03.034Z</time></trkpt><trkpt lat="43.63445005361149" lon="11.198883530976408"><ele>173.0</ele><time>2026-04-07T15:43:05.034Z</time></trkpt><trkpt lat="43.63446849106822" lon="11.198774400861202"><ele>173.0</ele><time>2026-04-07T15:43:07.034Z</time></trkpt><trkpt lat="43.63449554429373" lon="11.19864198863126"><ele>170.0</ele><time>2026-04-07T15:43:09.034Z</time></trkpt><trkpt lat="43.63452215579977" lon="11.198511374661017"><ele>167.0</ele><time>2026-04-07T15:43:11.034Z</time></trkpt><trkpt lat="43.63455598377847" lon="11.198362566723734"><ele>164.0</ele><time>2026-04-07T15:43:13.034Z</time></trkpt><trkpt lat="43.634592994253126" lon="11.198211188228699"><ele>161.0</ele><time>2026-04-07T15:43:15.034Z</time></trkpt><trkpt lat="43.634638626429584" lon="11.198059661118766"><ele>158.0</ele><time>2026-04-07T15:43:17.034Z</time></trkpt><trkpt lat="43.63467116916579" lon="11.197936374661234"><ele>157.6</ele><time>2026-04-07T15:43:19.034Z</time></trkpt><trkpt lat="43.6347000153742" lon="11.197856242550227"><ele>157.20000000000002</ele><time>2026-04-07T15:44:10.035Z</time></trkpt><trkpt lat="43.634722090650975" lon="11.197742550311892"><ele>156.8</ele><time>2026-04-07T15:44:14.035Z</time></trkpt><trkpt lat="43.63474614441836" lon="11.1976103727361"><ele>156.4</ele><time>2026-04-07T15:44:17.035Z</time></trkpt><trkpt lat="43.63478491059122" lon="11.197489452847012"><ele>156.0</ele><time>2026-04-07T15:44:19.035Z</time></trkpt><trkpt lat="43.634816476589315" lon="11.197346485761575"><ele>156.33333333333334</ele><time>2026-04-07T15:44:21.035Z</time></trkpt><trkpt lat="43.63485907384122" lon="11.197199648730912"><ele>156.66666666666666</ele><time>2026-04-07T15:44:23.035Z</time></trkpt><trkpt lat="43.63490059716527" lon="11.197048552245294"><ele>157.0</ele><time>2026-04-07T15:44:25.035Z</time></trkpt><trkpt lat="43.634916307768684" lon="11.196964169581346"><ele>157.33333333333331</ele><time>2026-04-07T15:44:26.035Z</time></trkpt><trkpt lat="43.634940847725765" lon="11.196875766206682"><ele>157.66666666666666</ele><time>2026-04-07T15:44:27.035Z</time></trkpt><trkpt lat="43.634957842700324" lon="11.196784125658946"><ele>158.0</ele><time>2026-04-07T15:44:28.035Z</time></trkpt><trkpt lat="43.63497619583682" lon="11.196696916857581"><ele>158.00000000000003</ele><time>2026-04-07T15:44:29.035Z</time></trkpt><trkpt lat="43.63499339563426" lon="11.196609222086007"><ele>158.0</ele><time>2026-04-07T15:44:30.035Z</time></trkpt><trkpt lat="43.63501129821772" lon="11.19652318012545"><ele>158.0</ele><time>2026-04-07T15:44:31.035Z</time></trkpt><trkpt lat="43.63502891091916" lon="11.196436986691886"><ele>158.0</ele><time>2026-04-07T15:44:32.035Z</time></trkpt><trkpt lat="43.635051647561525" lon="11.196348920047134"><ele>158.0</ele><time>2026-04-07T15:44:33.035Z</time></trkpt><trkpt lat="43.63507417229361" lon="11.196266136343358"><ele>158.00000000000003</ele><time>2026-04-07T15:44:34.035Z</time></trkpt><trkpt lat="43.635107534442525" lon="11.196115984741612"><ele>158.0</ele><time>2026-04-07T15:44:36.035Z</time></trkpt><trkpt lat="43.63513108313986" lon="11.196031410892711"><ele>158.66666666666666</ele><time>2026-04-07T15:44:37.035Z</time></trkpt><trkpt lat="43.635149278803006" lon="11.195944449974556"><ele>159.33333333333331</ele><time>2026-04-07T15:44:38.035Z</time></trkpt><trkpt lat="43.63518966996927" lon="11.195795450835856"><ele>160.0</ele><time>2026-04-07T15:44:40.035Z</time></trkpt><trkpt lat="43.635207304233006" lon="11.195711702721114"><ele>160.66666666666666</ele><time>2026-04-07T15:44:41.035Z</time></trkpt><trkpt lat="43.63522643020157" lon="11.19562418451536"><ele>161.33333333333334</ele><time>2026-04-07T15:44:42.035Z</time></trkpt><trkpt lat="43.63524405105435" lon="11.195538274467967"><ele>162.0</ele><time>2026-04-07T15:44:43.035Z</time></trkpt><trkpt lat="43.63527233156733" lon="11.19537254593435"><ele>163.16666666666666</ele><time>2026-04-07T15:44:45.035Z</time></trkpt><trkpt lat="43.6352917963046" lon="11.195204271465583"><ele>164.33333333333334</ele><time>2026-04-07T15:44:47.035Z</time></trkpt><trkpt lat="43.63530470065953" lon="11.195112611057766"><ele>165.5</ele><time>2026-04-07T15:44:48.035Z</time></trkpt><trkpt lat="43.635321338873545" lon="11.195023665722703"><ele>166.66666666666669</ele><time>2026-04-07T15:44:49.035Z</time></trkpt><trkpt lat="43.63533353853865" lon="11.194937381512624"><ele>167.83333333333334</ele><time>2026-04-07T15:44:50.035Z</time></trkpt><trkpt lat="43.63536117508865" lon="11.194780917942383"><ele>169.0</ele><time>2026-04-07T15:44:52.035Z</time></trkpt><trkpt lat="43.63538632030453" lon="11.194610796272562"><ele>164.75</ele><time>2026-04-07T15:44:54.035Z</time></trkpt><trkpt lat="43.63541358583639" lon="11.194454562142495"><ele>160.5</ele><time>2026-04-07T15:44:56.035Z</time></trkpt><trkpt lat="43.635444213510326" lon="11.19428551182949"><ele>156.25</ele><time>2026-04-07T15:44:58.035Z</time></trkpt><trkpt lat="43.63548450713101" lon="11.194125820931125"><ele>152.0</ele><time>2026-04-07T15:45:00.035Z</time></trkpt><trkpt lat="43.63552099142572" lon="11.19396494506133"><ele>152.0</ele><time>2026-04-07T15:45:02.036Z</time></trkpt><trkpt lat="43.63553586283195" lon="11.19387848122741"><ele>152.0</ele><time>2026-04-07T15:45:03.036Z</time></trkpt><trkpt lat="43.63556559750964" lon="11.193726380889748"><ele>152.0</ele><time>2026-04-07T15:45:05.036Z</time></trkpt><trkpt lat="43.635592570400895" lon="11.193569230711372"><ele>152.0</ele><time>2026-04-07T15:45:07.036Z</time></trkpt><trkpt lat="43.63560363388535" lon="11.193407539304898"><ele>152.0</ele><time>2026-04-07T15:45:09.036Z</time></trkpt><trkpt lat="43.635619219917054" lon="11.193237373641931"><ele>152.0</ele><time>2026-04-07T15:45:11.036Z</time></trkpt><trkpt lat="43.63565009658217" lon="11.193089366136217"><ele>152.0</ele><time>2026-04-07T15:45:13.036Z</time></trkpt><trkpt lat="43.63566078205072" lon="11.193002992650804"><ele>152.0</ele><time>2026-04-07T15:45:14.036Z</time></trkpt><trkpt lat="43.63566569699251" lon="11.19283789631363"><ele>152.0</ele><time>2026-04-07T15:45:16.036Z</time></trkpt><trkpt lat="43.635675860509004" lon="11.192667202440553"><ele>152.0</ele><time>2026-04-07T15:45:18.036Z</time></trkpt><trkpt lat="43.63568952868541" lon="11.192510362002931"><ele>152.0</ele><time>2026-04-07T15:45:20.036Z</time></trkpt><trkpt lat="43.63572105986627" lon="11.192361476696465"><ele>152.0</ele><time>2026-04-07T15:45:22.036Z</time></trkpt><trkpt lat="43.63575455153418" lon="11.192208147610339"><ele>152.0</ele><time>2026-04-07T15:45:24.036Z</time></trkpt><trkpt lat="43.63578793120671" lon="11.19206601623297"><ele>152.0</ele><time>2026-04-07T15:45:26.036Z</time></trkpt><trkpt lat="43.6358246981303" lon="11.191906542583178"><ele>151.79999999999998</ele><time>2026-04-07T15:45:28.036Z</time></trkpt><trkpt lat="43.63584445637989" lon="11.191822805224563"><ele>151.6</ele><time>2026-04-07T15:45:29.036Z</time></trkpt><trkpt lat="43.63587178980575" lon="11.191677614563016"><ele>151.39999999999998</ele><time>2026-04-07T15:45:31.036Z</time></trkpt><trkpt lat="43.635894002910305" lon="11.191524749161726"><ele>151.2</ele><time>2026-04-07T15:45:33.036Z</time></trkpt><trkpt lat="43.635922732786064" lon="11.191367426536411"><ele>151.0</ele><time>2026-04-07T15:45:35.036Z</time></trkpt><trkpt lat="43.63594577915398" lon="11.19120430785571"><ele>150.6</ele><time>2026-04-07T15:45:37.036Z</time></trkpt><trkpt lat="43.635960803928604" lon="11.191028769193771"><ele>150.2</ele><time>2026-04-07T15:45:39.036Z</time></trkpt><trkpt lat="43.63596700391277" lon="11.190860759569137"><ele>149.8</ele><time>2026-04-07T15:45:41.036Z</time></trkpt><trkpt lat="43.63597098206147" lon="11.190767640445609"><ele>149.4</ele><time>2026-04-07T15:45:42.036Z</time></trkpt><trkpt lat="43.635960790160226" lon="11.190599816329005"><ele>149.0</ele><time>2026-04-07T15:45:44.036Z</time></trkpt><trkpt lat="43.635942746907276" lon="11.190432731166755"><ele>148.6</ele><time>2026-04-07T15:45:46.036Z</time></trkpt><trkpt lat="43.63593035422163" lon="11.190268865483997"><ele>148.2</ele><time>2026-04-07T15:45:48.036Z</time></trkpt><trkpt lat="43.6359225899842" lon="11.190113207278266"><ele>147.79999999999998</ele><time>2026-04-07T15:45:50.036Z</time></trkpt><trkpt lat="43.635920039763405" lon="11.190022681090893"><ele>147.4</ele><time>2026-04-07T15:45:51.036Z</time></trkpt><trkpt lat="43.635894886275054" lon="11.189872629256389"><ele>147.0</ele><time>2026-04-07T15:45:53.036Z</time></trkpt><trkpt lat="43.63587097016118" lon="11.189789744143257"><ele>146.6</ele><time>2026-04-07T15:45:54.036Z</time></trkpt><trkpt lat="43.63584983063727" lon="11.18970689229762"><ele>146.2</ele><time>2026-04-07T15:45:55.036Z</time></trkpt><trkpt lat="43.63580815072665" lon="11.189559321870227"><ele>145.8</ele><time>2026-04-07T15:45:57.036Z</time></trkpt><trkpt lat="43.63577634533097" lon="11.189402760251012"><ele>145.4</ele><time>2026-04-07T15:45:59.036Z</time></trkpt><trkpt lat="43.63576514740246" lon="11.18924148216708"><ele>145.0</ele><time>2026-04-07T15:46:01.036Z</time></trkpt><trkpt lat="43.63573750585885" lon="11.189090441938793"><ele>145.0</ele><time>2026-04-07T15:46:03.036Z</time></trkpt><trkpt lat="43.63570349671817" lon="11.188939742616789"><ele>145.0</ele><time>2026-04-07T15:46:05.036Z</time></trkpt><trkpt lat="43.63568502508958" lon="11.188811433035088"><ele>145.0</ele><time>2026-04-07T15:46:07.036Z</time></trkpt><trkpt lat="43.63569464787056" lon="11.188658569324286"><ele>145.0</ele><time>2026-04-07T15:46:09.036Z</time></trkpt><trkpt lat="43.63568532299529" lon="11.188510791617611"><ele>145.0</ele><time>2026-04-07T15:46:11.036Z</time></trkpt><trkpt lat="43.6356511926654" lon="11.188357797999657"><ele>145.0</ele><time>2026-04-07T15:46:13.036Z</time></trkpt><trkpt lat="43.63560776311994" lon="11.188209139563352"><ele>145.0</ele><time>2026-04-07T15:46:15.036Z</time></trkpt><trkpt lat="43.63555993748056" lon="11.188069148581853"><ele>145.0</ele><time>2026-04-07T15:46:17.037Z</time></trkpt><trkpt lat="43.63551077985121" lon="11.18792818115064"><ele>145.0</ele><time>2026-04-07T15:46:19.037Z</time></trkpt><trkpt lat="43.63545958633305" lon="11.187802408816987"><ele>145.0</ele><time>2026-04-07T15:46:21.037Z</time></trkpt><trkpt lat="43.63540409484711" lon="11.187672862317953"><ele>144.6</ele><time>2026-04-07T15:46:23.037Z</time></trkpt><trkpt lat="43.63536359149393" lon="11.187530099884633"><ele>144.2</ele><time>2026-04-07T15:46:25.037Z</time></trkpt><trkpt lat="43.63534195325564" lon="11.187377911512895"><ele>143.8</ele><time>2026-04-07T15:46:27.037Z</time></trkpt><trkpt lat="43.63532844019115" lon="11.187233795944268"><ele>143.4</ele><time>2026-04-07T15:46:29.037Z</time></trkpt><trkpt lat="43.63534385093174" lon="11.187097126181513"><ele>143.0</ele><time>2026-04-07T15:46:31.037Z</time></trkpt><trkpt lat="43.63538080162232" lon="11.18697417789971"><ele>142.85714285714283</ele><time>2026-04-07T15:46:33.037Z</time></trkpt><trkpt lat="43.63542107048731" lon="11.186884327654504"><ele>142.71428571428572</ele><time>2026-04-07T15:46:35.037Z</time></trkpt><trkpt lat="43.63545492962929" lon="11.186805897189652"><ele>142.57142857142856</ele><time>2026-04-07T15:46:37.037Z</time></trkpt><trkpt lat="43.635489863951854" lon="11.186730332435255"><ele>142.42857142857142</ele><time>2026-04-07T15:46:39.037Z</time></trkpt><trkpt lat="43.63551970334769" lon="11.186647033977948"><ele>142.28571428571428</ele><time>2026-04-07T15:46:41.037Z</time></trkpt><trkpt lat="43.635534822176545" lon="11.186547666514059"><ele>142.14285714285714</ele><time>2026-04-07T15:46:44.037Z</time></trkpt><trkpt lat="43.635491616741426" lon="11.186477245644657"><ele>142.0</ele><time>2026-04-07T15:46:47.037Z</time></trkpt><trkpt lat="43.63544071185268" lon="11.186420609675267"><ele>141.83333333333334</ele><time>2026-04-07T15:46:50.037Z</time></trkpt><trkpt lat="43.63541796088957" lon="11.186314114704995"><ele>141.66666666666669</ele><time>2026-04-07T15:46:55.037Z</time></trkpt><trkpt lat="43.63539588543578" lon="11.186219490490732"><ele>141.5</ele><time>2026-04-07T15:46:58.037Z</time></trkpt><trkpt lat="43.63543560672767" lon="11.186121772224942"><ele>141.33333333333334</ele><time>2026-04-07T15:47:01.037Z</time></trkpt><trkpt lat="43.6354705238044" lon="11.18600980645213"><ele>141.16666666666666</ele><time>2026-04-07T15:47:04.037Z</time></trkpt><trkpt lat="43.63548556690294" lon="11.185878127791927"><ele>141.0</ele><time>2026-04-07T15:47:07.037Z</time></trkpt><trkpt lat="43.635472163852896" lon="11.18577490381124"><ele>140.66666666666666</ele><time>2026-04-07T15:47:09.037Z</time></trkpt><trkpt lat="43.63548096160309" lon="11.1856667663982"><ele>140.33333333333334</ele><time>2026-04-07T15:47:11.038Z</time></trkpt><trkpt lat="43.63548450081093" lon="11.185565140773713"><ele>140.0</ele><time>2026-04-07T15:47:13.038Z</time></trkpt><trkpt lat="43.635509770753245" lon="11.185459060667135"><ele>139.66666666666669</ele><time>2026-04-07T15:47:15.038Z</time></trkpt><trkpt lat="43.63552191007543" lon="11.185354835796115"><ele>139.33333333333334</ele><time>2026-04-07T15:47:17.038Z</time></trkpt><trkpt lat="43.63552583784239" lon="11.185250145637644"><ele>139.0</ele><time>2026-04-07T15:47:19.038Z</time></trkpt><trkpt lat="43.63553295502384" lon="11.185131179586326"><ele>139.0</ele><time>2026-04-07T15:47:21.038Z</time></trkpt><trkpt lat="43.635537668327984" lon="11.185007791596965"><ele>139.0</ele><time>2026-04-07T15:47:23.038Z</time></trkpt><trkpt lat="43.63554606575709" lon="11.184878013313318"><ele>139.0</ele><time>2026-04-07T15:47:25.038Z</time></trkpt><trkpt lat="43.63555904960346" lon="11.184748511425255"><ele>139.0</ele><time>2026-04-07T15:47:27.038Z</time></trkpt><trkpt lat="43.63557066713327" lon="11.18462257625761"><ele>139.0</ele><time>2026-04-07T15:47:29.038Z</time></trkpt><trkpt lat="43.6355839749005" lon="11.184506782256737"><ele>139.0</ele><time>2026-04-07T15:47:31.038Z</time></trkpt><trkpt lat="43.63558523403272" lon="11.184381609204479"><ele>139.0</ele><time>2026-04-07T15:47:33.038Z</time></trkpt><trkpt lat="43.63557351386458" lon="11.184258350213733"><ele>139.0</ele><time>2026-04-07T15:47:35.038Z</time></trkpt><trkpt lat="43.63551391687596" lon="11.184173637516073"><ele>139.0</ele><time>2026-04-07T15:47:37.038Z</time></trkpt><trkpt lat="43.63547708023452" lon="11.184098217081354"><ele>139.0</ele><time>2026-04-07T15:47:39.038Z</time></trkpt><trkpt lat="43.63542680205432" lon="11.183992194246153"><ele>139.0</ele><time>2026-04-07T15:47:41.038Z</time></trkpt><trkpt lat="43.635375819929045" lon="11.183884959765027"><ele>139.0</ele><time>2026-04-07T15:47:43.038Z</time></trkpt><trkpt lat="43.63531827101794" lon="11.183780316557899"><ele>139.0</ele><time>2026-04-07T15:47:45.038Z</time></trkpt><trkpt lat="43.63525245064894" lon="11.183680742941428"><ele>139.0</ele><time>2026-04-07T15:47:47.038Z</time></trkpt><trkpt lat="43.63518764937101" lon="11.183576390492973"><ele>139.0</ele><time>2026-04-07T15:47:49.038Z</time></trkpt><trkpt lat="43.635119519210804" lon="11.183471127405854"><ele>139.0</ele><time>2026-04-07T15:47:51.038Z</time></trkpt><trkpt lat="43.635053522521474" lon="11.183374166194605"><ele>138.33333333333334</ele><time>2026-04-07T15:47:53.038Z</time></trkpt><trkpt lat="43.63498360607917" lon="11.183302097445543"><ele>137.66666666666669</ele><time>2026-04-07T15:47:55.038Z</time></trkpt><trkpt lat="43.634911146863075" lon="11.18322607314705"><ele>137.0</ele><time>2026-04-07T15:47:57.038Z</time></trkpt><trkpt lat="43.63485035357825" lon="11.183139093689698"><ele>136.33333333333334</ele><time>2026-04-07T15:47:59.038Z</time></trkpt><trkpt lat="43.634811797163565" lon="11.18303222610869"><ele>135.66666666666666</ele><time>2026-04-07T15:48:01.038Z</time></trkpt><trkpt lat="43.634762522361285" lon="11.182926431854892"><ele>135.0</ele><time>2026-04-07T15:48:03.038Z</time></trkpt><trkpt lat="43.63470182307977" lon="11.182831006912549"><ele>135.0</ele><time>2026-04-07T15:48:05.038Z</time></trkpt><trkpt lat="43.63462954484871" lon="11.182746028321871"><ele>135.0</ele><time>2026-04-07T15:48:07.039Z</time></trkpt><trkpt lat="43.63455403159357" lon="11.182663206059102"><ele>135.0</ele><time>2026-04-07T15:48:09.038Z</time></trkpt><trkpt lat="43.634484350238715" lon="11.182572598015355"><ele>135.0</ele><time>2026-04-07T15:48:11.038Z</time></trkpt><trkpt lat="43.634423240924676" lon="11.18247537572985"><ele>135.0</ele><time>2026-04-07T15:48:13.038Z</time></trkpt><trkpt lat="43.63435263522365" lon="11.18238016911029"><ele>135.16666666666666</ele><time>2026-04-07T15:48:15.038Z</time></trkpt><trkpt lat="43.63427120722155" lon="11.182325348086797"><ele>135.33333333333334</ele><time>2026-04-07T15:48:17.038Z</time></trkpt><trkpt lat="43.63419043602849" lon="11.182293709178795"><ele>135.5</ele><time>2026-04-07T15:48:19.038Z</time></trkpt><trkpt lat="43.63411656341311" lon="11.182278212156179"><ele>135.66666666666669</ele><time>2026-04-07T15:48:21.038Z</time></trkpt><trkpt lat="43.63405379758452" lon="11.182244213473814"><ele>135.83333333333334</ele><time>2026-04-07T15:48:23.039Z</time></trkpt><trkpt lat="43.6339672793442" lon="11.182202040229559"><ele>136.0</ele><time>2026-04-07T15:48:26.039Z</time></trkpt><trkpt lat="43.63394728697025" lon="11.182112719341452"><ele>136.0</ele><time>2026-04-07T15:48:29.039Z</time></trkpt><trkpt lat="43.633934255501345" lon="11.182005221749405"><ele>136.0</ele><time>2026-04-07T15:48:32.039Z</time></trkpt><trkpt lat="43.6339179326835" lon="11.181912172932208"><ele>136.0</ele><time>2026-04-07T15:48:34.039Z</time></trkpt><trkpt lat="43.63387034061256" lon="11.181796418870197"><ele>136.0</ele><time>2026-04-07T15:48:36.039Z</time></trkpt><trkpt lat="43.63382028638379" lon="11.181735004862093"><ele>136.0</ele><time>2026-04-07T15:48:38.039Z</time></trkpt><trkpt lat="43.63375417397312" lon="11.18168014870562"><ele>136.0</ele><time>2026-04-07T15:48:40.039Z</time></trkpt><trkpt lat="43.6336871595289" lon="11.181665383022462"><ele>135.5</ele><time>2026-04-07T15:48:42.039Z</time></trkpt><trkpt lat="43.633618881726555" lon="11.181674508516034"><ele>135.0</ele><time>2026-04-07T15:48:44.039Z</time></trkpt><trkpt lat="43.63355522453543" lon="11.181719771200768"><ele>134.5</ele><time>2026-04-07T15:48:46.039Z</time></trkpt><trkpt lat="43.6334784130982" lon="11.18176191179569"><ele>134.0</ele><time>2026-04-07T15:48:49.039Z</time></trkpt><trkpt lat="43.63342452476632" lon="11.181691435462165"><ele>133.5</ele><time>2026-04-07T15:48:52.039Z</time></trkpt><trkpt lat="43.63342923344873" lon="11.181593413681771"><ele>133.0</ele><time>2026-04-07T15:48:54.039Z</time></trkpt><trkpt lat="43.63343724933667" lon="11.18146773024667"><ele>133.0</ele><time>2026-04-07T15:48:56.039Z</time></trkpt><trkpt lat="43.63344188141054" lon="11.181323564186597"><ele>133.0</ele><time>2026-04-07T15:48:58.039Z</time></trkpt><trkpt lat="43.63342160581828" lon="11.18119222676769"><ele>133.0</ele><time>2026-04-07T15:49:00.039Z</time></trkpt><trkpt lat="43.63337515747677" lon="11.181064062400612"><ele>133.0</ele><time>2026-04-07T15:49:02.039Z</time></trkpt><trkpt lat="43.63333437958467" lon="11.180907591588776"><ele>133.0</ele><time>2026-04-07T15:49:04.039Z</time></trkpt><trkpt lat="43.633302007493974" lon="11.180741882411912"><ele>132.5</ele><time>2026-04-07T15:49:06.039Z</time></trkpt><trkpt lat="43.63327186055213" lon="11.180664257003121"><ele>132.0</ele><time>2026-04-07T15:49:07.039Z</time></trkpt><trkpt lat="43.633242041518535" lon="11.180581142445435"><ele>131.5</ele><time>2026-04-07T15:49:08.039Z</time></trkpt><trkpt lat="43.63321217561422" lon="11.180501273644806"><ele>131.0</ele><time>2026-04-07T15:49:09.039Z</time></trkpt><trkpt lat="43.63314922253466" lon="11.180381749704553"><ele>130.5</ele><time>2026-04-07T15:49:11.039Z</time></trkpt><trkpt lat="43.63311051209662" lon="11.180263702456372"><ele>130.0</ele><time>2026-04-07T15:49:13.039Z</time></trkpt><trkpt lat="43.63306738529963" lon="11.18018087346845"><ele>130.0</ele><time>2026-04-07T15:49:15.039Z</time></trkpt><trkpt lat="43.63305799832598" lon="11.180072005790116"><ele>130.0</ele><time>2026-04-07T15:49:19.04Z</time></trkpt><trkpt lat="43.633124018430905" lon="11.180003151824657"><ele>130.0</ele><time>2026-04-07T15:49:22.04Z</time></trkpt><trkpt lat="43.63317492243837" lon="11.179940601696241"><ele>130.0</ele><time>2026-04-07T15:49:24.04Z</time></trkpt><trkpt lat="43.63323447534758" lon="11.17987606386388"><ele>130.0</ele><time>2026-04-07T15:49:26.04Z</time></trkpt><trkpt lat="43.63329233547182" lon="11.179807149520105"><ele>130.0</ele><time>2026-04-07T15:49:28.04Z</time></trkpt><trkpt lat="43.63335253959432" lon="11.179745342412218"><ele>130.00000000000003</ele><time>2026-04-07T15:49:30.04Z</time></trkpt><trkpt lat="43.63340629549831" lon="11.17968168062925"><ele>130.0</ele><time>2026-04-07T15:49:32.04Z</time></trkpt><trkpt lat="43.63346206847109" lon="11.179621023818301"><ele>130.0</ele><time>2026-04-07T15:49:34.04Z</time></trkpt><trkpt lat="43.63351327501435" lon="11.17955720255366"><ele>130.0</ele><time>2026-04-07T15:49:36.04Z</time></trkpt><trkpt lat="43.633565597786905" lon="11.179504806236565"><ele>130.0</ele><time>2026-04-07T15:49:38.04Z</time></trkpt><trkpt lat="43.63362194520268" lon="11.179444735955189"><ele>130.00000000000003</ele><time>2026-04-07T15:49:40.04Z</time></trkpt><trkpt lat="43.633672923806536" lon="11.179373020771125"><ele>130.0</ele><time>2026-04-07T15:49:42.04Z</time></trkpt><trkpt lat="43.63373752957779" lon="11.179303361429994"><ele>130.0</ele><time>2026-04-07T15:49:44.04Z</time></trkpt><trkpt lat="43.63380765761018" lon="11.179231337931977"><ele>130.0</ele><time>2026-04-07T15:49:46.04Z</time></trkpt><trkpt lat="43.63389312170152" lon="11.179166673265561"><ele>130.0</ele><time>2026-04-07T15:49:48.039Z</time></trkpt><trkpt lat="43.63397285421878" lon="11.179115182028424"><ele>130.0</ele><time>2026-04-07T15:49:50.037Z</time></trkpt><trkpt lat="43.634052173057306" lon="11.179047179969789"><ele>130.0</ele><time>2026-04-07T15:49:52.036Z</time></trkpt><trkpt lat="43.6341111896647" lon="11.178956445356778"><ele>129.83333333333334</ele><time>2026-04-07T15:49:54.035Z</time></trkpt><trkpt lat="43.63407149808888" lon="11.178836253368145"><ele>129.66666666666669</ele><time>2026-04-07T15:49:56.034Z</time></trkpt><trkpt lat="43.6340161338113" lon="11.17871672723842"><ele>129.5</ele><time>2026-04-07T15:49:58.033Z</time></trkpt><trkpt lat="43.63396698942986" lon="11.178569576090172"><ele>129.33333333333334</ele><time>2026-04-07T15:50:00.032Z</time></trkpt><trkpt lat="43.633929731213385" lon="11.1784953022899"><ele>129.16666666666666</ele><time>2026-04-07T15:50:01.032Z</time></trkpt><trkpt lat="43.63390048496666" lon="11.178416245305497"><ele>129.0</ele><time>2026-04-07T15:50:02.032Z</time></trkpt><trkpt lat="43.633859164422205" lon="11.178256525770399"><ele>128.8</ele><time>2026-04-07T15:50:04.031Z</time></trkpt><trkpt lat="43.63381722036517" lon="11.17810493252465"><ele>128.60000000000002</ele><time>2026-04-07T15:50:06.03Z</time></trkpt><trkpt lat="43.63376768568388" lon="11.177964913824304"><ele>128.4</ele><time>2026-04-07T15:50:08.029Z</time></trkpt><trkpt lat="43.63372965536124" lon="11.177823886001052"><ele>128.20000000000002</ele><time>2026-04-07T15:50:10.029Z</time></trkpt><trkpt lat="43.63368473651518" lon="11.177684706971345"><ele>128.0</ele><time>2026-04-07T15:50:12.029Z</time></trkpt><trkpt lat="43.63365002356089" lon="11.177551286981187"><ele>127.80000000000001</ele><time>2026-04-07T15:50:14.028Z</time></trkpt><trkpt lat="43.633613565297985" lon="11.177419795005076"><ele>127.60000000000001</ele><time>2026-04-07T15:50:16.028Z</time></trkpt><trkpt lat="43.63359185590183" lon="11.177282130639766"><ele>127.39999999999999</ele><time>2026-04-07T15:50:18.028Z</time></trkpt><trkpt lat="43.633572051150864" lon="11.177144169063702"><ele>127.19999999999999</ele><time>2026-04-07T15:50:20.027Z</time></trkpt><trkpt lat="43.63356536114321" lon="11.17699290901542"><ele>127.0</ele><time>2026-04-07T15:50:22.027Z</time></trkpt><trkpt lat="43.63356583814605" lon="11.176855900687976"><ele>126.6</ele><time>2026-04-07T15:50:24.027Z</time></trkpt><trkpt lat="43.63357655237735" lon="11.176722391993591"><ele>126.19999999999999</ele><time>2026-04-07T15:50:26.027Z</time></trkpt><trkpt lat="43.63358535879431" lon="11.176581975355885"><ele>125.8</ele><time>2026-04-07T15:50:28.027Z</time></trkpt><trkpt lat="43.633570400768406" lon="11.176432381962005"><ele>125.4</ele><time>2026-04-07T15:50:30.027Z</time></trkpt><trkpt lat="43.63351294952994" lon="11.17630863442407"><ele>125.0</ele><time>2026-04-07T15:50:32.027Z</time></trkpt><trkpt lat="43.633456936900856" lon="11.176198755928873"><ele>125.0</ele><time>2026-04-07T15:50:34.027Z</time></trkpt><trkpt lat="43.633406730523966" lon="11.176065525797512"><ele>125.0</ele><time>2026-04-07T15:50:36.027Z</time></trkpt><trkpt lat="43.63336064565062" lon="11.175937709861348"><ele>125.0</ele><time>2026-04-07T15:50:38.027Z</time></trkpt><trkpt lat="43.63331016459435" lon="11.175821299683507"><ele>125.0</ele><time>2026-04-07T15:50:40.027Z</time></trkpt><trkpt lat="43.63325814549685" lon="11.175724262491778"><ele>125.0</ele><time>2026-04-07T15:50:42.026Z</time></trkpt><trkpt lat="43.6332419688959" lon="11.175564711729072"><ele>124.8</ele><time>2026-04-07T15:50:44.026Z</time></trkpt><trkpt lat="43.63325669891988" lon="11.175468584872538"><ele>124.6</ele><time>2026-04-07T15:50:45.026Z</time></trkpt><trkpt lat="43.633302559900194" lon="11.175314831442071"><ele>124.4</ele><time>2026-04-07T15:50:47.026Z</time></trkpt><trkpt lat="43.633360059651" lon="11.175198089113817"><ele>124.2</ele><time>2026-04-07T15:50:49.026Z</time></trkpt><trkpt lat="43.63341533215001" lon="11.175060454813114"><ele>124.0</ele><time>2026-04-07T15:50:51.026Z</time></trkpt><trkpt lat="43.63347467722705" lon="11.174921159480906"><ele>124.00000000000001</ele><time>2026-04-07T15:50:53.026Z</time></trkpt><trkpt lat="43.63351939472297" lon="11.17485403927373"><ele>124.0</ele><time>2026-04-07T15:50:54.026Z</time></trkpt><trkpt lat="43.63355310987352" lon="11.174778072346143"><ele>124.0</ele><time>2026-04-07T15:50:55.026Z</time></trkpt><trkpt lat="43.63359086973601" lon="11.174705826864942"><ele>124.0</ele><time>2026-04-07T15:50:56.026Z</time></trkpt><trkpt lat="43.633668194542246" lon="11.17456987468346"><ele>124.00000000000001</ele><time>2026-04-07T15:50:58.026Z</time></trkpt><trkpt lat="43.6337325621226" lon="11.174447867533628"><ele>124.0</ele><time>2026-04-07T15:51:00.026Z</time></trkpt><trkpt lat="43.633814970351835" lon="11.174316726893734"><ele>124.0</ele><time>2026-04-07T15:51:02.026Z</time></trkpt><trkpt lat="43.63386058755116" lon="11.17424531794654"><ele>124.0</ele><time>2026-04-07T15:51:03.026Z</time></trkpt><trkpt lat="43.6338996594001" lon="11.174173454635875"><ele>124.0</ele><time>2026-04-07T15:51:04.026Z</time></trkpt><trkpt lat="43.63397368288183" lon="11.174048936784537"><ele>124.0</ele><time>2026-04-07T15:51:06.026Z</time></trkpt><trkpt lat="43.634067347183205" lon="11.173956379102727"><ele>124.0</ele><time>2026-04-07T15:51:08.026Z</time></trkpt><trkpt lat="43.634159819840505" lon="11.173895561373039"><ele>124.2</ele><time>2026-04-07T15:51:10.027Z</time></trkpt><trkpt lat="43.63426238806149" lon="11.173830672418754"><ele>124.4</ele><time>2026-04-07T15:51:12.027Z</time></trkpt><trkpt lat="43.63436784643548" lon="11.173793742401562"><ele>124.6</ele><time>2026-04-07T15:51:14.027Z</time></trkpt><trkpt lat="43.63446277688151" lon="11.173767600713557"><ele>124.8</ele><time>2026-04-07T15:51:16.027Z</time></trkpt><trkpt lat="43.63457377071217" lon="11.173771143536209"><ele>125.0</ele><time>2026-04-07T15:51:18.027Z</time></trkpt><trkpt lat="43.63472446066262" lon="11.173650571129189"><ele>124.8</ele><time>2026-04-07T15:51:21.027Z</time></trkpt><trkpt lat="43.63481149973588" lon="11.173532989862123"><ele>124.6</ele><time>2026-04-07T15:51:23.027Z</time></trkpt><trkpt lat="43.634859174402834" lon="11.17347064542668"><ele>124.4</ele><time>2026-04-07T15:51:24.027Z</time></trkpt><trkpt lat="43.63493667266975" lon="11.173350013960627"><ele>124.2</ele><time>2026-04-07T15:51:26.027Z</time></trkpt><trkpt lat="43.6349799736097" lon="11.173283213185636"><ele>124.0</ele><time>2026-04-07T15:51:27.027Z</time></trkpt><trkpt lat="43.63505558665968" lon="11.173157798524729"><ele>124.0</ele><time>2026-04-07T15:51:29.027Z</time></trkpt><trkpt lat="43.63513923492217" lon="11.173039560914251"><ele>124.0</ele><time>2026-04-07T15:51:31.027Z</time></trkpt><trkpt lat="43.635240952004956" lon="11.172957552132283"><ele>124.0</ele><time>2026-04-07T15:51:33.027Z</time></trkpt><trkpt lat="43.63533305311104" lon="11.172866531544344"><ele>124.0</ele><time>2026-04-07T15:51:35.027Z</time></trkpt><trkpt lat="43.635426727166596" lon="11.172773294110346"><ele>123.6</ele><time>2026-04-07T15:51:37.027Z</time></trkpt><trkpt lat="43.63551959159925" lon="11.172684869027863"><ele>123.2</ele><time>2026-04-07T15:51:39.027Z</time></trkpt><trkpt lat="43.63560420638674" lon="11.172586316579835"><ele>122.79999999999998</ele><time>2026-04-07T15:51:41.027Z</time></trkpt><trkpt lat="43.63567283879467" lon="11.172472011899055"><ele>122.39999999999999</ele><time>2026-04-07T15:51:43.027Z</time></trkpt><trkpt lat="43.63573594387209" lon="11.172338940040904"><ele>122.0</ele><time>2026-04-07T15:51:45.027Z</time></trkpt><trkpt lat="43.63582020300282" lon="11.172218264939238"><ele>121.99999999999999</ele><time>2026-04-07T15:51:47.027Z</time></trkpt><trkpt lat="43.63587203096494" lon="11.172162838571115"><ele>122.0</ele><time>2026-04-07T15:51:48.027Z</time></trkpt><trkpt lat="43.63591847313813" lon="11.172100447379318"><ele>122.0</ele><time>2026-04-07T15:51:49.027Z</time></trkpt><trkpt lat="43.63599019417513" lon="11.171980706208021"><ele>122.0</ele><time>2026-04-07T15:51:51.027Z</time></trkpt><trkpt lat="43.636030513037156" lon="11.171911671202901"><ele>121.99999999999999</ele><time>2026-04-07T15:51:52.027Z</time></trkpt><trkpt lat="43.63606495128673" lon="11.171837697128705"><ele>122.0</ele><time>2026-04-07T15:51:53.027Z</time></trkpt><trkpt lat="43.63612383761668" lon="11.17169024577565"><ele>122.0</ele><time>2026-04-07T15:51:55.027Z</time></trkpt><trkpt lat="43.636175552672626" lon="11.171558433473528"><ele>121.99999999999999</ele><time>2026-04-07T15:51:57.027Z</time></trkpt><trkpt lat="43.63623554954492" lon="11.171429807625165"><ele>121.99999999999999</ele><time>2026-04-07T15:51:59.027Z</time></trkpt><trkpt lat="43.636296789044415" lon="11.171324679303458"><ele>122.0</ele><time>2026-04-07T15:52:01.027Z</time></trkpt><trkpt lat="43.63633778274962" lon="11.171202369418074"><ele>122.0</ele><time>2026-04-07T15:52:03.027Z</time></trkpt><trkpt lat="43.63638346826173" lon="11.171085651317126"><ele>122.0</ele><time>2026-04-07T15:52:05.027Z</time></trkpt><trkpt lat="43.63643443650424" lon="11.17096782342154"><ele>121.99999999999999</ele><time>2026-04-07T15:52:07.027Z</time></trkpt><trkpt lat="43.63649002407833" lon="11.170861038169981"><ele>121.99999999999999</ele><time>2026-04-07T15:52:09.027Z</time></trkpt><trkpt lat="43.63654737867738" lon="11.170752277565368"><ele>122.0</ele><time>2026-04-07T15:52:11.027Z</time></trkpt><trkpt lat="43.63660548664867" lon="11.170636115586815"><ele>122.0</ele><time>2026-04-07T15:52:13.027Z</time></trkpt><trkpt lat="43.63666807870859" lon="11.170528850596165"><ele>122.19999999999999</ele><time>2026-04-07T15:52:15.027Z</time></trkpt><trkpt lat="43.636720125354515" lon="11.170408829592553"><ele>122.39999999999999</ele><time>2026-04-07T15:52:17.027Z</time></trkpt><trkpt lat="43.636762833983205" lon="11.170282418585115"><ele>122.60000000000001</ele><time>2026-04-07T15:52:19.027Z</time></trkpt><trkpt lat="43.63679818683413" lon="11.17015343220212"><ele>122.80000000000001</ele><time>2026-04-07T15:52:21.027Z</time></trkpt><trkpt lat="43.63682765461819" lon="11.17001509530328"><ele>123.0</ele><time>2026-04-07T15:52:23.027Z</time></trkpt><trkpt lat="43.63685276897771" lon="11.169876224616061"><ele>123.0</ele><time>2026-04-07T15:52:25.027Z</time></trkpt><trkpt lat="43.636879918749216" lon="11.169741091447168"><ele>123.00000000000001</ele><time>2026-04-07T15:52:27.028Z</time></trkpt><trkpt lat="43.63690841433626" lon="11.169605909856744"><ele>123.00000000000001</ele><time>2026-04-07T15:52:29.028Z</time></trkpt><trkpt lat="43.636909678037284" lon="11.169474118035756"><ele>123.0</ele><time>2026-04-07T15:52:31.028Z</time></trkpt><trkpt lat="43.63690259675213" lon="11.169347167250688"><ele>123.0</ele><time>2026-04-07T15:52:33.028Z</time></trkpt><trkpt lat="43.63692864607444" lon="11.16920686269752"><ele>122.5</ele><time>2026-04-07T15:52:35.028Z</time></trkpt><trkpt lat="43.63698174044925" lon="11.169072679343698"><ele>122.0</ele><time>2026-04-07T15:52:37.028Z</time></trkpt><trkpt lat="43.63705922636756" lon="11.168942700629058"><ele>121.5</ele><time>2026-04-07T15:52:39.028Z</time></trkpt><trkpt lat="43.63710876535338" lon="11.168882600278458"><ele>121.0</ele><time>2026-04-07T15:52:40.028Z</time></trkpt><trkpt lat="43.63715763834427" lon="11.16881369805205"><ele>120.5</ele><time>2026-04-07T15:52:41.028Z</time></trkpt><trkpt lat="43.637209775371524" lon="11.168764715315818"><ele>120.0</ele><time>2026-04-07T15:52:42.028Z</time></trkpt><trkpt lat="43.637313443080245" lon="11.16867515412361"><ele>120.0</ele><time>2026-04-07T15:52:44.028Z</time></trkpt><trkpt lat="43.63741304451406" lon="11.168609786872803"><ele>120.0</ele><time>2026-04-07T15:52:46.028Z</time></trkpt><trkpt lat="43.63751368595473" lon="11.16854241248328"><ele>120.0</ele><time>2026-04-07T15:52:48.028Z</time></trkpt><trkpt lat="43.63761763731717" lon="11.168552478957773"><ele>120.0</ele><time>2026-04-07T15:52:50.028Z</time></trkpt><trkpt lat="43.637686019128786" lon="11.168642685745246"><ele>120.0</ele><time>2026-04-07T15:52:52.028Z</time></trkpt><trkpt lat="43.63774454346953" lon="11.168715150453124"><ele>119.5</ele><time>2026-04-07T15:52:54.028Z</time></trkpt><trkpt lat="43.63781950574675" lon="11.168718651629302"><ele>119.0</ele><time>2026-04-07T15:52:56.028Z</time></trkpt><trkpt lat="43.63791982095179" lon="11.168688407213484"><ele>118.5</ele><time>2026-04-07T15:52:58.028Z</time></trkpt><trkpt lat="43.63801180260084" lon="11.168671927688367"><ele>118.0</ele><time>2026-04-07T15:53:00.028Z</time></trkpt><trkpt lat="43.638093947708924" lon="11.16864940088156"><ele>117.5</ele><time>2026-04-07T15:53:02.028Z</time></trkpt><trkpt lat="43.638170974932535" lon="11.168595558369539"><ele>117.0</ele><time>2026-04-07T15:53:04.028Z</time></trkpt><trkpt lat="43.638253402656446" lon="11.168585524459122"><ele>117.0</ele><time>2026-04-07T15:53:06.028Z</time></trkpt><trkpt lat="43.63835920117348" lon="11.168571954679702"><ele>117.0</ele><time>2026-04-07T15:53:08.028Z</time></trkpt><trkpt lat="43.63846247220003" lon="11.16852854358696"><ele>117.0</ele><time>2026-04-07T15:53:10.028Z</time></trkpt><trkpt lat="43.63857020113799" lon="11.168471238685163"><ele>117.0</ele><time>2026-04-07T15:53:12.028Z</time></trkpt><trkpt lat="43.63868711664758" lon="11.168419503298121"><ele>116.75</ele><time>2026-04-07T15:53:14.028Z</time></trkpt><trkpt lat="43.63879371190286" lon="11.168383555387894"><ele>116.5</ele><time>2026-04-07T15:53:16.028Z</time></trkpt><trkpt lat="43.63890071100837" lon="11.168354096438955"><ele>116.25</ele><time>2026-04-07T15:53:18.028Z</time></trkpt><trkpt lat="43.639010593137755" lon="11.168319503004328"><ele>116.0</ele><time>2026-04-07T15:53:20.028Z</time></trkpt><trkpt lat="43.63912667011325" lon="11.168273191680832"><ele>115.99999999999999</ele><time>2026-04-07T15:53:22.028Z</time></trkpt><trkpt lat="43.63918903855764" lon="11.168252552796572"><ele>116.0</ele><time>2026-04-07T15:53:23.028Z</time></trkpt><trkpt lat="43.63925154837124" lon="11.16823348659765"><ele>116.0</ele><time>2026-04-07T15:53:24.028Z</time></trkpt><trkpt lat="43.639316475048716" lon="11.168214393859069"><ele>116.0</ele><time>2026-04-07T15:53:25.028Z</time></trkpt><trkpt lat="43.63938216467061" lon="11.168191044414154"><ele>115.99999999999999</ele><time>2026-04-07T15:53:26.028Z</time></trkpt><trkpt lat="43.639447450166834" lon="11.168165368417569"><ele>116.0</ele><time>2026-04-07T15:53:27.028Z</time></trkpt><trkpt lat="43.63956057677356" lon="11.168101607443937"><ele>116.0</ele><time>2026-04-07T15:53:29.028Z</time></trkpt><trkpt lat="43.639617539615166" lon="11.168063060172681"><ele>116.0</ele><time>2026-04-07T15:53:30.028Z</time></trkpt><trkpt lat="43.63971679855115" lon="11.167961409885907"><ele>116.0</ele><time>2026-04-07T15:53:32.028Z</time></trkpt><trkpt lat="43.639771705830555" lon="11.167902941420172"><ele>116.0</ele><time>2026-04-07T15:53:33.028Z</time></trkpt><trkpt lat="43.63986648417405" lon="11.167814614631084"><ele>116.0</ele><time>2026-04-07T15:53:35.028Z</time></trkpt><trkpt lat="43.63995687031557" lon="11.167748387071784"><ele>116.0</ele><time>2026-04-07T15:53:37.028Z</time></trkpt><trkpt lat="43.64003144237448" lon="11.167670450516564"><ele>116.0</ele><time>2026-04-07T15:53:39.028Z</time></trkpt><trkpt lat="43.64012071711519" lon="11.16759219954525"><ele>116.0</ele><time>2026-04-07T15:53:41.028Z</time></trkpt><trkpt lat="43.64020065316999" lon="11.167509816990817"><ele>116.0</ele><time>2026-04-07T15:53:43.028Z</time></trkpt><trkpt lat="43.6402827615474" lon="11.167421145556526"><ele>116.0</ele><time>2026-04-07T15:53:45.029Z</time></trkpt><trkpt lat="43.64033817773478" lon="11.167367763946471"><ele>115.4</ele><time>2026-04-07T15:53:46.029Z</time></trkpt><trkpt lat="43.640408068293695" lon="11.167291421490349"><ele>114.8</ele><time>2026-04-07T15:53:49.029Z</time></trkpt><trkpt lat="43.64046284779969" lon="11.167229970288902"><ele>114.20000000000002</ele><time>2026-04-07T15:53:51.029Z</time></trkpt><trkpt lat="43.64053503576843" lon="11.167143363179989"><ele>113.60000000000001</ele><time>2026-04-07T15:53:53.029Z</time></trkpt><trkpt lat="43.64061175732162" lon="11.167039504830218"><ele>113.0</ele><time>2026-04-07T15:53:55.029Z</time></trkpt><trkpt lat="43.640701876478346" lon="11.166936599626933"><ele>113.0</ele><time>2026-04-07T15:53:57.029Z</time></trkpt><trkpt lat="43.64078349245651" lon="11.166822879694275"><ele>113.00000000000001</ele><time>2026-04-07T15:53:59.029Z</time></trkpt><trkpt lat="43.640857662325104" lon="11.166732606828171"><ele>113.00000000000001</ele><time>2026-04-07T15:54:01.029Z</time></trkpt><trkpt lat="43.64093179451609" lon="11.166623900890306"><ele>113.0</ele><time>2026-04-07T15:54:03.029Z</time></trkpt><trkpt lat="43.6409790746917" lon="11.166565849849125"><ele>113.0</ele><time>2026-04-07T15:54:04.029Z</time></trkpt><trkpt lat="43.64106128273551" lon="11.166450264064729"><ele>112.75</ele><time>2026-04-07T15:54:06.029Z</time></trkpt><trkpt lat="43.64120814292435" lon="11.16628953915813"><ele>112.5</ele><time>2026-04-07T15:54:09.029Z</time></trkpt><trkpt lat="43.641305524252985" lon="11.166189545512601"><ele>112.25</ele><time>2026-04-07T15:54:11.029Z</time></trkpt><trkpt lat="43.64135985140684" lon="11.166142574391744"><ele>112.0</ele><time>2026-04-07T15:54:12.029Z</time></trkpt><trkpt lat="43.64146209603758" lon="11.166038406822802"><ele>112.0</ele><time>2026-04-07T15:54:14.029Z</time></trkpt><trkpt lat="43.64156421462288" lon="11.165946380704764"><ele>111.99999999999999</ele><time>2026-04-07T15:54:16.029Z</time></trkpt><trkpt lat="43.641619951512276" lon="11.165899973786766"><ele>111.99999999999999</ele><time>2026-04-07T15:54:17.029Z</time></trkpt><trkpt lat="43.641715936149616" lon="11.165818281084759"><ele>112.0</ele><time>2026-04-07T15:54:19.028Z</time></trkpt><trkpt lat="43.64181229361631" lon="11.1657479449434"><ele>112.0</ele><time>2026-04-07T15:54:21.029Z</time></trkpt><trkpt lat="43.64192027162424" lon="11.165681520290358"><ele>112.19999999999999</ele><time>2026-04-07T15:54:23.029Z</time></trkpt><trkpt lat="43.64202312638698" lon="11.165622066599102"><ele>112.39999999999999</ele><time>2026-04-07T15:54:25.029Z</time></trkpt><trkpt lat="43.64212330226206" lon="11.165561116668231"><ele>112.60000000000001</ele><time>2026-04-07T15:54:27.029Z</time></trkpt><trkpt lat="43.642226357039306" lon="11.165510408836797"><ele>112.80000000000001</ele><time>2026-04-07T15:54:29.029Z</time></trkpt><trkpt lat="43.64233055089733" lon="11.165445897416252"><ele>113.0</ele><time>2026-04-07T15:54:31.029Z</time></trkpt><trkpt lat="43.64243578814079" lon="11.165390099799222"><ele>113.0</ele><time>2026-04-07T15:54:33.029Z</time></trkpt><trkpt lat="43.64255060986208" lon="11.165339729629554"><ele>113.00000000000001</ele><time>2026-04-07T15:54:35.03Z</time></trkpt><trkpt lat="43.642646195791876" lon="11.165287222264013"><ele>113.00000000000001</ele><time>2026-04-07T15:54:37.03Z</time></trkpt><trkpt lat="43.64276228756947" lon="11.165243032555637"><ele>113.0</ele><time>2026-04-07T15:54:39.03Z</time></trkpt><trkpt lat="43.6428213800526" lon="11.165201605816902"><ele>113.0</ele><time>2026-04-07T15:54:40.03Z</time></trkpt><trkpt lat="43.642880031697565" lon="11.165162506028304"><ele>112.99999999999999</ele><time>2026-04-07T15:54:41.03Z</time></trkpt><trkpt lat="43.64294461224723" lon="11.165131977563535"><ele>113.0</ele><time>2026-04-07T15:54:42.03Z</time></trkpt><trkpt lat="43.643004347958346" lon="11.165102456405595"><ele>113.0</ele><time>2026-04-07T15:54:43.03Z</time></trkpt><trkpt lat="43.64306749574135" lon="11.16506644785122"><ele>113.0</ele><time>2026-04-07T15:54:44.03Z</time></trkpt><trkpt lat="43.64313472427057" lon="11.1650417464318"><ele>112.99999999999999</ele><time>2026-04-07T15:54:45.03Z</time></trkpt><trkpt lat="43.64319586331345" lon="11.165019949357198"><ele>113.0</ele><time>2026-04-07T15:54:46.03Z</time></trkpt><trkpt lat="43.64331159024467" lon="11.16498428736271"><ele>112.99999999999999</ele><time>2026-04-07T15:54:48.03Z</time></trkpt><trkpt lat="43.64337395618747" lon="11.164958573871282"><ele>113.0</ele><time>2026-04-07T15:54:49.03Z</time></trkpt><trkpt lat="43.643435259042796" lon="11.164929187232845"><ele>113.0</ele><time>2026-04-07T15:54:50.03Z</time></trkpt><trkpt lat="43.64353871870011" lon="11.164870966357986"><ele>113.0</ele><time>2026-04-07T15:54:52.03Z</time></trkpt><trkpt lat="43.64364756467315" lon="11.164785973733444"><ele>112.99999999999999</ele><time>2026-04-07T15:54:54.03Z</time></trkpt><trkpt lat="43.643703673667794" lon="11.16473552216116"><ele>113.0</ele><time>2026-04-07T15:54:55.03Z</time></trkpt><trkpt lat="43.64380234974036" lon="11.164648914953576"><ele>112.80000000000001</ele><time>2026-04-07T15:54:57.03Z</time></trkpt><trkpt lat="43.64392423278645" lon="11.164595002615185"><ele>112.60000000000001</ele><time>2026-04-07T15:54:59.03Z</time></trkpt><trkpt lat="43.644040714868595" lon="11.164572929821711"><ele>112.39999999999999</ele><time>2026-04-07T15:55:01.03Z</time></trkpt><trkpt lat="43.644164008876" lon="11.16454395594268"><ele>112.19999999999999</ele><time>2026-04-07T15:55:03.03Z</time></trkpt><trkpt lat="43.64422615986692" lon="11.164528649613116"><ele>112.0</ele><time>2026-04-07T15:55:04.03Z</time></trkpt><trkpt lat="43.64434726212728" lon="11.16450278955064"><ele>112.0</ele><time>2026-04-07T15:55:06.03Z</time></trkpt><trkpt lat="43.644460036424654" lon="11.164468803763137"><ele>111.99999999999999</ele><time>2026-04-07T15:55:08.03Z</time></trkpt><trkpt lat="43.64457588650317" lon="11.164440392238019"><ele>111.99999999999999</ele><time>2026-04-07T15:55:10.03Z</time></trkpt><trkpt lat="43.644639652378146" lon="11.164429796314415"><ele>112.0</ele><time>2026-04-07T15:55:11.03Z</time></trkpt><trkpt lat="43.644752570988445" lon="11.164405339622162"><ele>112.0</ele><time>2026-04-07T15:55:13.03Z</time></trkpt><trkpt lat="43.64487116732072" lon="11.164383676625"><ele>112.0</ele><time>2026-04-07T15:55:15.03Z</time></trkpt><trkpt lat="43.644983600168246" lon="11.164377534583505"><ele>111.99999999999999</ele><time>2026-04-07T15:55:17.03Z</time></trkpt><trkpt lat="43.645078594789304" lon="11.164369904505328"><ele>111.99999999999999</ele><time>2026-04-07T15:55:19.03Z</time></trkpt><trkpt lat="43.645172401334015" lon="11.164364242396736"><ele>112.0</ele><time>2026-04-07T15:55:21.03Z</time></trkpt><trkpt lat="43.645267190643466" lon="11.164351327652621"><ele>112.0</ele><time>2026-04-07T15:55:23.03Z</time></trkpt><trkpt lat="43.64535876329922" lon="11.164338662747044"><ele>112.33333333333334</ele><time>2026-04-07T15:55:25.03Z</time></trkpt><trkpt lat="43.64544552720008" lon="11.164326559147781"><ele>112.66666666666667</ele><time>2026-04-07T15:55:27.03Z</time></trkpt><trkpt lat="43.645557233330955" lon="11.164325662001039"><ele>113.0</ele><time>2026-04-07T15:55:29.03Z</time></trkpt><trkpt lat="43.6456373335609" lon="11.164326669812189"><ele>113.33333333333334</ele><time>2026-04-07T15:55:31.03Z</time></trkpt><trkpt lat="43.645677799310626" lon="11.16439784545713"><ele>113.66666666666667</ele><time>2026-04-07T15:55:33.03Z</time></trkpt><trkpt lat="43.6457034691134" lon="11.164484031053153"><ele>114.0</ele><time>2026-04-07T15:55:35.03Z</time></trkpt><trkpt lat="43.64572602775736" lon="11.164605116939569"><ele>114.0</ele><time>2026-04-07T15:55:38.03Z</time></trkpt><trkpt lat="43.645798166239835" lon="11.16466131346102"><ele>114.0</ele><time>2026-04-07T15:55:59.031Z</time></trkpt><trkpt lat="43.64586657286328" lon="11.164630886009041"><ele>114.0</ele><time>2026-04-07T15:56:02.031Z</time></trkpt><trkpt lat="43.64589171353039" lon="11.164519030067181"><ele>114.0</ele><time>2026-04-07T15:56:05.031Z</time></trkpt><trkpt lat="43.64591260500488" lon="11.164404754954035"><ele>114.0</ele><time>2026-04-07T15:56:07.031Z</time></trkpt><trkpt lat="43.645969201472" lon="11.16423677370819"><ele>114.0</ele><time>2026-04-07T15:56:09.031Z</time></trkpt><trkpt lat="43.64602880208588" lon="11.164183491897534"><ele>113.99999999999999</ele><time>2026-04-07T15:56:10.031Z</time></trkpt><trkpt lat="43.646100189522905" lon="11.164161067016424"><ele>114.0</ele><time>2026-04-07T15:56:11.031Z</time></trkpt><trkpt lat="43.64617453539587" lon="11.164167159427542"><ele>114.0</ele><time>2026-04-07T15:56:12.031Z</time></trkpt><trkpt lat="43.646245232891914" lon="11.16416513089996"><ele>113.99999999999999</ele><time>2026-04-07T15:56:13.031Z</time></trkpt><trkpt lat="43.64632385098964" lon="11.16416026808698"><ele>114.0</ele><time>2026-04-07T15:56:14.031Z</time></trkpt><trkpt lat="43.64640215530759" lon="11.164149190204665"><ele>114.0</ele><time>2026-04-07T15:56:15.031Z</time></trkpt><trkpt lat="43.64646995571177" lon="11.164126381660541"><ele>113.85714285714285</ele><time>2026-04-07T15:56:16.031Z</time></trkpt><trkpt lat="43.64654820198907" lon="11.164104328007685"><ele>113.7142857142857</ele><time>2026-04-07T15:56:17.031Z</time></trkpt><trkpt lat="43.64661976650055" lon="11.16407658729227"><ele>113.57142857142857</ele><time>2026-04-07T15:56:18.031Z</time></trkpt><trkpt lat="43.64668964568536" lon="11.164039904680653"><ele>113.42857142857142</ele><time>2026-04-07T15:56:19.031Z</time></trkpt><trkpt lat="43.646751882710745" lon="11.16398974697842"><ele>113.28571428571428</ele><time>2026-04-07T15:56:20.031Z</time></trkpt><trkpt lat="43.64681238877339" lon="11.16394334769839"><ele>113.14285714285714</ele><time>2026-04-07T15:56:21.031Z</time></trkpt><trkpt lat="43.646874331146826" lon="11.163890645925981"><ele>113.0</ele><time>2026-04-07T15:56:22.031Z</time></trkpt><trkpt lat="43.64692957807407" lon="11.163837624295608"><ele>112.85714285714286</ele><time>2026-04-07T15:56:23.031Z</time></trkpt><trkpt lat="43.646991380903664" lon="11.163787157265782"><ele>112.71428571428571</ele><time>2026-04-07T15:56:24.031Z</time></trkpt><trkpt lat="43.64704379191583" lon="11.163732615980075"><ele>112.57142857142857</ele><time>2026-04-07T15:56:25.03Z</time></trkpt><trkpt lat="43.64709877308013" lon="11.16368196250291"><ele>112.42857142857143</ele><time>2026-04-07T15:56:26.03Z</time></trkpt><trkpt lat="43.6471663583037" lon="11.163626811955885"><ele>112.28571428571428</ele><time>2026-04-07T15:56:27.03Z</time></trkpt><trkpt lat="43.64722633868279" lon="11.163569126305484"><ele>112.14285714285714</ele><time>2026-04-07T15:56:28.03Z</time></trkpt><trkpt lat="43.647284339405715" lon="11.163521147672503"><ele>112.0</ele><time>2026-04-07T15:56:29.03Z</time></trkpt><trkpt lat="43.64734011037963" lon="11.163467864974054"><ele>112.00000000000001</ele><time>2026-04-07T15:56:30.03Z</time></trkpt><trkpt lat="43.64739616730841" lon="11.163417427226367"><ele>112.0</ele><time>2026-04-07T15:56:31.03Z</time></trkpt><trkpt lat="43.64749903764507" lon="11.163329002229094"><ele>112.0</ele><time>2026-04-07T15:56:33.03Z</time></trkpt><trkpt lat="43.64754785008937" lon="11.163269587907296"><ele>112.0</ele><time>2026-04-07T15:56:34.03Z</time></trkpt><trkpt lat="43.64760152394727" lon="11.163206163765542"><ele>112.00000000000001</ele><time>2026-04-07T15:56:35.03Z</time></trkpt><trkpt lat="43.64765349437578" lon="11.16314354678442"><ele>112.0</ele><time>2026-04-07T15:56:36.03Z</time></trkpt><trkpt lat="43.64770348672254" lon="11.163084545037085"><ele>112.00000000000001</ele><time>2026-04-07T15:56:37.03Z</time></trkpt><trkpt lat="43.64775589126082" lon="11.163024237207008"><ele>112.0</ele><time>2026-04-07T15:56:38.03Z</time></trkpt><trkpt lat="43.647805018125375" lon="11.162967203778297"><ele>112.0</ele><time>2026-04-07T15:56:39.03Z</time></trkpt><trkpt lat="43.64785338228886" lon="11.162908439747962"><ele>112.0</ele><time>2026-04-07T15:56:40.03Z</time></trkpt><trkpt lat="43.64790001217835" lon="11.162847283514"><ele>112.00000000000001</ele><time>2026-04-07T15:56:41.03Z</time></trkpt><trkpt lat="43.6479486425222" lon="11.162782286048147"><ele>112.0</ele><time>2026-04-07T15:56:42.03Z</time></trkpt><trkpt lat="43.64804461775146" lon="11.162671048397172"><ele>112.0</ele><time>2026-04-07T15:56:44.03Z</time></trkpt><trkpt lat="43.64813257276752" lon="11.162543281426323"><ele>111.99999999999999</ele><time>2026-04-07T15:56:46.03Z</time></trkpt><trkpt lat="43.64818098714665" lon="11.16248155131808"><ele>111.99999999999999</ele><time>2026-04-07T15:56:47.03Z</time></trkpt><trkpt lat="43.64825526997696" lon="11.162336123793462"><ele>112.0</ele><time>2026-04-07T15:56:49.03Z</time></trkpt><trkpt lat="43.64829937921579" lon="11.162272466605117"><ele>112.0</ele><time>2026-04-07T15:56:50.03Z</time></trkpt><trkpt lat="43.64839622644671" lon="11.162162509241332"><ele>111.6</ele><time>2026-04-07T15:56:52.03Z</time></trkpt><trkpt lat="43.64848498465876" lon="11.162042267367573"><ele>111.19999999999999</ele><time>2026-04-07T15:56:54.03Z</time></trkpt><trkpt lat="43.64857291710712" lon="11.161911692736888"><ele>110.8</ele><time>2026-04-07T15:56:56.03Z</time></trkpt><trkpt lat="43.64864672765385" lon="11.161769009846743"><ele>110.4</ele><time>2026-04-07T15:56:58.031Z</time></trkpt><trkpt lat="43.64868587685914" lon="11.161697933162701"><ele>110.0</ele><time>2026-04-07T15:56:59.031Z</time></trkpt><trkpt lat="43.64872351665452" lon="11.161628125191337"><ele>109.99999999999999</ele><time>2026-04-07T15:57:00.031Z</time></trkpt><trkpt lat="43.648760255293475" lon="11.161553348779227"><ele>110.0</ele><time>2026-04-07T15:57:01.031Z</time></trkpt><trkpt lat="43.64878924035734" lon="11.16147607183144"><ele>110.0</ele><time>2026-04-07T15:57:02.031Z</time></trkpt><trkpt lat="43.648827012572475" lon="11.161401897047076"><ele>110.0</ele><time>2026-04-07T15:57:03.031Z</time></trkpt><trkpt lat="43.648863541600825" lon="11.161328287441943"><ele>110.0</ele><time>2026-04-07T15:57:04.031Z</time></trkpt><trkpt lat="43.648900492397885" lon="11.161248645562504"><ele>109.99999999999999</ele><time>2026-04-07T15:57:05.031Z</time></trkpt><trkpt lat="43.64893257804004" lon="11.161173218770347"><ele>110.0</ele><time>2026-04-07T15:57:06.031Z</time></trkpt><trkpt lat="43.64897146525838" lon="11.16109696670431"><ele>109.83333333333333</ele><time>2026-04-07T15:57:07.031Z</time></trkpt><trkpt lat="43.649006903253024" lon="11.161023209143089"><ele>109.66666666666666</ele><time>2026-04-07T15:57:08.031Z</time></trkpt><trkpt lat="43.6490775989835" lon="11.160873587437125"><ele>109.5</ele><time>2026-04-07T15:57:10.031Z</time></trkpt><trkpt lat="43.649119891845785" lon="11.160802154455972"><ele>109.33333333333334</ele><time>2026-04-07T15:57:11.031Z</time></trkpt><trkpt lat="43.64915427345869" lon="11.160726036630978"><ele>109.16666666666667</ele><time>2026-04-07T15:57:12.031Z</time></trkpt><trkpt lat="43.649193513400675" lon="11.16065192502911"><ele>109.0</ele><time>2026-04-07T15:57:13.031Z</time></trkpt><trkpt lat="43.649232223240645" lon="11.160576444845162"><ele>108.83333333333334</ele><time>2026-04-07T15:57:14.031Z</time></trkpt><trkpt lat="43.64926837109037" lon="11.160501325092394"><ele>108.66666666666667</ele><time>2026-04-07T15:57:15.031Z</time></trkpt><trkpt lat="43.649308297376464" lon="11.16042929055641"><ele>108.5</ele><time>2026-04-07T15:57:16.031Z</time></trkpt><trkpt lat="43.649389279870164" lon="11.160291216445708"><ele>108.33333333333334</ele><time>2026-04-07T15:57:18.031Z</time></trkpt><trkpt lat="43.64946377691253" lon="11.160157581404967"><ele>108.16666666666667</ele><time>2026-04-07T15:57:20.031Z</time></trkpt><trkpt lat="43.64949966880838" lon="11.16008344863239"><ele>108.0</ele><time>2026-04-07T15:57:21.031Z</time></trkpt><trkpt lat="43.64957192633188" lon="11.15994509648314"><ele>107.75</ele><time>2026-04-07T15:57:23.031Z</time></trkpt><trkpt lat="43.649647477235554" lon="11.159809015592279"><ele>107.5</ele><time>2026-04-07T15:57:25.031Z</time></trkpt><trkpt lat="43.64975979687192" lon="11.159614072624725"><ele>107.25</ele><time>2026-04-07T15:57:28.031Z</time></trkpt><trkpt lat="43.64984570731795" lon="11.159487231197513"><ele>107.0</ele><time>2026-04-07T15:57:30.031Z</time></trkpt><trkpt lat="43.64991650826399" lon="11.159355892398594"><ele>107.0</ele><time>2026-04-07T15:57:32.031Z</time></trkpt><trkpt lat="43.64997939912859" lon="11.159222696844813"><ele>107.0</ele><time>2026-04-07T15:57:34.031Z</time></trkpt><trkpt lat="43.65002567467569" lon="11.159074600702288"><ele>107.0</ele><time>2026-04-07T15:57:36.031Z</time></trkpt><trkpt lat="43.65006181521555" lon="11.15892125853629"><ele>107.0</ele><time>2026-04-07T15:57:38.031Z</time></trkpt><trkpt lat="43.650093730158844" lon="11.158753738956449"><ele>107.0</ele><time>2026-04-07T15:57:40.031Z</time></trkpt><trkpt lat="43.650125729813496" lon="11.15860047813912"><ele>106.99999999999999</ele><time>2026-04-07T15:57:42.031Z</time></trkpt><trkpt lat="43.650152850788366" lon="11.158440096215694"><ele>106.99999999999999</ele><time>2026-04-07T15:57:44.031Z</time></trkpt><trkpt lat="43.65017895197051" lon="11.158283955470385"><ele>107.0</ele><time>2026-04-07T15:57:46.031Z</time></trkpt><trkpt lat="43.65018747395035" lon="11.158194407739337"><ele>107.0</ele><time>2026-04-07T15:57:47.031Z</time></trkpt><trkpt lat="43.65021456154047" lon="11.158035701487881"><ele>107.0</ele><time>2026-04-07T15:57:49.031Z</time></trkpt><trkpt lat="43.650242396549544" lon="11.15787648342659"><ele>106.99999999999999</ele><time>2026-04-07T15:57:51.031Z</time></trkpt><trkpt lat="43.65028754170264" lon="11.15772226540674"><ele>106.99999999999999</ele><time>2026-04-07T15:57:53.031Z</time></trkpt><trkpt lat="43.6503509645995" lon="11.157568685522316"><ele>107.0</ele><time>2026-04-07T15:57:55.031Z</time></trkpt><trkpt lat="43.65039921493387" lon="11.157512179667455"><ele>107.0</ele><time>2026-04-07T15:57:56.031Z</time></trkpt><trkpt lat="43.65046932766874" lon="11.157393992624735"><ele>106.83333333333333</ele><time>2026-04-07T15:57:58.031Z</time></trkpt><trkpt lat="43.65051229489512" lon="11.157326250757455"><ele>106.66666666666666</ele><time>2026-04-07T15:57:59.031Z</time></trkpt><trkpt lat="43.65055402781472" lon="11.157259149378804"><ele>106.5</ele><time>2026-04-07T15:58:00.031Z</time></trkpt><trkpt lat="43.65064088217958" lon="11.157133521180082"><ele>106.33333333333334</ele><time>2026-04-07T15:58:02.031Z</time></trkpt><trkpt lat="43.65068571156163" lon="11.157069656939822"><ele>106.16666666666667</ele><time>2026-04-07T15:58:03.031Z</time></trkpt><trkpt lat="43.6507238913038" lon="11.156999853090662"><ele>106.0</ele><time>2026-04-07T15:58:04.031Z</time></trkpt><trkpt lat="43.65081118949235" lon="11.156876848465092"><ele>106.00000000000001</ele><time>2026-04-07T15:58:06.031Z</time></trkpt><trkpt lat="43.650894048533836" lon="11.15675773833108"><ele>106.0</ele><time>2026-04-07T15:58:08.031Z</time></trkpt><trkpt lat="43.65093630177496" lon="11.156692059786982"><ele>106.0</ele><time>2026-04-07T15:58:09.031Z</time></trkpt><trkpt lat="43.65101060710691" lon="11.156552149919593"><ele>106.0</ele><time>2026-04-07T15:58:11.031Z</time></trkpt><trkpt lat="43.65104543193566" lon="11.156470026098878"><ele>106.00000000000001</ele><time>2026-04-07T15:58:12.031Z</time></trkpt><trkpt lat="43.65108094140402" lon="11.156388934289204"><ele>106.0</ele><time>2026-04-07T15:58:13.031Z</time></trkpt><trkpt lat="43.65111642352605" lon="11.156312796568555"><ele>106.19999999999999</ele><time>2026-04-07T15:58:14.031Z</time></trkpt><trkpt lat="43.65115639861099" lon="11.15614343211563"><ele>106.39999999999999</ele><time>2026-04-07T15:58:16.031Z</time></trkpt><trkpt lat="43.651173630498754" lon="11.156050962693028"><ele>106.6</ele><time>2026-04-07T15:58:17.032Z</time></trkpt><trkpt lat="43.65120167980353" lon="11.155960495465381"><ele>106.8</ele><time>2026-04-07T15:58:18.032Z</time></trkpt><trkpt lat="43.65128329320692" lon="11.155818617381787"><ele>107.0</ele><time>2026-04-07T15:58:20.032Z</time></trkpt><trkpt lat="43.651328919194306" lon="11.155750024838575"><ele>106.8</ele><time>2026-04-07T15:58:21.032Z</time></trkpt><trkpt lat="43.651430362431505" lon="11.155646046358644"><ele>106.6</ele><time>2026-04-07T15:58:23.032Z</time></trkpt><trkpt lat="43.65148025163813" lon="11.155582049065044"><ele>106.39999999999999</ele><time>2026-04-07T15:58:24.032Z</time></trkpt><trkpt lat="43.651532551975144" lon="11.155529396178261"><ele>106.19999999999999</ele><time>2026-04-07T15:58:25.032Z</time></trkpt><trkpt lat="43.65163417438893" lon="11.155437029029759"><ele>106.0</ele><time>2026-04-07T15:58:27.032Z</time></trkpt><trkpt lat="43.651736311104116" lon="11.155338111343058"><ele>106.0</ele><time>2026-04-07T15:58:29.032Z</time></trkpt><trkpt lat="43.651832345768554" lon="11.155238100636192"><ele>106.0</ele><time>2026-04-07T15:58:31.032Z</time></trkpt><trkpt lat="43.65192663115531" lon="11.155137536073523"><ele>106.0</ele><time>2026-04-07T15:58:33.031Z</time></trkpt><trkpt lat="43.652024422354714" lon="11.155029197459605"><ele>106.0</ele><time>2026-04-07T15:58:35.032Z</time></trkpt><trkpt lat="43.65209879914384" lon="11.154892791616144"><ele>106.0</ele><time>2026-04-07T15:58:37.032Z</time></trkpt><trkpt lat="43.65212632057636" lon="11.154814502708236"><ele>106.0</ele><time>2026-04-07T15:58:38.032Z</time></trkpt><trkpt lat="43.65217085831526" lon="11.154658726000935"><ele>106.0</ele><time>2026-04-07T15:58:40.031Z</time></trkpt><trkpt lat="43.65223310552897" lon="11.154522846066149"><ele>106.0</ele><time>2026-04-07T15:58:42.032Z</time></trkpt><trkpt lat="43.652302455899644" lon="11.154384817545244"><ele>106.0</ele><time>2026-04-07T15:58:44.032Z</time></trkpt><trkpt lat="43.65240069469725" lon="11.154274584683133"><ele>106.0</ele><time>2026-04-07T15:58:46.032Z</time></trkpt><trkpt lat="43.65250374801753" lon="11.154210749906257"><ele>106.0</ele><time>2026-04-07T15:58:48.032Z</time></trkpt><trkpt lat="43.65260529824551" lon="11.154123362529997"><ele>106.0</ele><time>2026-04-07T15:58:50.032Z</time></trkpt><trkpt lat="43.65270627887041" lon="11.154045944073124"><ele>106.0</ele><time>2026-04-07T15:58:52.032Z</time></trkpt><trkpt lat="43.652759431640476" lon="11.153995641160353"><ele>106.0</ele><time>2026-04-07T15:58:53.032Z</time></trkpt><trkpt lat="43.652841151412716" lon="11.153884341777589"><ele>105.4</ele><time>2026-04-07T15:58:55.032Z</time></trkpt><trkpt lat="43.65292954009537" lon="11.153767222659658"><ele>104.8</ele><time>2026-04-07T15:58:57.032Z</time></trkpt><trkpt lat="43.65298736596434" lon="11.153628467011584"><ele>104.2</ele><time>2026-04-07T15:58:59.032Z</time></trkpt><trkpt lat="43.653043376306854" lon="11.153473839528322"><ele>103.60000000000001</ele><time>2026-04-07T15:59:01.032Z</time></trkpt><trkpt lat="43.653066946880415" lon="11.153390441606547"><ele>103.0</ele><time>2026-04-07T15:59:02.032Z</time></trkpt><trkpt lat="43.65312583649442" lon="11.153248138828769"><ele>102.60000000000001</ele><time>2026-04-07T15:59:04.032Z</time></trkpt><trkpt lat="43.653172627715776" lon="11.15310009507065"><ele>102.2</ele><time>2026-04-07T15:59:06.032Z</time></trkpt><trkpt lat="43.653218542660376" lon="11.152957207830807"><ele>101.8</ele><time>2026-04-07T15:59:08.032Z</time></trkpt><trkpt lat="43.65328362621054" lon="11.152823792970432"><ele>101.4</ele><time>2026-04-07T15:59:10.032Z</time></trkpt><trkpt lat="43.653323220062134" lon="11.15275259191405"><ele>101.0</ele><time>2026-04-07T15:59:11.032Z</time></trkpt><trkpt lat="43.65340945400273" lon="11.152634439576529"><ele>101.0</ele><time>2026-04-07T15:59:13.032Z</time></trkpt><trkpt lat="43.653488064872676" lon="11.152519948324306"><ele>101.0</ele><time>2026-04-07T15:59:15.032Z</time></trkpt><trkpt lat="43.65356460316125" lon="11.152404822136345"><ele>101.0</ele><time>2026-04-07T15:59:17.032Z</time></trkpt><trkpt lat="43.6536478278767" lon="11.152290626673333"><ele>101.0</ele><time>2026-04-07T15:59:19.032Z</time></trkpt><trkpt lat="43.653703380253404" lon="11.152156375310597"><ele>101.25</ele><time>2026-04-07T15:59:21.032Z</time></trkpt><trkpt lat="43.65377531851919" lon="11.15203385292093"><ele>101.5</ele><time>2026-04-07T15:59:23.032Z</time></trkpt><trkpt lat="43.65384482359143" lon="11.151899420856925"><ele>101.75</ele><time>2026-04-07T15:59:25.032Z</time></trkpt><trkpt lat="43.65391624967513" lon="11.151762185604788"><ele>102.0</ele><time>2026-04-07T15:59:27.032Z</time></trkpt><trkpt lat="43.65398427175" lon="11.151630339448545"><ele>102.39999999999999</ele><time>2026-04-07T15:59:29.032Z</time></trkpt><trkpt lat="43.65404310328543" lon="11.151503132153925"><ele>102.8</ele><time>2026-04-07T15:59:31.032Z</time></trkpt><trkpt lat="43.65410844599581" lon="11.151389883872808"><ele>103.2</ele><time>2026-04-07T15:59:33.032Z</time></trkpt><trkpt lat="43.654175625610605" lon="11.151275116545595"><ele>103.6</ele><time>2026-04-07T15:59:35.032Z</time></trkpt><trkpt lat="43.65424131917995" lon="11.151165071720554"><ele>104.0</ele><time>2026-04-07T15:59:37.032Z</time></trkpt><trkpt lat="43.65430128746258" lon="11.151049182766394"><ele>104.0</ele><time>2026-04-07T15:59:39.032Z</time></trkpt><trkpt lat="43.65439150724091" lon="11.150959428476208"><ele>104.0</ele><time>2026-04-07T15:59:41.032Z</time></trkpt><trkpt lat="43.65447376150361" lon="11.150872644834845"><ele>104.0</ele><time>2026-04-07T15:59:43.032Z</time></trkpt><trkpt lat="43.65456423634248" lon="11.150813552389575"><ele>104.0</ele><time>2026-04-07T15:59:45.032Z</time></trkpt><trkpt lat="43.65465286370911" lon="11.150742934969283"><ele>104.0</ele><time>2026-04-07T15:59:47.032Z</time></trkpt><trkpt lat="43.654732413968" lon="11.150646820380372"><ele>103.6</ele><time>2026-04-07T15:59:49.033Z</time></trkpt><trkpt lat="43.654819986235054" lon="11.150567269413871"><ele>103.2</ele><time>2026-04-07T15:59:51.033Z</time></trkpt><trkpt lat="43.65489249848443" lon="11.15045294879859"><ele>102.8</ele><time>2026-04-07T15:59:53.033Z</time></trkpt><trkpt lat="43.65497618829942" lon="11.150355623865881"><ele>102.39999999999999</ele><time>2026-04-07T15:59:55.033Z</time></trkpt><trkpt lat="43.65505529120248" lon="11.150253550985957"><ele>102.0</ele><time>2026-04-07T15:59:57.033Z</time></trkpt><trkpt lat="43.655134806842995" lon="11.15015221318592"><ele>102.0</ele><time>2026-04-07T15:59:59.033Z</time></trkpt><trkpt lat="43.65521762197989" lon="11.150040233290515"><ele>102.0</ele><time>2026-04-07T16:00:01.033Z</time></trkpt><trkpt lat="43.65528449980524" lon="11.149921652911917"><ele>102.0</ele><time>2026-04-07T16:00:03.033Z</time></trkpt><trkpt lat="43.655368961810595" lon="11.149807191407335"><ele>102.0</ele><time>2026-04-07T16:00:05.033Z</time></trkpt><trkpt lat="43.65545129500063" lon="11.14969763922317"><ele>101.25</ele><time>2026-04-07T16:00:07.033Z</time></trkpt><trkpt lat="43.65554844276558" lon="11.149624533716906"><ele>100.5</ele><time>2026-04-07T16:00:09.033Z</time></trkpt><trkpt lat="43.65564640506786" lon="11.149544248739687"><ele>99.75</ele><time>2026-04-07T16:00:11.033Z</time></trkpt><trkpt lat="43.65573868542948" lon="11.14944901073882"><ele>99.0</ele><time>2026-04-07T16:00:13.033Z</time></trkpt><trkpt lat="43.65582576312407" lon="11.149350226872334"><ele>99.0</ele><time>2026-04-07T16:00:15.033Z</time></trkpt><trkpt lat="43.655924910965716" lon="11.149247770104257"><ele>99.0</ele><time>2026-04-07T16:00:17.033Z</time></trkpt><trkpt lat="43.65597159207332" lon="11.149188324163326"><ele>99.0</ele><time>2026-04-07T16:00:18.033Z</time></trkpt><trkpt lat="43.656066761607065" lon="11.149085156732298"><ele>99.0</ele><time>2026-04-07T16:00:20.033Z</time></trkpt><trkpt lat="43.65616492985926" lon="11.148994795080004"><ele>99.0</ele><time>2026-04-07T16:00:22.033Z</time></trkpt><trkpt lat="43.65627208155972" lon="11.148906966505834"><ele>99.0</ele><time>2026-04-07T16:00:24.033Z</time></trkpt><trkpt lat="43.65635382860578" lon="11.14879246868486"><ele>99.0</ele><time>2026-04-07T16:00:26.033Z</time></trkpt><trkpt lat="43.656430985578844" lon="11.148667380679317"><ele>99.0</ele><time>2026-04-07T16:00:28.033Z</time></trkpt><trkpt lat="43.65650878815959" lon="11.148546076725504"><ele>99.0</ele><time>2026-04-07T16:00:30.033Z</time></trkpt><trkpt lat="43.656601211347756" lon="11.148447569371534"><ele>99.0</ele><time>2026-04-07T16:00:32.033Z</time></trkpt><trkpt lat="43.65669670908964" lon="11.148357174346929"><ele>99.0</ele><time>2026-04-07T16:00:34.033Z</time></trkpt><trkpt lat="43.65678218822981" lon="11.148240273960392"><ele>99.0</ele><time>2026-04-07T16:00:36.033Z</time></trkpt><trkpt lat="43.65685947145197" lon="11.148123599313418"><ele>99.0</ele><time>2026-04-07T16:00:38.032Z</time></trkpt><trkpt lat="43.656899043589405" lon="11.148052753781755"><ele>99.0</ele><time>2026-04-07T16:00:39.032Z</time></trkpt><trkpt lat="43.65693987159661" lon="11.147885860223296"><ele>99.0</ele><time>2026-04-07T16:00:41.033Z</time></trkpt><trkpt lat="43.65696812079178" lon="11.147727418579272"><ele>99.0</ele><time>2026-04-07T16:00:43.033Z</time></trkpt><trkpt lat="43.65699452923437" lon="11.147567792758784"><ele>99.0</ele><time>2026-04-07T16:00:45.033Z</time></trkpt><trkpt lat="43.65701953310449" lon="11.147410764652916"><ele>99.0</ele><time>2026-04-07T16:00:47.033Z</time></trkpt><trkpt lat="43.65705423032514" lon="11.147263948267351"><ele>98.80000000000001</ele><time>2026-04-07T16:00:49.033Z</time></trkpt><trkpt lat="43.657071145437044" lon="11.147104900511627"><ele>98.60000000000001</ele><time>2026-04-07T16:00:51.032Z</time></trkpt><trkpt lat="43.65708599402812" lon="11.146963722559741"><ele>98.4</ele><time>2026-04-07T16:00:53.032Z</time></trkpt><trkpt lat="43.65710837713058" lon="11.146831475883213"><ele>98.2</ele><time>2026-04-07T16:00:55.032Z</time></trkpt><trkpt lat="43.657132123193676" lon="11.146703903172469"><ele>98.0</ele><time>2026-04-07T16:00:57.033Z</time></trkpt><trkpt lat="43.65715501629063" lon="11.14656423476368"><ele>98.0</ele><time>2026-04-07T16:00:59.033Z</time></trkpt><trkpt lat="43.65718275203656" lon="11.146439513152176"><ele>98.0</ele><time>2026-04-07T16:01:01.033Z</time></trkpt><trkpt lat="43.65723729984268" lon="11.146308018369638"><ele>98.0</ele><time>2026-04-07T16:01:03.033Z</time></trkpt><trkpt lat="43.65728083370592" lon="11.146148326346774"><ele>98.0</ele><time>2026-04-07T16:01:05.033Z</time></trkpt><trkpt lat="43.65729322197727" lon="11.145988957932321"><ele>98.0</ele><time>2026-04-07T16:01:07.033Z</time></trkpt><trkpt lat="43.657292945974824" lon="11.14585334466134"><ele>98.2</ele><time>2026-04-07T16:01:09.033Z</time></trkpt><trkpt lat="43.65730917265842" lon="11.145709035004204"><ele>98.4</ele><time>2026-04-07T16:01:11.033Z</time></trkpt><trkpt lat="43.657298491112556" lon="11.14557245404696"><ele>98.60000000000001</ele><time>2026-04-07T16:01:13.033Z</time></trkpt><trkpt lat="43.65728859087574" lon="11.14543119569071"><ele>98.80000000000001</ele><time>2026-04-07T16:01:15.033Z</time></trkpt><trkpt lat="43.65732912030183" lon="11.14530833561779"><ele>99.0</ele><time>2026-04-07T16:01:17.033Z</time></trkpt><trkpt lat="43.65738343822975" lon="11.14521274988101"><ele>99.0</ele><time>2026-04-07T16:01:19.033Z</time></trkpt><trkpt lat="43.657427357000046" lon="11.145096662632488"><ele>99.0</ele><time>2026-04-07T16:01:21.033Z</time></trkpt><trkpt lat="43.657456326163064" lon="11.144972323651633"><ele>99.0</ele><time>2026-04-07T16:01:23.033Z</time></trkpt><trkpt lat="43.657497396780286" lon="11.144859054059648"><ele>99.0</ele><time>2026-04-07T16:01:25.033Z</time></trkpt><trkpt lat="43.6575538715298" lon="11.14476237855834"><ele>99.0</ele><time>2026-04-07T16:01:27.033Z</time></trkpt><trkpt lat="43.65760681855575" lon="11.144656883017705"><ele>98.80000000000001</ele><time>2026-04-07T16:01:29.033Z</time></trkpt><trkpt lat="43.65767351861174" lon="11.144560281645381"><ele>98.60000000000001</ele><time>2026-04-07T16:01:31.033Z</time></trkpt><trkpt lat="43.65774369787971" lon="11.144473835738397"><ele>98.4</ele><time>2026-04-07T16:01:33.033Z</time></trkpt><trkpt lat="43.65782186615602" lon="11.144386508660686"><ele>98.2</ele><time>2026-04-07T16:01:35.033Z</time></trkpt><trkpt lat="43.657902796600894" lon="11.144302035243259"><ele>98.0</ele><time>2026-04-07T16:01:37.033Z</time></trkpt><trkpt lat="43.65799492070282" lon="11.14422453947888"><ele>98.0</ele><time>2026-04-07T16:01:39.033Z</time></trkpt><trkpt lat="43.658066703031814" lon="11.144127062961518"><ele>98.0</ele><time>2026-04-07T16:01:41.033Z</time></trkpt><trkpt lat="43.658140635763836" lon="11.14403603484175"><ele>98.0</ele><time>2026-04-07T16:01:43.033Z</time></trkpt><trkpt lat="43.65819988539793" lon="11.143934185342237"><ele>98.0</ele><time>2026-04-07T16:01:45.033Z</time></trkpt><trkpt lat="43.65826630650359" lon="11.14383442950476"><ele>98.0</ele><time>2026-04-07T16:01:47.033Z</time></trkpt><trkpt lat="43.658323845359455" lon="11.143735986026062"><ele>98.0</ele><time>2026-04-07T16:01:49.033Z</time></trkpt><trkpt lat="43.65838817676104" lon="11.143623458240882"><ele>98.0</ele><time>2026-04-07T16:01:51.033Z</time></trkpt><trkpt lat="43.6584506398441" lon="11.14351794097903"><ele>98.0</ele><time>2026-04-07T16:01:53.033Z</time></trkpt><trkpt lat="43.65852005316413" lon="11.14342194703636"><ele>98.0</ele><time>2026-04-07T16:01:55.033Z</time></trkpt><trkpt lat="43.65861193004169" lon="11.143367299945773"><ele>98.0</ele><time>2026-04-07T16:01:57.033Z</time></trkpt><trkpt lat="43.658707752166734" lon="11.143318522204803"><ele>97.80000000000001</ele><time>2026-04-07T16:01:59.033Z</time></trkpt><trkpt lat="43.658793314997844" lon="11.143254395507654"><ele>97.6</ele><time>2026-04-07T16:02:01.033Z</time></trkpt><trkpt lat="43.65887672451748" lon="11.143179391962112"><ele>97.4</ele><time>2026-04-07T16:02:03.033Z</time></trkpt><trkpt lat="43.65895640029252" lon="11.14308620377369"><ele>97.19999999999999</ele><time>2026-04-07T16:02:05.033Z</time></trkpt><trkpt lat="43.659034632707346" lon="11.142985666011654"><ele>97.0</ele><time>2026-04-07T16:02:07.033Z</time></trkpt><trkpt lat="43.659117361817465" lon="11.142885381846073"><ele>96.8</ele><time>2026-04-07T16:02:09.033Z</time></trkpt><trkpt lat="43.6591895009092" lon="11.142782366674426"><ele>96.6</ele><time>2026-04-07T16:02:11.033Z</time></trkpt><trkpt lat="43.659264572232374" lon="11.142698147829696"><ele>96.39999999999999</ele><time>2026-04-07T16:02:13.033Z</time></trkpt><trkpt lat="43.65933445901491" lon="11.142612946075115"><ele>96.19999999999999</ele><time>2026-04-07T16:02:15.033Z</time></trkpt><trkpt lat="43.65942070481251" lon="11.142534812804438"><ele>96.0</ele><time>2026-04-07T16:02:17.034Z</time></trkpt><trkpt lat="43.659506124136925" lon="11.142453036743989"><ele>96.0</ele><time>2026-04-07T16:02:19.034Z</time></trkpt><trkpt lat="43.65958905758289" lon="11.14237246202472"><ele>96.0</ele><time>2026-04-07T16:02:21.034Z</time></trkpt><trkpt lat="43.659661330201786" lon="11.142286366937833"><ele>96.0</ele><time>2026-04-07T16:02:23.034Z</time></trkpt><trkpt lat="43.659743755575896" lon="11.142200366014107"><ele>96.0</ele><time>2026-04-07T16:02:25.034Z</time></trkpt><trkpt lat="43.659823026625965" lon="11.142109513092718"><ele>96.0</ele><time>2026-04-07T16:02:27.034Z</time></trkpt><trkpt lat="43.659889016576976" lon="11.142009462021532"><ele>96.0</ele><time>2026-04-07T16:02:29.034Z</time></trkpt><trkpt lat="43.65995680905214" lon="11.141903073553074"><ele>96.0</ele><time>2026-04-07T16:02:31.034Z</time></trkpt><trkpt lat="43.660030997922156" lon="11.141783171222185"><ele>96.0</ele><time>2026-04-07T16:02:33.034Z</time></trkpt><trkpt lat="43.66009563393405" lon="11.141680593959022"><ele>96.0</ele><time>2026-04-07T16:02:35.034Z</time></trkpt><trkpt lat="43.66015739384581" lon="11.141584656378415"><ele>96.0</ele><time>2026-04-07T16:02:37.034Z</time></trkpt><trkpt lat="43.660228184510515" lon="11.141488005874569"><ele>95.8</ele><time>2026-04-07T16:02:39.034Z</time></trkpt><trkpt lat="43.66030211524155" lon="11.141395694370406"><ele>95.6</ele><time>2026-04-07T16:02:41.034Z</time></trkpt><trkpt lat="43.66038090615138" lon="11.141299289645788"><ele>95.4</ele><time>2026-04-07T16:02:43.034Z</time></trkpt><trkpt lat="43.66046879716289" lon="11.141211758145717"><ele>95.2</ele><time>2026-04-07T16:02:45.033Z</time></trkpt><trkpt lat="43.6605542169948" lon="11.141120672424886"><ele>95.0</ele><time>2026-04-07T16:02:47.033Z</time></trkpt><trkpt lat="43.6606249782576" lon="11.141014168739583"><ele>95.0</ele><time>2026-04-07T16:02:49.033Z</time></trkpt><trkpt lat="43.66068959472357" lon="11.14093338510074"><ele>95.0</ele><time>2026-04-07T16:02:51.033Z</time></trkpt><trkpt lat="43.660747588765354" lon="11.140832511065444"><ele>95.0</ele><time>2026-04-07T16:02:53.034Z</time></trkpt><trkpt lat="43.66079604772912" lon="11.14072559312216"><ele>95.0</ele><time>2026-04-07T16:02:55.033Z</time></trkpt><trkpt lat="43.66082843184167" lon="11.14060977722441"><ele>95.0</ele><time>2026-04-07T16:02:57.033Z</time></trkpt><trkpt lat="43.660848761869005" lon="11.140493330343856"><ele>95.0</ele><time>2026-04-07T16:02:59.033Z</time></trkpt><trkpt lat="43.660867804758105" lon="11.140374419897597"><ele>94.83333333333334</ele><time>2026-04-07T16:03:01.033Z</time></trkpt><trkpt lat="43.660904399285336" lon="11.14026904519885"><ele>94.66666666666667</ele><time>2026-04-07T16:03:03.033Z</time></trkpt><trkpt lat="43.66094548687082" lon="11.140161624317042"><ele>94.5</ele><time>2026-04-07T16:03:05.033Z</time></trkpt><trkpt lat="43.660960448196256" lon="11.140039758018144"><ele>94.33333333333333</ele><time>2026-04-07T16:03:07.033Z</time></trkpt><trkpt lat="43.66096786468452" lon="11.139918610085761"><ele>94.16666666666666</ele><time>2026-04-07T16:03:09.033Z</time></trkpt><trkpt lat="43.66098701131542" lon="11.139786144043766"><ele>94.0</ele><time>2026-04-07T16:03:11.033Z</time></trkpt><trkpt lat="43.661052409737074" lon="11.139688977411419"><ele>93.4</ele><time>2026-04-07T16:03:13.033Z</time></trkpt><trkpt lat="43.66112394612591" lon="11.139602827902705"><ele>92.80000000000001</ele><time>2026-04-07T16:03:15.033Z</time></trkpt><trkpt lat="43.661191632773985" lon="11.139516042593728"><ele>92.19999999999999</ele><time>2026-04-07T16:03:17.033Z</time></trkpt><trkpt lat="43.661262481478616" lon="11.139428947743792"><ele>91.6</ele><time>2026-04-07T16:03:19.033Z</time></trkpt><trkpt lat="43.661337603904514" lon="11.139354036207322"><ele>91.0</ele><time>2026-04-07T16:03:21.033Z</time></trkpt><trkpt lat="43.66140709379504" lon="11.139281466576767"><ele>91.0</ele><time>2026-04-07T16:03:23.033Z</time></trkpt><trkpt lat="43.66146736937793" lon="11.139207149305351"><ele>91.0</ele><time>2026-04-07T16:03:25.033Z</time></trkpt><trkpt lat="43.661534320392164" lon="11.139132391153828"><ele>91.0</ele><time>2026-04-07T16:03:27.034Z</time></trkpt><trkpt lat="43.661608522337566" lon="11.139065433233982"><ele>91.0</ele><time>2026-04-07T16:03:29.034Z</time></trkpt><trkpt lat="43.6616789046495" lon="11.138984320392892"><ele>91.0</ele><time>2026-04-07T16:03:31.034Z</time></trkpt><trkpt lat="43.66174323709966" lon="11.138900848117514"><ele>91.0</ele><time>2026-04-07T16:03:33.034Z</time></trkpt><trkpt lat="43.6618259458378" lon="11.138836526630955"><ele>91.0</ele><time>2026-04-07T16:03:35.034Z</time></trkpt><trkpt lat="43.66189816488837" lon="11.138753122307254"><ele>91.0</ele><time>2026-04-07T16:03:37.034Z</time></trkpt><trkpt lat="43.661975068921286" lon="11.138679221015796"><ele>91.0</ele><time>2026-04-07T16:03:39.034Z</time></trkpt><trkpt lat="43.66206014979539" lon="11.138604069715088"><ele>91.0</ele><time>2026-04-07T16:03:41.034Z</time></trkpt><trkpt lat="43.662142929230015" lon="11.138527790632333"><ele>91.0</ele><time>2026-04-07T16:03:43.034Z</time></trkpt><trkpt lat="43.66223680283097" lon="11.138458108596673"><ele>91.19999999999999</ele><time>2026-04-07T16:03:45.034Z</time></trkpt><trkpt lat="43.66233150354794" lon="11.138389370589833"><ele>91.39999999999999</ele><time>2026-04-07T16:03:47.034Z</time></trkpt><trkpt lat="43.662428085670825" lon="11.138327876526018"><ele>91.6</ele><time>2026-04-07T16:03:49.034Z</time></trkpt><trkpt lat="43.66251376141624" lon="11.13824985815332"><ele>91.8</ele><time>2026-04-07T16:03:51.034Z</time></trkpt><trkpt lat="43.66260548724768" lon="11.138184532980148"><ele>92.0</ele><time>2026-04-07T16:03:53.034Z</time></trkpt><trkpt lat="43.66269391581501" lon="11.138111572073177"><ele>92.0</ele><time>2026-04-07T16:03:55.034Z</time></trkpt><trkpt lat="43.66277633022642" lon="11.138031974384795"><ele>92.0</ele><time>2026-04-07T16:03:57.034Z</time></trkpt><trkpt lat="43.66286239510009" lon="11.137958896913181"><ele>92.0</ele><time>2026-04-07T16:03:59.034Z</time></trkpt><trkpt lat="43.662956621019376" lon="11.137892894585235"><ele>92.0</ele><time>2026-04-07T16:04:01.034Z</time></trkpt><trkpt lat="43.66304405747701" lon="11.13782284976233"><ele>92.0</ele><time>2026-04-07T16:04:03.034Z</time></trkpt><trkpt lat="43.6631285717414" lon="11.13774935475898"><ele>92.0</ele><time>2026-04-07T16:04:05.034Z</time></trkpt><trkpt lat="43.66321170226262" lon="11.137668813429189"><ele>92.0</ele><time>2026-04-07T16:04:07.034Z</time></trkpt><trkpt lat="43.66330008127516" lon="11.13759177512864"><ele>92.0</ele><time>2026-04-07T16:04:09.034Z</time></trkpt><trkpt lat="43.663393102286776" lon="11.137551199648685"><ele>92.0</ele><time>2026-04-07T16:04:11.034Z</time></trkpt><trkpt lat="43.66350260201169" lon="11.137503911072518"><ele>92.0</ele><time>2026-04-07T16:04:13.034Z</time></trkpt><trkpt lat="43.663610141963936" lon="11.137453788956453"><ele>91.85714285714286</ele><time>2026-04-07T16:04:15.034Z</time></trkpt><trkpt lat="43.66371866463007" lon="11.137386864062586"><ele>91.71428571428571</ele><time>2026-04-07T16:04:17.034Z</time></trkpt><trkpt lat="43.6637761449039" lon="11.13735101122149"><ele>91.57142857142857</ele><time>2026-04-07T16:04:18.034Z</time></trkpt><trkpt lat="43.66383626997325" lon="11.137317736639433"><ele>91.42857142857143</ele><time>2026-04-07T16:04:19.034Z</time></trkpt><trkpt lat="43.6638976453578" lon="11.137282634988518"><ele>91.28571428571428</ele><time>2026-04-07T16:04:20.034Z</time></trkpt><trkpt lat="43.66395495171683" lon="11.137245906271978"><ele>91.14285714285714</ele><time>2026-04-07T16:04:21.034Z</time></trkpt><trkpt lat="43.66401386198706" lon="11.137207659906325"><ele>91.0</ele><time>2026-04-07T16:04:22.034Z</time></trkpt><trkpt lat="43.66411968053239" lon="11.137135525011763"><ele>91.0</ele><time>2026-04-07T16:04:24.034Z</time></trkpt><trkpt lat="43.664222186605286" lon="11.137057305510494"><ele>91.0</ele><time>2026-04-07T16:04:26.034Z</time></trkpt><trkpt lat="43.664308848996065" lon="11.136971199661224"><ele>91.0</ele><time>2026-04-07T16:04:28.034Z</time></trkpt><trkpt lat="43.66441259876873" lon="11.136898966916492"><ele>91.0</ele><time>2026-04-07T16:04:30.034Z</time></trkpt><trkpt lat="43.664501264494675" lon="11.136802618162019"><ele>91.19999999999999</ele><time>2026-04-07T16:04:32.034Z</time></trkpt><trkpt lat="43.66459104858676" lon="11.136709664970105"><ele>91.39999999999999</ele><time>2026-04-07T16:04:34.034Z</time></trkpt><trkpt lat="43.66466599220716" lon="11.13661234194199"><ele>91.6</ele><time>2026-04-07T16:04:36.034Z</time></trkpt><trkpt lat="43.66473987655853" lon="11.136518469154133"><ele>91.8</ele><time>2026-04-07T16:04:38.034Z</time></trkpt><trkpt lat="43.664814495429404" lon="11.136425139008063"><ele>92.0</ele><time>2026-04-07T16:04:40.034Z</time></trkpt><trkpt lat="43.66489076279311" lon="11.136334024324034"><ele>92.0</ele><time>2026-04-07T16:04:42.034Z</time></trkpt><trkpt lat="43.66496832945798" lon="11.136256951853914"><ele>92.0</ele><time>2026-04-07T16:04:44.034Z</time></trkpt><trkpt lat="43.6650465157516" lon="11.13617818068205"><ele>92.0</ele><time>2026-04-07T16:04:46.034Z</time></trkpt><trkpt lat="43.66512067906961" lon="11.136104232407973"><ele>92.0</ele><time>2026-04-07T16:04:48.035Z</time></trkpt><trkpt lat="43.665200279271104" lon="11.136025769471342"><ele>92.0</ele><time>2026-04-07T16:04:50.035Z</time></trkpt><trkpt lat="43.665288169322274" lon="11.13597397793656"><ele>91.8</ele><time>2026-04-07T16:04:52.034Z</time></trkpt><trkpt lat="43.66538730649496" lon="11.135934834664914"><ele>91.6</ele><time>2026-04-07T16:04:54.035Z</time></trkpt><trkpt lat="43.66548525260815" lon="11.135893610519696"><ele>91.39999999999999</ele><time>2026-04-07T16:04:56.035Z</time></trkpt><trkpt lat="43.665584367492684" lon="11.135864338716893"><ele>91.19999999999999</ele><time>2026-04-07T16:04:58.035Z</time></trkpt><trkpt lat="43.66568101787802" lon="11.135829509431957"><ele>91.0</ele><time>2026-04-07T16:05:00.034Z</time></trkpt><trkpt lat="43.665777496986465" lon="11.135789055576838"><ele>91.0</ele><time>2026-04-07T16:05:02.034Z</time></trkpt><trkpt lat="43.66587422313567" lon="11.135761960206038"><ele>91.0</ele><time>2026-04-07T16:05:04.034Z</time></trkpt><trkpt lat="43.66595795733588" lon="11.135751196813372"><ele>91.0</ele><time>2026-04-07T16:05:06.034Z</time></trkpt><trkpt lat="43.66603313550375" lon="11.13572999472364"><ele>91.0</ele><time>2026-04-07T16:05:08.034Z</time></trkpt><trkpt lat="43.66611764578236" lon="11.135704747943517"><ele>91.0</ele><time>2026-04-07T16:05:10.034Z</time></trkpt><trkpt lat="43.66618374600437" lon="11.135694361979628"><ele>91.0</ele><time>2026-04-07T16:05:15.034Z</time></trkpt><trkpt lat="43.66626906510145" lon="11.135668133252937"><ele>90.5</ele><time>2026-04-07T16:13:05.97Z</time></trkpt><trkpt lat="43.66634294015218" lon="11.135637733844858"><ele>90.0</ele><time>2026-04-07T16:13:08.97Z</time></trkpt><trkpt lat="43.66642346670063" lon="11.135610740461319"><ele>89.5</ele><time>2026-04-07T16:13:10.97Z</time></trkpt><trkpt lat="43.666536404301134" lon="11.135579835207057"><ele>89.0</ele><time>2026-04-07T16:13:12.97Z</time></trkpt><trkpt lat="43.66659999524083" lon="11.135567402588219"><ele>88.5</ele><time>2026-04-07T16:13:13.97Z</time></trkpt><trkpt lat="43.66666373653117" lon="11.135562753029994"><ele>88.0</ele><time>2026-04-07T16:13:14.97Z</time></trkpt><trkpt lat="43.66672896206194" lon="11.135560822834961"><ele>88.0</ele><time>2026-04-07T16:13:15.97Z</time></trkpt><trkpt lat="43.666797685870364" lon="11.13556795160452"><ele>88.0</ele><time>2026-04-07T16:13:16.97Z</time></trkpt><trkpt lat="43.66686352071775" lon="11.135561189421782"><ele>88.0</ele><time>2026-04-07T16:13:17.97Z</time></trkpt><trkpt lat="43.6669263120045" lon="11.135548704504844"><ele>88.0</ele><time>2026-04-07T16:13:18.97Z</time></trkpt><trkpt lat="43.66699088259656" lon="11.13554466328256"><ele>88.0</ele><time>2026-04-07T16:13:19.97Z</time></trkpt><trkpt lat="43.66705660755715" lon="11.135567341401709"><ele>88.0</ele><time>2026-04-07T16:13:20.97Z</time></trkpt><trkpt lat="43.667131091586576" lon="11.135530882508377"><ele>88.0</ele><time>2026-04-07T16:13:21.97Z</time></trkpt><trkpt lat="43.66719795340652" lon="11.135531398630313"><ele>88.0</ele><time>2026-04-07T16:13:22.969Z</time></trkpt><trkpt lat="43.66733191432422" lon="11.135521489515758"><ele>88.0</ele><time>2026-04-07T16:13:24.97Z</time></trkpt><trkpt lat="43.66745425744217" lon="11.135527186302255"><ele>88.0</ele><time>2026-04-07T16:13:26.97Z</time></trkpt><trkpt lat="43.667519387852984" lon="11.135528750889067"><ele>88.0</ele><time>2026-04-07T16:13:27.97Z</time></trkpt><trkpt lat="43.667584010717604" lon="11.13553568024073"><ele>88.0</ele><time>2026-04-07T16:13:28.97Z</time></trkpt><trkpt lat="43.66771629950684" lon="11.13552226082887"><ele>87.75</ele><time>2026-04-07T16:13:30.97Z</time></trkpt><trkpt lat="43.6678397726783" lon="11.13550854749651"><ele>87.5</ele><time>2026-04-07T16:13:32.97Z</time></trkpt><trkpt lat="43.667956863505175" lon="11.13549430869434"><ele>87.25</ele><time>2026-04-07T16:13:34.97Z</time></trkpt><trkpt lat="43.66807467503975" lon="11.135450003995793"><ele>87.0</ele><time>2026-04-07T16:13:36.97Z</time></trkpt><trkpt lat="43.66819179961209" lon="11.135399083562527"><ele>87.0</ele><time>2026-04-07T16:13:38.97Z</time></trkpt><trkpt lat="43.66830075799125" lon="11.135346644203528"><ele>87.0</ele><time>2026-04-07T16:13:40.97Z</time></trkpt><trkpt lat="43.66835928740829" lon="11.135313100098845"><ele>87.0</ele><time>2026-04-07T16:13:41.97Z</time></trkpt><trkpt lat="43.668458631761176" lon="11.135228623063247"><ele>87.0</ele><time>2026-04-07T16:13:43.97Z</time></trkpt><trkpt lat="43.668548596841475" lon="11.135115717718312"><ele>87.0</ele><time>2026-04-07T16:13:45.97Z</time></trkpt><trkpt lat="43.668640420005346" lon="11.13501838132146"><ele>87.0</ele><time>2026-04-07T16:13:47.97Z</time></trkpt><trkpt lat="43.668748764494126" lon="11.13494821313732"><ele>87.0</ele><time>2026-04-07T16:13:49.97Z</time></trkpt><trkpt lat="43.668845176615676" lon="11.134872537957625"><ele>87.0</ele><time>2026-04-07T16:13:51.97Z</time></trkpt><trkpt lat="43.66894238444804" lon="11.134777718379297"><ele>87.0</ele><time>2026-04-07T16:13:53.97Z</time></trkpt><trkpt lat="43.669037228048474" lon="11.134679978735111"><ele>87.0</ele><time>2026-04-07T16:13:55.97Z</time></trkpt><trkpt lat="43.66909062278604" lon="11.1346314703291"><ele>87.0</ele><time>2026-04-07T16:13:56.97Z</time></trkpt><trkpt lat="43.669189478572" lon="11.134538349048936"><ele>87.0</ele><time>2026-04-07T16:13:58.97Z</time></trkpt><trkpt lat="43.66927861075475" lon="11.134456345555725"><ele>87.0</ele><time>2026-04-07T16:14:00.97Z</time></trkpt><trkpt lat="43.66938677777568" lon="11.134364172785197"><ele>87.0</ele><time>2026-04-07T16:14:02.97Z</time></trkpt><trkpt lat="43.66947146268918" lon="11.134250432598071"><ele>86.75</ele><time>2026-04-07T16:14:04.97Z</time></trkpt><trkpt lat="43.66957283566137" lon="11.134164277469946"><ele>86.5</ele><time>2026-04-07T16:14:06.97Z</time></trkpt><trkpt lat="43.66966511810279" lon="11.13407221562544"><ele>86.25</ele><time>2026-04-07T16:14:08.97Z</time></trkpt><trkpt lat="43.66975923691845" lon="11.133972443793322"><ele>86.0</ele><time>2026-04-07T16:14:10.97Z</time></trkpt><trkpt lat="43.66984970807903" lon="11.133857304119005"><ele>86.0</ele><time>2026-04-07T16:14:12.97Z</time></trkpt><trkpt lat="43.669938841311165" lon="11.13373923099474"><ele>86.0</ele><time>2026-04-07T16:14:14.97Z</time></trkpt><trkpt lat="43.67003550843186" lon="11.133635483539521"><ele>86.0</ele><time>2026-04-07T16:14:16.97Z</time></trkpt><trkpt lat="43.67008566594662" lon="11.133582275321368"><ele>86.0</ele><time>2026-04-07T16:14:17.97Z</time></trkpt><trkpt lat="43.67018774800631" lon="11.133480282995345"><ele>86.0</ele><time>2026-04-07T16:14:19.97Z</time></trkpt><trkpt lat="43.67028283517239" lon="11.133372838594791"><ele>86.0</ele><time>2026-04-07T16:14:21.97Z</time></trkpt><trkpt lat="43.670335186942665" lon="11.133314013068516"><ele>86.0</ele><time>2026-04-07T16:14:22.97Z</time></trkpt><trkpt lat="43.67043005670113" lon="11.133200086791325"><ele>86.0</ele><time>2026-04-07T16:14:24.97Z</time></trkpt><trkpt lat="43.670524859804736" lon="11.133097271071344"><ele>86.0</ele><time>2026-04-07T16:14:26.969Z</time></trkpt><trkpt lat="43.6706293185974" lon="11.13301052041135"><ele>86.0</ele><time>2026-04-07T16:14:28.969Z</time></trkpt><trkpt lat="43.67071947777736" lon="11.132925818235544"><ele>85.8</ele><time>2026-04-07T16:14:30.969Z</time></trkpt><trkpt lat="43.67081908916963" lon="11.132829828079313"><ele>85.6</ele><time>2026-04-07T16:14:32.969Z</time></trkpt><trkpt lat="43.67091568222776" lon="11.132757245992845"><ele>85.4</ele><time>2026-04-07T16:14:34.969Z</time></trkpt><trkpt lat="43.67101565254584" lon="11.132656989960473"><ele>85.2</ele><time>2026-04-07T16:14:36.969Z</time></trkpt><trkpt lat="43.6710678578504" lon="11.132607355702516"><ele>85.0</ele><time>2026-04-07T16:14:37.969Z</time></trkpt><trkpt lat="43.67115844048911" lon="11.13254120401019"><ele>84.75</ele><time>2026-04-07T16:14:39.969Z</time></trkpt><trkpt lat="43.67126188556283" lon="11.132468588798167"><ele>84.5</ele><time>2026-04-07T16:14:41.969Z</time></trkpt><trkpt lat="43.67136150087747" lon="11.13240170693892"><ele>84.25</ele><time>2026-04-07T16:14:43.969Z</time></trkpt><trkpt lat="43.671458400031646" lon="11.132315236680267"><ele>84.0</ele><time>2026-04-07T16:14:45.969Z</time></trkpt><trkpt lat="43.6715638753696" lon="11.132285296710037"><ele>84.0</ele><time>2026-04-07T16:14:47.969Z</time></trkpt><trkpt lat="43.67168203365987" lon="11.132235684907045"><ele>84.0</ele><time>2026-04-07T16:14:49.969Z</time></trkpt><trkpt lat="43.671789306525625" lon="11.132182894545219"><ele>84.0</ele><time>2026-04-07T16:14:51.969Z</time></trkpt><trkpt lat="43.67185895545998" lon="11.132160811954574"><ele>84.0</ele><time>2026-04-07T16:14:52.969Z</time></trkpt><trkpt lat="43.67193141565993" lon="11.132144675994022"><ele>84.0</ele><time>2026-04-07T16:14:53.969Z</time></trkpt><trkpt lat="43.67204278617915" lon="11.13209959582658"><ele>83.6</ele><time>2026-04-07T16:14:55.969Z</time></trkpt><trkpt lat="43.67210465547817" lon="11.132080537243054"><ele>83.2</ele><time>2026-04-07T16:14:56.969Z</time></trkpt><trkpt lat="43.672220000963925" lon="11.132051438567808"><ele>82.8</ele><time>2026-04-07T16:14:58.969Z</time></trkpt><trkpt lat="43.67233817857501" lon="11.132034687267923"><ele>82.39999999999999</ele><time>2026-04-07T16:15:00.969Z</time></trkpt><trkpt lat="43.67245335386503" lon="11.132001119304178"><ele>82.0</ele><time>2026-04-07T16:15:02.969Z</time></trkpt><trkpt lat="43.67257692065803" lon="11.13199621882251"><ele>82.0</ele><time>2026-04-07T16:15:04.969Z</time></trkpt><trkpt lat="43.672645147208335" lon="11.13199226042938"><ele>82.0</ele><time>2026-04-07T16:15:05.969Z</time></trkpt><trkpt lat="43.67271570518533" lon="11.131984061362393"><ele>82.0</ele><time>2026-04-07T16:15:06.969Z</time></trkpt><trkpt lat="43.67284193084753" lon="11.131969438976029"><ele>82.0</ele><time>2026-04-07T16:15:08.969Z</time></trkpt><trkpt lat="43.67290586434871" lon="11.131981626846626"><ele>82.0</ele><time>2026-04-07T16:15:09.969Z</time></trkpt><trkpt lat="43.67301282194181" lon="11.132011127315259"><ele>82.0</ele><time>2026-04-07T16:15:11.969Z</time></trkpt><trkpt lat="43.67311316783881" lon="11.13203014306676"><ele>82.0</ele><time>2026-04-07T16:15:13.969Z</time></trkpt><trkpt lat="43.6731979039024" lon="11.1320372149917"><ele>82.0</ele><time>2026-04-07T16:15:15.969Z</time></trkpt><trkpt lat="43.673292053330854" lon="11.13205303647839"><ele>82.0</ele><time>2026-04-07T16:15:17.969Z</time></trkpt><trkpt lat="43.673380716037684" lon="11.132050243096181"><ele>82.0</ele><time>2026-04-07T16:15:19.969Z</time></trkpt><trkpt lat="43.673451469211145" lon="11.132054791834753"><ele>82.0</ele><time>2026-04-07T16:15:21.968Z</time></trkpt><trkpt lat="43.67351404378835" lon="11.132045026619378"><ele>82.0</ele><time>2026-04-07T16:15:24.969Z</time></trkpt><trkpt lat="43.67360768532567" lon="11.13203144331728"><ele>81.85714285714285</ele><time>2026-04-07T16:16:12.968Z</time></trkpt><trkpt lat="43.67367244594644" lon="11.132026899786698"><ele>81.71428571428571</ele><time>2026-04-07T16:16:22.968Z</time></trkpt><trkpt lat="43.67373560801115" lon="11.13204172796915"><ele>81.57142857142857</ele><time>2026-04-07T16:16:31.968Z</time></trkpt><trkpt lat="43.67380510283857" lon="11.132029750483039"><ele>81.42857142857142</ele><time>2026-04-07T16:16:41.968Z</time></trkpt><trkpt lat="43.67386862218748" lon="11.13201112391919"><ele>81.28571428571428</ele><time>2026-04-07T16:16:49.968Z</time></trkpt><trkpt lat="43.67394572595835" lon="11.132015779089807"><ele>81.14285714285714</ele><time>2026-04-07T16:16:59.968Z</time></trkpt><trkpt lat="43.67401372052671" lon="11.132015192184758"><ele>81.0</ele><time>2026-04-07T16:17:06.968Z</time></trkpt><trkpt lat="43.67408031404636" lon="11.131987197637827"><ele>81.0</ele><time>2026-04-07T16:17:14.968Z</time></trkpt><trkpt lat="43.6741453283146" lon="11.131996037013591"><ele>81.0</ele><time>2026-04-07T16:17:21.968Z</time></trkpt><trkpt lat="43.67421008368982" lon="11.131981311157547"><ele>81.0</ele><time>2026-04-07T16:17:29.968Z</time></trkpt><trkpt lat="43.674276583674924" lon="11.131983824716094"><ele>81.0</ele><time>2026-04-07T16:17:35.967Z</time></trkpt><trkpt lat="43.674368308846894" lon="11.131992102914655"><ele>81.0</ele><time>2026-04-07T16:17:40.967Z</time></trkpt><trkpt lat="43.67443837912705" lon="11.131974817229334"><ele>81.0</ele><time>2026-04-07T16:17:43.967Z</time></trkpt><trkpt lat="43.674521223506346" lon="11.131968196060825"><ele>81.0</ele><time>2026-04-07T16:17:47.967Z</time></trkpt><trkpt lat="43.67459621016893" lon="11.13198056026043"><ele>81.0</ele><time>2026-04-07T16:17:51.967Z</time></trkpt><trkpt lat="43.674667555384666" lon="11.131963271923231"><ele>81.0</ele><time>2026-04-07T16:17:55.966Z</time></trkpt><trkpt lat="43.67474026967325" lon="11.131937859462269"><ele>81.0</ele><time>2026-04-07T16:17:59.966Z</time></trkpt><trkpt lat="43.67480780153187" lon="11.1318969476072"><ele>81.0</ele><time>2026-04-07T16:18:03.966Z</time></trkpt><trkpt lat="43.67487119594572" lon="11.131863579736734"><ele>81.0</ele><time>2026-04-07T16:18:13.966Z</time></trkpt><trkpt lat="43.674818990195575" lon="11.131913175407652"><ele>81.0</ele><time>2026-04-07T16:18:22.966Z</time></trkpt><trkpt lat="43.67487632979629" lon="11.131876214676662"><ele>81.0</ele><time>2026-04-07T16:19:01.966Z</time></trkpt><trkpt lat="43.67493173852173" lon="11.131832051337915"><ele>81.0</ele><time>2026-04-07T16:19:10.966Z</time></trkpt><trkpt lat="43.674994523103784" lon="11.131798886972451"><ele>81.0</ele><time>2026-04-07T16:19:18.966Z</time></trkpt><trkpt lat="43.6750566355043" lon="11.131761303558811"><ele>81.0</ele><time>2026-04-07T16:19:27.966Z</time></trkpt><trkpt lat="43.67511355503543" lon="11.131722189013983"><ele>81.0</ele><time>2026-04-07T16:19:36.965Z</time></trkpt><trkpt lat="43.67518150710204" lon="11.131706783127367"><ele>81.0</ele><time>2026-04-07T16:19:45.965Z</time></trkpt><trkpt lat="43.67524955848064" lon="11.131676697363734"><ele>81.0</ele><time>2026-04-07T16:19:53.965Z</time></trkpt><trkpt lat="43.67530943515235" lon="11.131642469641626"><ele>81.0</ele><time>2026-04-07T16:20:01.965Z</time></trkpt><trkpt lat="43.675371235493635" lon="11.131615322944539"><ele>80.85714285714286</ele><time>2026-04-07T16:20:08.965Z</time></trkpt><trkpt lat="43.67543551711573" lon="11.131587232352532"><ele>80.71428571428571</ele><time>2026-04-07T16:20:15.965Z</time></trkpt><trkpt lat="43.67549567106862" lon="11.131551549316868"><ele>80.57142857142857</ele><time>2026-04-07T16:20:23.965Z</time></trkpt><trkpt lat="43.67555164448456" lon="11.131508036377342"><ele>80.42857142857143</ele><time>2026-04-07T16:20:31.965Z</time></trkpt><trkpt lat="43.67561389556187" lon="11.131461670187019"><ele>80.28571428571429</ele><time>2026-04-07T16:20:39.965Z</time></trkpt><trkpt lat="43.67567846250856" lon="11.131426935942354"><ele>80.14285714285714</ele><time>2026-04-07T16:20:46.965Z</time></trkpt><trkpt lat="43.67573783878121" lon="11.131396052716026"><ele>80.0</ele><time>2026-04-07T16:20:53.965Z</time></trkpt><trkpt lat="43.67580347286664" lon="11.131350986403387"><ele>80.14285714285714</ele><time>2026-04-07T16:21:00.965Z</time></trkpt><trkpt lat="43.67586971591741" lon="11.131319689293411"><ele>80.28571428571429</ele><time>2026-04-07T16:21:07.964Z</time></trkpt><trkpt lat="43.67593209602945" lon="11.13127432799424"><ele>80.42857142857143</ele><time>2026-04-07T16:21:15.964Z</time></trkpt><trkpt lat="43.67598277527703" lon="11.131221104954575"><ele>80.57142857142857</ele><time>2026-04-07T16:21:23.964Z</time></trkpt><trkpt lat="43.67604432701966" lon="11.131176420939749"><ele>80.71428571428571</ele><time>2026-04-07T16:21:30.964Z</time></trkpt><trkpt lat="43.67610173448658" lon="11.131119565852336"><ele>80.85714285714286</ele><time>2026-04-07T16:21:38.963Z</time></trkpt><trkpt lat="43.67615884744315" lon="11.131067374232915"><ele>81.0</ele><time>2026-04-07T16:21:45.964Z</time></trkpt><trkpt lat="43.67621809954121" lon="11.131014930276427"><ele>81.0</ele><time>2026-04-07T16:21:53.964Z</time></trkpt><trkpt lat="43.676275433794856" lon="11.130971308262069"><ele>81.0</ele><time>2026-04-07T16:22:00.964Z</time></trkpt><trkpt lat="43.676335330802154" lon="11.13092821539663"><ele>81.0</ele><time>2026-04-07T16:22:07.964Z</time></trkpt><trkpt lat="43.67639735698394" lon="11.13087617146534"><ele>81.0</ele><time>2026-04-07T16:22:14.964Z</time></trkpt><trkpt lat="43.67646146291408" lon="11.130839243626973"><ele>81.0</ele><time>2026-04-07T16:22:21.964Z</time></trkpt><trkpt lat="43.67652401849351" lon="11.130799125848856"><ele>81.0</ele><time>2026-04-07T16:22:27.964Z</time></trkpt><trkpt lat="43.67658463916923" lon="11.13075553777888"><ele>81.0</ele><time>2026-04-07T16:22:33.963Z</time></trkpt><trkpt lat="43.676641509551445" lon="11.130700252012947"><ele>81.28571428571429</ele><time>2026-04-07T16:22:41.963Z</time></trkpt><trkpt lat="43.676699698179604" lon="11.130657154431772"><ele>81.57142857142857</ele><time>2026-04-07T16:22:48.963Z</time></trkpt><trkpt lat="43.67675781133381" lon="11.130605069982021"><ele>81.85714285714286</ele><time>2026-04-07T16:22:55.963Z</time></trkpt><trkpt lat="43.67681137611182" lon="11.130554545452307"><ele>82.14285714285714</ele><time>2026-04-07T16:23:01.963Z</time></trkpt><trkpt lat="43.6768791316754" lon="11.130512893319475"><ele>82.42857142857143</ele><time>2026-04-07T16:23:09.963Z</time></trkpt><trkpt lat="43.676946026268645" lon="11.130474960498926"><ele>82.71428571428571</ele><time>2026-04-07T16:23:15.963Z</time></trkpt><trkpt lat="43.67700893130054" lon="11.130432879870646"><ele>83.0</ele><time>2026-04-07T16:23:21.963Z</time></trkpt><trkpt lat="43.67706041182856" lon="11.130375409406756"><ele>83.14285714285714</ele><time>2026-04-07T16:23:28.963Z</time></trkpt><trkpt lat="43.67711989929009" lon="11.130322450594273"><ele>83.28571428571429</ele><time>2026-04-07T16:23:35.963Z</time></trkpt><trkpt lat="43.67717018552901" lon="11.13026730818155"><ele>83.42857142857143</ele><time>2026-04-07T16:23:41.963Z</time></trkpt><trkpt lat="43.67722677833281" lon="11.130215627281093"><ele>83.57142857142857</ele><time>2026-04-07T16:23:47.961Z</time></trkpt><trkpt lat="43.67728746583904" lon="11.130168330725386"><ele>83.71428571428572</ele><time>2026-04-07T16:23:53.962Z</time></trkpt><trkpt lat="43.677349778337444" lon="11.130129233560075"><ele>83.85714285714286</ele><time>2026-04-07T16:23:59.961Z</time></trkpt><trkpt lat="43.677406694023745" lon="11.130082167407235"><ele>84.0</ele><time>2026-04-07T16:24:05.961Z</time></trkpt><trkpt lat="43.6774667281874" lon="11.130043768885937"><ele>84.0</ele><time>2026-04-07T16:24:10.961Z</time></trkpt><trkpt lat="43.677526370396414" lon="11.130004226241512"><ele>84.0</ele><time>2026-04-07T16:24:17.961Z</time></trkpt><trkpt lat="43.67759233299608" lon="11.129983521832779"><ele>84.0</ele><time>2026-04-07T16:24:25.961Z</time></trkpt><trkpt lat="43.67766018861002" lon="11.129959477931136"><ele>84.0</ele><time>2026-04-07T16:24:31.961Z</time></trkpt><trkpt lat="43.677728684108544" lon="11.129952842885698"><ele>84.0</ele><time>2026-04-07T16:24:37.961Z</time></trkpt><trkpt lat="43.67779224149808" lon="11.129937528570554"><ele>84.0</ele><time>2026-04-07T16:24:44.961Z</time></trkpt><trkpt lat="43.677862219086514" lon="11.129937373214911"><ele>84.0</ele><time>2026-04-07T16:24:56.961Z</time></trkpt><trkpt lat="43.677925610690444" lon="11.129918972279814"><ele>83.85714285714286</ele><time>2026-04-07T16:25:03.961Z</time></trkpt><trkpt lat="43.67799663953509" lon="11.129894952560354"><ele>83.71428571428572</ele><time>2026-04-07T16:25:10.961Z</time></trkpt><trkpt lat="43.678065425532225" lon="11.129877842306003"><ele>83.57142857142857</ele><time>2026-04-07T16:25:17.961Z</time></trkpt><trkpt lat="43.67813169416134" lon="11.129869220893793"><ele>83.42857142857143</ele><time>2026-04-07T16:25:24.961Z</time></trkpt><trkpt lat="43.67819823350841" lon="11.12985075518434"><ele>83.28571428571429</ele><time>2026-04-07T16:25:30.961Z</time></trkpt><trkpt lat="43.67825967561552" lon="11.129807118241557"><ele>83.14285714285714</ele><time>2026-04-07T16:25:38.961Z</time></trkpt><trkpt lat="43.6783232708124" lon="11.129804338475166"><ele>83.0</ele><time>2026-04-07T16:25:44.961Z</time></trkpt><trkpt lat="43.678386449101566" lon="11.129769679208447"><ele>83.0</ele><time>2026-04-07T16:25:51.961Z</time></trkpt><trkpt lat="43.67844979124922" lon="11.12973251300449"><ele>83.0</ele><time>2026-04-07T16:25:59.961Z</time></trkpt><trkpt lat="43.6785127623104" lon="11.129692251982364"><ele>83.0</ele><time>2026-04-07T16:26:06.96Z</time></trkpt><trkpt lat="43.67857866334319" lon="11.129659462536294"><ele>83.0</ele><time>2026-04-07T16:26:12.96Z</time></trkpt><trkpt lat="43.678640555489196" lon="11.129620027615063"><ele>83.0</ele><time>2026-04-07T16:26:19.96Z</time></trkpt><trkpt lat="43.67871028797346" lon="11.12957914994392"><ele>83.0</ele><time>2026-04-07T16:26:25.96Z</time></trkpt><trkpt lat="43.67876612393469" lon="11.129538803803639"><ele>83.0</ele><time>2026-04-07T16:26:31.96Z</time></trkpt><trkpt lat="43.67882356271845" lon="11.12949133250057"><ele>82.71428571428571</ele><time>2026-04-07T16:26:37.96Z</time></trkpt><trkpt lat="43.67888432830973" lon="11.129438023469511"><ele>82.42857142857143</ele><time>2026-04-07T16:26:44.96Z</time></trkpt><trkpt lat="43.67893893339545" lon="11.129394080235903"><ele>82.14285714285714</ele><time>2026-04-07T16:26:51.96Z</time></trkpt><trkpt lat="43.678999463444235" lon="11.129364008591711"><ele>81.85714285714286</ele><time>2026-04-07T16:26:57.96Z</time></trkpt><trkpt lat="43.67906362393598" lon="11.129327231194164"><ele>81.57142857142857</ele><time>2026-04-07T16:27:05.96Z</time></trkpt><trkpt lat="43.67912685610615" lon="11.129285556743874"><ele>81.28571428571429</ele><time>2026-04-07T16:27:12.959Z</time></trkpt><trkpt lat="43.679192938439506" lon="11.129242237409834"><ele>81.0</ele><time>2026-04-07T16:27:20.959Z</time></trkpt><trkpt lat="43.67925594870401" lon="11.12921728591829"><ele>81.0</ele><time>2026-04-07T16:27:27.959Z</time></trkpt><trkpt lat="43.67932405901638" lon="11.129189370245337"><ele>81.0</ele><time>2026-04-07T16:27:34.959Z</time></trkpt><trkpt lat="43.67939314345768" lon="11.12916902461723"><ele>81.0</ele><time>2026-04-07T16:27:44.959Z</time></trkpt><trkpt lat="43.67945498335049" lon="11.129152513955155"><ele>81.0</ele><time>2026-04-07T16:27:53.959Z</time></trkpt><trkpt lat="43.6795177458671" lon="11.12912985527627"><ele>81.0</ele><time>2026-04-07T16:27:59.96Z</time></trkpt><trkpt lat="43.67958695137217" lon="11.129100926070967"><ele>81.0</ele><time>2026-04-07T16:28:06.96Z</time></trkpt><trkpt lat="43.67965094551752" lon="11.129074318541056"><ele>81.0</ele><time>2026-04-07T16:28:12.959Z</time></trkpt><trkpt lat="43.679714848209834" lon="11.129064712224435"><ele>81.0</ele><time>2026-04-07T16:28:17.959Z</time></trkpt><trkpt lat="43.67977942080041" lon="11.129056133780159"><ele>81.0</ele><time>2026-04-07T16:28:23.959Z</time></trkpt><trkpt lat="43.67983955616726" lon="11.129017355447582"><ele>81.0</ele><time>2026-04-07T16:28:31.959Z</time></trkpt><trkpt lat="43.679900328462246" lon="11.1289834697765"><ele>81.0</ele><time>2026-04-07T16:28:38.953Z</time></trkpt><trkpt lat="43.679966232836136" lon="11.128945597143153"><ele>81.0</ele><time>2026-04-07T16:28:46.946Z</time></trkpt><trkpt lat="43.68002508045058" lon="11.128898444834633"><ele>81.0</ele><time>2026-04-07T16:28:53.942Z</time></trkpt><trkpt lat="43.680090045891845" lon="11.128866579475606"><ele>81.0</ele><time>2026-04-07T16:30:48.933Z</time></trkpt><trkpt lat="43.68015224310388" lon="11.128793090717942"><ele>81.0</ele><time>2026-04-07T16:30:55.933Z</time></trkpt><trkpt lat="43.680205683556686" lon="11.128738359606714"><ele>81.0</ele><time>2026-04-07T16:30:58.933Z</time></trkpt><trkpt lat="43.680256025737954" lon="11.128661505610202"><ele>81.0</ele><time>2026-04-07T16:31:01.933Z</time></trkpt><trkpt lat="43.68031992542766" lon="11.128598855808992"><ele>81.0</ele><time>2026-04-07T16:31:04.933Z</time></trkpt><trkpt lat="43.68039366167877" lon="11.128525111342121"><ele>81.0</ele><time>2026-04-07T16:31:07.933Z</time></trkpt><trkpt lat="43.680453612909666" lon="11.12847622754391"><ele>81.0</ele><time>2026-04-07T16:31:09.933Z</time></trkpt><trkpt lat="43.68050385106736" lon="11.128423064102208"><ele>81.0</ele><time>2026-04-07T16:31:11.933Z</time></trkpt><trkpt lat="43.68056383022304" lon="11.128371394834332"><ele>80.85714285714286</ele><time>2026-04-07T16:31:13.933Z</time></trkpt><trkpt lat="43.68062939127468" lon="11.128327194640232"><ele>80.71428571428571</ele><time>2026-04-07T16:31:15.933Z</time></trkpt><trkpt lat="43.680692248589445" lon="11.12827881071828"><ele>80.57142857142857</ele><time>2026-04-07T16:31:17.933Z</time></trkpt><trkpt lat="43.68075644443445" lon="11.128224486138468"><ele>80.42857142857143</ele><time>2026-04-07T16:31:19.933Z</time></trkpt><trkpt lat="43.68082027501508" lon="11.128173823313443"><ele>80.28571428571429</ele><time>2026-04-07T16:31:21.932Z</time></trkpt><trkpt lat="43.68086962928154" lon="11.12810848368401"><ele>80.14285714285714</ele><time>2026-04-07T16:31:23.932Z</time></trkpt><trkpt lat="43.68093918204669" lon="11.128050298660343"><ele>80.0</ele><time>2026-04-07T16:31:25.932Z</time></trkpt><trkpt lat="43.681009352984006" lon="11.128017253044261"><ele>79.85714285714286</ele><time>2026-04-07T16:31:27.932Z</time></trkpt><trkpt lat="43.681074237658116" lon="11.127974200042386"><ele>79.71428571428572</ele><time>2026-04-07T16:31:29.932Z</time></trkpt><trkpt lat="43.68113932352738" lon="11.127932386959372"><ele>79.57142857142858</ele><time>2026-04-07T16:31:31.932Z</time></trkpt><trkpt lat="43.68121077908539" lon="11.12788973009502"><ele>79.42857142857143</ele><time>2026-04-07T16:31:33.932Z</time></trkpt><trkpt lat="43.68127052914936" lon="11.127847316331458"><ele>79.28571428571429</ele><time>2026-04-07T16:31:35.932Z</time></trkpt><trkpt lat="43.68133923761623" lon="11.127821763077787"><ele>79.14285714285715</ele><time>2026-04-07T16:31:37.932Z</time></trkpt><trkpt lat="43.681406910331674" lon="11.12777914805385"><ele>79.0</ele><time>2026-04-07T16:31:39.932Z</time></trkpt><trkpt lat="43.68148693413357" lon="11.127732239690621"><ele>78.83333333333333</ele><time>2026-04-07T16:31:42.932Z</time></trkpt><trkpt lat="43.681570007005675" lon="11.127673535835289"><ele>78.66666666666666</ele><time>2026-04-07T16:31:45.932Z</time></trkpt><trkpt lat="43.6816333915787" lon="11.127627939251164"><ele>78.5</ele><time>2026-04-07T16:31:47.932Z</time></trkpt><trkpt lat="43.68172339089111" lon="11.127584334256138"><ele>78.33333333333333</ele><time>2026-04-07T16:31:50.932Z</time></trkpt><trkpt lat="43.68179366152181" lon="11.127558961495593"><ele>78.16666666666667</ele><time>2026-04-07T16:31:52.932Z</time></trkpt><trkpt lat="43.68185434875511" lon="11.127532436922467"><ele>78.0</ele><time>2026-04-07T16:31:54.932Z</time></trkpt><trkpt lat="43.681927741565396" lon="11.127555077380798"><ele>78.16666666666667</ele><time>2026-04-07T16:31:56.932Z</time></trkpt><trkpt lat="43.68196558780942" lon="11.127648040650886"><ele>78.33333333333333</ele><time>2026-04-07T16:31:59.932Z</time></trkpt><trkpt lat="43.682017972878384" lon="11.127756979632727"><ele>78.5</ele><time>2026-04-07T16:32:02.932Z</time></trkpt><trkpt lat="43.68207104627873" lon="11.127838604732936"><ele>78.66666666666666</ele><time>2026-04-07T16:32:04.932Z</time></trkpt><trkpt lat="43.682137999180895" lon="11.127933312998268"><ele>78.83333333333333</ele><time>2026-04-07T16:32:07.932Z</time></trkpt><trkpt lat="43.68219523940218" lon="11.128006007551662"><ele>79.0</ele><time>2026-04-07T16:32:09.932Z</time></trkpt><trkpt lat="43.68225007650828" lon="11.12807682823427"><ele>79.00000000000001</ele><time>2026-04-07T16:32:11.932Z</time></trkpt><trkpt lat="43.68228588416255" lon="11.128168393116683"><ele>79.0</ele><time>2026-04-07T16:32:13.932Z</time></trkpt><trkpt lat="43.68231926897135" lon="11.128268069712519"><ele>79.0</ele><time>2026-04-07T16:32:15.932Z</time></trkpt><trkpt lat="43.68236588852673" lon="11.12835209125403"><ele>79.0</ele><time>2026-04-07T16:32:17.932Z</time></trkpt><trkpt lat="43.682405733481176" lon="11.128440350043899"><ele>79.0</ele><time>2026-04-07T16:32:19.933Z</time></trkpt><trkpt lat="43.68244856605344" lon="11.128524006244945"><ele>79.00000000000001</ele><time>2026-04-07T16:32:21.932Z</time></trkpt><trkpt lat="43.6824874907113" lon="11.12860122876042"><ele>79.0</ele><time>2026-04-07T16:32:23.932Z</time></trkpt><trkpt lat="43.68252803424866" lon="11.128684691019062"><ele>78.71428571428572</ele><time>2026-04-07T16:32:26.932Z</time></trkpt><trkpt lat="43.682568402865414" lon="11.12876392266446"><ele>78.42857142857143</ele><time>2026-04-07T16:32:31.932Z</time></trkpt><trkpt lat="43.68260318233828" lon="11.128840624671408"><ele>78.14285714285714</ele><time>2026-04-07T16:34:47.93Z</time></trkpt><trkpt lat="43.682650065512156" lon="11.128917398027754"><ele>77.85714285714286</ele><time>2026-04-07T16:34:52.93Z</time></trkpt><trkpt lat="43.68269661288668" lon="11.128981106524321"><ele>77.57142857142857</ele><time>2026-04-07T16:34:56.93Z</time></trkpt><trkpt lat="43.682748252862176" lon="11.129046721141064"><ele>77.28571428571429</ele><time>2026-04-07T16:34:59.93Z</time></trkpt><trkpt lat="43.682806505105" lon="11.129114365427077"><ele>77.0</ele><time>2026-04-07T16:35:02.93Z</time></trkpt><trkpt lat="43.68286358113132" lon="11.129185734388262"><ele>77.71428571428571</ele><time>2026-04-07T16:35:05.93Z</time></trkpt><trkpt lat="43.6829175008098" lon="11.129280377412394"><ele>78.42857142857143</ele><time>2026-04-07T16:35:09.93Z</time></trkpt><trkpt lat="43.6829484920754" lon="11.129375442489074"><ele>79.14285714285714</ele><time>2026-04-07T16:35:12.93Z</time></trkpt><trkpt lat="43.68298203474956" lon="11.12946325757957"><ele>79.85714285714286</ele><time>2026-04-07T16:35:15.93Z</time></trkpt><trkpt lat="43.683024879436886" lon="11.129529646658845"><ele>80.57142857142857</ele><time>2026-04-07T16:35:18.93Z</time></trkpt><trkpt lat="43.68309691347781" lon="11.129490083317489"><ele>81.28571428571428</ele><time>2026-04-07T16:35:24.93Z</time></trkpt><trkpt lat="43.68314940116155" lon="11.129441111351722"><ele>82.0</ele><time>2026-04-07T16:35:27.93Z</time></trkpt><trkpt lat="43.683219294503324" lon="11.129448810282803"><ele>81.99999999999999</ele><time>2026-04-07T16:35:30.93Z</time></trkpt><trkpt lat="43.683282989579226" lon="11.129464814118917"><ele>82.0</ele><time>2026-04-07T16:35:32.93Z</time></trkpt><trkpt lat="43.683343688356736" lon="11.129421338192623"><ele>82.0</ele><time>2026-04-07T16:35:34.929Z</time></trkpt><trkpt lat="43.68341316957896" lon="11.129355153804271"><ele>82.0</ele><time>2026-04-07T16:35:37.929Z</time></trkpt><trkpt lat="43.68348225044202" lon="11.129281988738715"><ele>82.0</ele><time>2026-04-07T16:35:40.929Z</time></trkpt><trkpt lat="43.683537931188724" lon="11.129236638457893"><ele>81.99999999999999</ele><time>2026-04-07T16:35:42.929Z</time></trkpt><trkpt lat="43.6835995013379" lon="11.129183414275714"><ele>82.0</ele><time>2026-04-07T16:35:44.929Z</time></trkpt><trkpt lat="43.68367094410087" lon="11.129123263239256"><ele>82.0</ele><time>2026-04-07T16:35:47.929Z</time></trkpt><trkpt lat="43.683724303719316" lon="11.129223946881112"><ele>82.0</ele><time>2026-04-07T16:35:51.929Z</time></trkpt><trkpt lat="43.68375814930941" lon="11.129328158646581"><ele>82.0</ele><time>2026-04-07T16:35:53.929Z</time></trkpt><trkpt lat="43.683800692459066" lon="11.129428234943253"><ele>82.0</ele><time>2026-04-07T16:35:55.929Z</time></trkpt><trkpt lat="43.683835613622584" lon="11.129523046978225"><ele>82.0</ele><time>2026-04-07T16:35:57.929Z</time></trkpt><trkpt lat="43.68387005916922" lon="11.129634897542452"><ele>82.0</ele><time>2026-04-07T16:35:59.929Z</time></trkpt><trkpt lat="43.68391656114594" lon="11.129734222794509"><ele>82.0</ele><time>2026-04-07T16:36:01.929Z</time></trkpt><trkpt lat="43.683956717933654" lon="11.129830967754549"><ele>82.0</ele><time>2026-04-07T16:36:03.929Z</time></trkpt><trkpt lat="43.683999885193614" lon="11.12993308986332"><ele>82.0</ele><time>2026-04-07T16:36:05.929Z</time></trkpt><trkpt lat="43.684039750499586" lon="11.13003150489893"><ele>82.0</ele><time>2026-04-07T16:36:07.929Z</time></trkpt><trkpt lat="43.684078684848295" lon="11.130128828948472"><ele>82.0</ele><time>2026-04-07T16:36:09.929Z</time></trkpt><trkpt lat="43.68412266210877" lon="11.130217388962695"><ele>82.0</ele><time>2026-04-07T16:36:11.929Z</time></trkpt><trkpt lat="43.68418072500302" lon="11.130306372945602"><ele>81.99999999999999</ele><time>2026-04-07T16:36:13.929Z</time></trkpt><trkpt lat="43.68423359479207" lon="11.13040060224345"><ele>82.0</ele><time>2026-04-07T16:36:15.929Z</time></trkpt><trkpt lat="43.68427244991963" lon="11.13048724585448"><ele>82.0</ele><time>2026-04-07T16:36:17.929Z</time></trkpt><trkpt lat="43.68429567917696" lon="11.130580142913708"><ele>82.0</ele><time>2026-04-07T16:36:19.929Z</time></trkpt><trkpt lat="43.68430865898384" lon="11.130674881648153"><ele>82.0</ele><time>2026-04-07T16:36:21.929Z</time></trkpt><trkpt lat="43.68432605469666" lon="11.13076573155236"><ele>81.99999999999999</ele><time>2026-04-07T16:36:23.928Z</time></trkpt><trkpt lat="43.68433477258882" lon="11.130868637542683"><ele>82.0</ele><time>2026-04-07T16:36:25.928Z</time></trkpt><trkpt lat="43.68433970173227" lon="11.130972886193193"><ele>82.28571428571428</ele><time>2026-04-07T16:36:27.928Z</time></trkpt><trkpt lat="43.684336489165126" lon="11.131061655401993"><ele>82.57142857142857</ele><time>2026-04-07T16:36:29.928Z</time></trkpt><trkpt lat="43.684328463090736" lon="11.13116302440176"><ele>82.85714285714286</ele><time>2026-04-07T16:36:31.928Z</time></trkpt><trkpt lat="43.68430015382655" lon="11.13125797453387"><ele>83.14285714285714</ele><time>2026-04-07T16:36:33.928Z</time></trkpt><trkpt lat="43.68427591665931" lon="11.131340973205191"><ele>83.42857142857143</ele><time>2026-04-07T16:36:35.928Z</time></trkpt><trkpt lat="43.6842416039159" lon="11.13142665253759"><ele>83.71428571428571</ele><time>2026-04-07T16:36:37.928Z</time></trkpt><trkpt lat="43.68421101325322" lon="11.131504245163564"><ele>84.0</ele><time>2026-04-07T16:36:39.928Z</time></trkpt><trkpt lat="43.68418323473797" lon="11.13159696796727"><ele>84.0</ele><time>2026-04-07T16:36:41.928Z</time></trkpt><trkpt lat="43.68413332364209" lon="11.13171696512088"><ele>84.0</ele><time>2026-04-07T16:36:44.928Z</time></trkpt><trkpt lat="43.6841000236975" lon="11.131798651923857"><ele>84.0</ele><time>2026-04-07T16:36:46.928Z</time></trkpt><trkpt lat="43.68406193871598" lon="11.131879225455053"><ele>84.0</ele><time>2026-04-07T16:36:48.928Z</time></trkpt><trkpt lat="43.68401217795205" lon="11.131955415590244"><ele>84.0</ele><time>2026-04-07T16:36:50.928Z</time></trkpt><trkpt lat="43.6839773656665" lon="11.132038697849257"><ele>84.0</ele><time>2026-04-07T16:36:52.928Z</time></trkpt><trkpt lat="43.68400447378723" lon="11.132144841756345"><ele>84.0</ele><time>2026-04-07T16:36:55.928Z</time></trkpt><trkpt lat="43.68406410235022" lon="11.132227018453687"><ele>84.0</ele><time>2026-04-07T16:36:58.928Z</time></trkpt><trkpt lat="43.68412370218571" lon="11.132310937087203"><ele>84.0</ele><time>2026-04-07T16:37:01.928Z</time></trkpt><trkpt lat="43.684177790441936" lon="11.13235698432975"><ele>84.0</ele><time>2026-04-07T16:37:03.928Z</time></trkpt><trkpt lat="43.68422598369969" lon="11.13241740668296"><ele>84.0</ele><time>2026-04-07T16:37:05.928Z</time></trkpt><trkpt lat="43.68427255952548" lon="11.132479320968029"><ele>84.0</ele><time>2026-04-07T16:37:07.928Z</time></trkpt><trkpt lat="43.68431826073996" lon="11.132541532832432"><ele>84.0</ele><time>2026-04-07T16:37:09.928Z</time></trkpt><trkpt lat="43.684378714127384" lon="11.13264100528228"><ele>84.0</ele><time>2026-04-07T16:37:12.928Z</time></trkpt><trkpt lat="43.68441445444918" lon="11.132752057541396"><ele>84.0</ele><time>2026-04-07T16:37:15.928Z</time></trkpt><trkpt lat="43.68446872911621" lon="11.13283402160753"><ele>84.0</ele><time>2026-04-07T16:37:18.927Z</time></trkpt><trkpt lat="43.68454101511388" lon="11.132906187464846"><ele>84.0</ele><time>2026-04-07T16:37:21.927Z</time></trkpt><trkpt lat="43.68462030885974" lon="11.132970962305738"><ele>84.0</ele><time>2026-04-07T16:37:24.927Z</time></trkpt><trkpt lat="43.68471206901582" lon="11.133019552182523"><ele>84.0</ele><time>2026-04-07T16:37:27.927Z</time></trkpt><trkpt lat="43.68477928505742" lon="11.133015388413373"><ele>84.0</ele><time>2026-04-07T16:37:29.927Z</time></trkpt><trkpt lat="43.684842527244264" lon="11.133021196349517"><ele>84.0</ele><time>2026-04-07T16:37:31.927Z</time></trkpt><trkpt lat="43.684911932883615" lon="11.133034618697627"><ele>84.0</ele><time>2026-04-07T16:37:33.927Z</time></trkpt><trkpt lat="43.684972820595206" lon="11.133057899591115"><ele>84.0</ele><time>2026-04-07T16:37:35.927Z</time></trkpt><trkpt lat="43.685033603540866" lon="11.133084738129314"><ele>84.0</ele><time>2026-04-07T16:37:37.927Z</time></trkpt><trkpt lat="43.68509786982148" lon="11.13312097347762"><ele>84.0</ele><time>2026-04-07T16:37:39.927Z</time></trkpt><trkpt lat="43.68518624549117" lon="11.133163640085469"><ele>84.0</ele><time>2026-04-07T16:37:42.927Z</time></trkpt><trkpt lat="43.68525484448485" lon="11.133214777006659"><ele>84.42857142857143</ele><time>2026-04-07T16:37:44.927Z</time></trkpt><trkpt lat="43.685328565199306" lon="11.133255335674479"><ele>84.85714285714286</ele><time>2026-04-07T16:37:46.927Z</time></trkpt><trkpt lat="43.68539785295158" lon="11.133290398892846"><ele>85.28571428571428</ele><time>2026-04-07T16:37:48.927Z</time></trkpt><trkpt lat="43.68545661397913" lon="11.133339489317065"><ele>85.71428571428572</ele><time>2026-04-07T16:37:50.927Z</time></trkpt><trkpt lat="43.685520913122694" lon="11.133365502112712"><ele>86.14285714285714</ele><time>2026-04-07T16:37:52.927Z</time></trkpt><trkpt lat="43.68558793086377" lon="11.133373902297867"><ele>86.57142857142857</ele><time>2026-04-07T16:37:54.927Z</time></trkpt><trkpt lat="43.68565383854101" lon="11.133382557905401"><ele>87.0</ele><time>2026-04-07T16:37:56.927Z</time></trkpt><trkpt lat="43.68573889011868" lon="11.133393010656567"><ele>87.0</ele><time>2026-04-07T16:37:59.927Z</time></trkpt><trkpt lat="43.68581134691356" lon="11.133389015654812"><ele>87.0</ele><time>2026-04-07T16:38:02.927Z</time></trkpt><trkpt lat="43.68587580971314" lon="11.133385250577144"><ele>87.0</ele><time>2026-04-07T16:38:07.927Z</time></trkpt><trkpt lat="43.6859171344624" lon="11.133463699359021"><ele>87.0</ele><time>2026-04-07T16:38:10.927Z</time></trkpt><trkpt lat="43.68596764797833" lon="11.133570899499755"><ele>87.0</ele><time>2026-04-07T16:38:13.927Z</time></trkpt><trkpt lat="43.68603948140164" lon="11.13365342580592"><ele>87.0</ele><time>2026-04-07T16:38:16.927Z</time></trkpt><trkpt lat="43.68611346977601" lon="11.133733649005878"><ele>87.71428571428571</ele><time>2026-04-07T16:38:19.927Z</time></trkpt><trkpt lat="43.68617125606983" lon="11.133771788874972"><ele>88.42857142857143</ele><time>2026-04-07T16:38:21.927Z</time></trkpt><trkpt lat="43.686230494745324" lon="11.133809085355104"><ele>89.14285714285714</ele><time>2026-04-07T16:38:23.927Z</time></trkpt><trkpt lat="43.68631397574573" lon="11.133810095057516"><ele>89.85714285714286</ele><time>2026-04-07T16:38:27.926Z</time></trkpt><trkpt lat="43.68639738735607" lon="11.133754442823397"><ele>90.57142857142857</ele><time>2026-04-07T16:38:31.926Z</time></trkpt><trkpt lat="43.68646489397963" lon="11.133717621813492"><ele>91.28571428571429</ele><time>2026-04-07T16:38:34.926Z</time></trkpt><trkpt lat="43.686534255919696" lon="11.133694023776675"><ele>92.0</ele><time>2026-04-07T16:38:37.926Z</time></trkpt><trkpt lat="43.68661812729419" lon="11.133666277680556"><ele>92.0</ele><time>2026-04-07T16:38:40.926Z</time></trkpt><trkpt lat="43.686682305880126" lon="11.13364164693287"><ele>92.0</ele><time>2026-04-07T16:38:42.926Z</time></trkpt><trkpt lat="43.68674180869966" lon="11.133600586314577"><ele>92.0</ele><time>2026-04-07T16:38:44.926Z</time></trkpt><trkpt lat="43.68682099686096" lon="11.133546270126017"><ele>92.0</ele><time>2026-04-07T16:38:47.926Z</time></trkpt><trkpt lat="43.68688170075912" lon="11.133482201737825"><ele>92.0</ele><time>2026-04-07T16:38:50.926Z</time></trkpt><trkpt lat="43.68683257032989" lon="11.13342242215427"><ele>92.0</ele><time>2026-04-07T16:38:54.926Z</time></trkpt><trkpt lat="43.686757943501696" lon="11.133467342654724"><ele>92.0</ele><time>2026-04-07T16:38:58.926Z</time></trkpt><trkpt lat="43.6866977958784" lon="11.133524475804155"><ele>92.0</ele><time>2026-04-07T16:39:01.926Z</time></trkpt><trkpt lat="43.68664991892274" lon="11.133431380095224"><ele>92.0</ele><time>2026-04-07T16:39:04.926Z</time></trkpt><trkpt lat="43.68661984716327" lon="11.133346373152957"><ele>92.0</ele><time>2026-04-07T16:39:07.926Z</time></trkpt></trkseg></trk></gpx>